<?xml version="1.0" encoding="UTF-8" standalone="yes"?>
<gpx
 xmlns="http://www.topografix.com/GPX/1/1"
 creator="OziExplorer Version 3956f - http://www.oziexplorer.com"
 version="1.1"
 xmlns:xsi="http://www.w3.org/2001/XMLSchema-instance"
 xsi:schemaLocation="http://www.topografix.com/GPX/1/1 http://www.topografix.com/GPX/1/1/gpx.xsd">
<metadata>
 <time>2022-11-23T08:25:13Z</time>
 <bounds minlat="31.207740" minlon="35.194530" maxlat="31.326670" maxlon="35.362220"/>
</metadata>
<trk>
 <name>Arad-Mesada_Jip_Sin, 51km.670m</name>
 <desc>Arad-Mesada_Jip_Sin, 51km.670m</desc>
<trkseg>
<trkpt lat="31.2483200" lon="35.1982500">
<ele>555.270020</ele>
<time>2022-11-23T10:25:13.269Z</time>
</trkpt>
<trkpt lat="31.2480800" lon="35.1981400">
<ele>555.420044</ele>
<time>2022-11-23T10:25:13.269Z</time>
</trkpt>
<trkpt lat="31.2479200" lon="35.1981600">
<ele>554.330017</ele>
<time>2022-11-23T10:25:13.269Z</time>
</trkpt>
<trkpt lat="31.2478500" lon="35.1981200">
<ele>553.830017</ele>
<time>2022-11-23T10:25:13.269Z</time>
</trkpt>
<trkpt lat="31.2478000" lon="35.1980400">
<ele>553.229980</ele>
<time>2022-11-23T10:25:13.269Z</time>
</trkpt>
<trkpt lat="31.2477600" lon="35.1977300">
<ele>552.989990</ele>
<time>2022-11-23T10:25:13.269Z</time>
</trkpt>
<trkpt lat="31.2477000" lon="35.1976000">
<ele>552.820007</ele>
<time>2022-11-23T10:25:13.269Z</time>
</trkpt>
<trkpt lat="31.2476400" lon="35.1975600">
<ele>552.609985</ele>
<time>2022-11-23T10:25:13.269Z</time>
</trkpt>
<trkpt lat="31.2475500" lon="35.1975400">
<ele>552.300049</ele>
<time>2022-11-23T10:25:13.269Z</time>
</trkpt>
<trkpt lat="31.2471700" lon="35.1975800">
<ele>551.029968</ele>
<time>2022-11-23T10:25:13.269Z</time>
</trkpt>
<trkpt lat="31.2471200" lon="35.1975800">
<ele>551.049988</ele>
<time>2022-11-23T10:25:13.269Z</time>
</trkpt>
<trkpt lat="31.2469700" lon="35.1975200">
<ele>551.709961</ele>
<time>2022-11-23T10:25:13.269Z</time>
</trkpt>
<trkpt lat="31.2467200" lon="35.1975900">
<ele>552.359985</ele>
<time>2022-11-23T10:25:13.269Z</time>
</trkpt>
<trkpt lat="31.2463000" lon="35.1975700">
<ele>555.549988</ele>
<time>2022-11-23T10:25:13.269Z</time>
</trkpt>
<trkpt lat="31.2460900" lon="35.1974800">
<ele>557.229980</ele>
<time>2022-11-23T10:25:13.269Z</time>
</trkpt>
<trkpt lat="31.2457900" lon="35.1974100">
<ele>560.919983</ele>
<time>2022-11-23T10:25:13.269Z</time>
</trkpt>
<trkpt lat="31.2453700" lon="35.1972700">
<ele>565.770020</ele>
<time>2022-11-23T10:25:13.269Z</time>
</trkpt>
<trkpt lat="31.2451800" lon="35.1972300">
<ele>568.690002</ele>
<time>2022-11-23T10:25:13.269Z</time>
</trkpt>
<trkpt lat="31.2449800" lon="35.1971600">
<ele>572.400024</ele>
<time>2022-11-23T10:25:13.269Z</time>
</trkpt>
<trkpt lat="31.2444000" lon="35.1970000">
<ele>569.899963</ele>
<time>2022-11-23T10:25:13.269Z</time>
</trkpt>
<trkpt lat="31.2438600" lon="35.1968100">
<ele>570.419983</ele>
<time>2022-11-23T10:25:13.269Z</time>
</trkpt>
<trkpt lat="31.2434600" lon="35.1967000">
<ele>567.530029</ele>
<time>2022-11-23T10:25:13.269Z</time>
</trkpt>
<trkpt lat="31.2432500" lon="35.1966200">
<ele>566.830017</ele>
<time>2022-11-23T10:25:13.270Z</time>
</trkpt>
<trkpt lat="31.2428600" lon="35.1965300">
<ele>570.390015</ele>
<time>2022-11-23T10:25:13.270Z</time>
</trkpt>
<trkpt lat="31.2427200" lon="35.1964700">
<ele>571.500000</ele>
<time>2022-11-23T10:25:13.270Z</time>
</trkpt>
<trkpt lat="31.2421800" lon="35.1963100">
<ele>565.019958</ele>
<time>2022-11-23T10:25:13.270Z</time>
</trkpt>
<trkpt lat="31.2420900" lon="35.1962700">
<ele>563.919983</ele>
<time>2022-11-23T10:25:13.270Z</time>
</trkpt>
<trkpt lat="31.2416800" lon="35.1961700">
<ele>563.570007</ele>
<time>2022-11-23T10:25:13.270Z</time>
</trkpt>
<trkpt lat="31.2413100" lon="35.1960500">
<ele>563.559998</ele>
<time>2022-11-23T10:25:13.270Z</time>
</trkpt>
<trkpt lat="31.2411100" lon="35.1959600">
<ele>563.010010</ele>
<time>2022-11-23T10:25:13.270Z</time>
</trkpt>
<trkpt lat="31.2406400" lon="35.1958200">
<ele>565.750000</ele>
<time>2022-11-23T10:25:13.270Z</time>
</trkpt>
<trkpt lat="31.2403200" lon="35.1957400">
<ele>561.209961</ele>
<time>2022-11-23T10:25:13.270Z</time>
</trkpt>
<trkpt lat="31.2399500" lon="35.1956200">
<ele>557.909973</ele>
<time>2022-11-23T10:25:13.270Z</time>
</trkpt>
<trkpt lat="31.2393500" lon="35.1954600">
<ele>566.239990</ele>
<time>2022-11-23T10:25:13.270Z</time>
</trkpt>
<trkpt lat="31.2382300" lon="35.1951300">
<ele>562.380005</ele>
<time>2022-11-23T10:25:13.270Z</time>
</trkpt>
<trkpt lat="31.2376600" lon="35.1949300">
<ele>568.309998</ele>
<time>2022-11-23T10:25:13.270Z</time>
</trkpt>
<trkpt lat="31.2374800" lon="35.1948900">
<ele>571.399963</ele>
<time>2022-11-23T10:25:13.270Z</time>
</trkpt>
<trkpt lat="31.2372500" lon="35.1948100">
<ele>574.750000</ele>
<time>2022-11-23T10:25:13.270Z</time>
</trkpt>
<trkpt lat="31.2367200" lon="35.1946400">
<ele>579.590027</ele>
<time>2022-11-23T10:25:13.270Z</time>
</trkpt>
<trkpt lat="31.2363800" lon="35.1945700">
<ele>579.950012</ele>
<time>2022-11-23T10:25:13.270Z</time>
</trkpt>
<trkpt lat="31.2358700" lon="35.1945300">
<ele>575.489990</ele>
<time>2022-11-23T10:25:13.270Z</time>
</trkpt>
<trkpt lat="31.2352600" lon="35.1946300">
<ele>567.020020</ele>
<time>2022-11-23T10:25:13.271Z</time>
</trkpt>
<trkpt lat="31.2350300" lon="35.1947100">
<ele>567.809998</ele>
<time>2022-11-23T10:25:13.271Z</time>
</trkpt>
<trkpt lat="31.2349200" lon="35.1947400">
<ele>567.640015</ele>
<time>2022-11-23T10:25:13.271Z</time>
</trkpt>
<trkpt lat="31.2347600" lon="35.1948100">
<ele>566.989990</ele>
<time>2022-11-23T10:25:13.271Z</time>
</trkpt>
<trkpt lat="31.2346500" lon="35.1948600">
<ele>567.640015</ele>
<time>2022-11-23T10:25:13.271Z</time>
</trkpt>
<trkpt lat="31.2345000" lon="35.1949800">
<ele>569.510010</ele>
<time>2022-11-23T10:25:13.272Z</time>
</trkpt>
<trkpt lat="31.2343300" lon="35.1950700">
<ele>569.440002</ele>
<time>2022-11-23T10:25:13.272Z</time>
</trkpt>
<trkpt lat="31.2342100" lon="35.1951600">
<ele>570.169983</ele>
<time>2022-11-23T10:25:13.272Z</time>
</trkpt>
<trkpt lat="31.2338500" lon="35.1954900">
<ele>571.399963</ele>
<time>2022-11-23T10:25:13.272Z</time>
</trkpt>
<trkpt lat="31.2337800" lon="35.1955800">
<ele>572.640015</ele>
<time>2022-11-23T10:25:13.272Z</time>
</trkpt>
<trkpt lat="31.2336500" lon="35.1957100">
<ele>573.650024</ele>
<time>2022-11-23T10:25:13.272Z</time>
</trkpt>
<trkpt lat="31.2334500" lon="35.1959800">
<ele>574.779968</ele>
<time>2022-11-23T10:25:13.272Z</time>
</trkpt>
<trkpt lat="31.2333400" lon="35.1960900">
<ele>575.770020</ele>
<time>2022-11-23T10:25:13.272Z</time>
</trkpt>
<trkpt lat="31.2332400" lon="35.1962300">
<ele>575.700012</ele>
<time>2022-11-23T10:25:13.272Z</time>
</trkpt>
<trkpt lat="31.2331200" lon="35.1964000">
<ele>575.039978</ele>
<time>2022-11-23T10:25:13.272Z</time>
</trkpt>
<trkpt lat="31.2329500" lon="35.1967500">
<ele>576.489990</ele>
<time>2022-11-23T10:25:13.272Z</time>
</trkpt>
<trkpt lat="31.2328500" lon="35.1969600">
<ele>577.919983</ele>
<time>2022-11-23T10:25:13.272Z</time>
</trkpt>
<trkpt lat="31.2327500" lon="35.1971000">
<ele>578.679993</ele>
<time>2022-11-23T10:25:13.272Z</time>
</trkpt>
<trkpt lat="31.2326900" lon="35.1971500">
<ele>579.220032</ele>
<time>2022-11-23T10:25:13.272Z</time>
</trkpt>
<trkpt lat="31.2325800" lon="35.1971700">
<ele>579.440002</ele>
<time>2022-11-23T10:25:13.272Z</time>
</trkpt>
<trkpt lat="31.2324700" lon="35.1971500">
<ele>579.299988</ele>
<time>2022-11-23T10:25:13.272Z</time>
</trkpt>
<trkpt lat="31.2323800" lon="35.1970900">
<ele>579.190002</ele>
<time>2022-11-23T10:25:13.272Z</time>
</trkpt>
<trkpt lat="31.2323000" lon="35.1968600">
<ele>578.770020</ele>
<time>2022-11-23T10:25:13.272Z</time>
</trkpt>
<trkpt lat="31.2321500" lon="35.1965900">
<ele>580.260010</ele>
<time>2022-11-23T10:25:13.272Z</time>
</trkpt>
<trkpt lat="31.2319300" lon="35.1965400">
<ele>584.409973</ele>
<time>2022-11-23T10:25:13.272Z</time>
</trkpt>
<trkpt lat="31.2317300" lon="35.1966800">
<ele>581.950012</ele>
<time>2022-11-23T10:25:13.272Z</time>
</trkpt>
<trkpt lat="31.2314000" lon="35.1966900">
<ele>582.780029</ele>
<time>2022-11-23T10:25:13.272Z</time>
</trkpt>
<trkpt lat="31.2309500" lon="35.1967300">
<ele>585.789978</ele>
<time>2022-11-23T10:25:13.272Z</time>
</trkpt>
<trkpt lat="31.2307100" lon="35.1969100">
<ele>589.179993</ele>
<time>2022-11-23T10:25:13.272Z</time>
</trkpt>
<trkpt lat="31.2304600" lon="35.1972200">
<ele>592.630005</ele>
<time>2022-11-23T10:25:13.272Z</time>
</trkpt>
<trkpt lat="31.2303100" lon="35.1976500">
<ele>591.109985</ele>
<time>2022-11-23T10:25:13.272Z</time>
</trkpt>
<trkpt lat="31.2301800" lon="35.1982600">
<ele>591.049988</ele>
<time>2022-11-23T10:25:13.272Z</time>
</trkpt>
<trkpt lat="31.2299800" lon="35.1987800">
<ele>590.179993</ele>
<time>2022-11-23T10:25:13.272Z</time>
</trkpt>
<trkpt lat="31.2297800" lon="35.1990600">
<ele>590.650024</ele>
<time>2022-11-23T10:25:13.272Z</time>
</trkpt>
<trkpt lat="31.2297200" lon="35.1993500">
<ele>592.979980</ele>
<time>2022-11-23T10:25:13.273Z</time>
</trkpt>
<trkpt lat="31.2296700" lon="35.1995000">
<ele>594.049988</ele>
<time>2022-11-23T10:25:13.273Z</time>
</trkpt>
<trkpt lat="31.2296200" lon="35.1999000">
<ele>595.000000</ele>
<time>2022-11-23T10:25:13.273Z</time>
</trkpt>
<trkpt lat="31.2295300" lon="35.2001000">
<ele>595.640015</ele>
<time>2022-11-23T10:25:13.273Z</time>
</trkpt>
<trkpt lat="31.2293900" lon="35.2005500">
<ele>598.780029</ele>
<time>2022-11-23T10:25:13.273Z</time>
</trkpt>
<trkpt lat="31.2293000" lon="35.2010200">
<ele>596.510010</ele>
<time>2022-11-23T10:25:13.273Z</time>
</trkpt>
<trkpt lat="31.2291100" lon="35.2015200">
<ele>592.339966</ele>
<time>2022-11-23T10:25:13.273Z</time>
</trkpt>
<trkpt lat="31.2289900" lon="35.2017900">
<ele>588.789978</ele>
<time>2022-11-23T10:25:13.273Z</time>
</trkpt>
<trkpt lat="31.2287500" lon="35.2020600">
<ele>588.669983</ele>
<time>2022-11-23T10:25:13.273Z</time>
</trkpt>
<trkpt lat="31.2286200" lon="35.2023000">
<ele>584.890015</ele>
<time>2022-11-23T10:25:13.273Z</time>
</trkpt>
<trkpt lat="31.2285000" lon="35.2025900">
<ele>584.090027</ele>
<time>2022-11-23T10:25:13.273Z</time>
</trkpt>
<trkpt lat="31.2284600" lon="35.2028300">
<ele>584.309998</ele>
<time>2022-11-23T10:25:13.273Z</time>
</trkpt>
<trkpt lat="31.2284600" lon="35.2030400">
<ele>585.969971</ele>
<time>2022-11-23T10:25:13.273Z</time>
</trkpt>
<trkpt lat="31.2284400" lon="35.2033600">
<ele>589.000000</ele>
<time>2022-11-23T10:25:13.273Z</time>
</trkpt>
<trkpt lat="31.2282700" lon="35.2036500">
<ele>590.440002</ele>
<time>2022-11-23T10:25:13.273Z</time>
</trkpt>
<trkpt lat="31.2281500" lon="35.2038800">
<ele>591.320007</ele>
<time>2022-11-23T10:25:13.273Z</time>
</trkpt>
<trkpt lat="31.2281000" lon="35.2039800">
<ele>591.649963</ele>
<time>2022-11-23T10:25:13.273Z</time>
</trkpt>
<trkpt lat="31.2279400" lon="35.2043100">
<ele>593.350037</ele>
<time>2022-11-23T10:25:13.273Z</time>
</trkpt>
<trkpt lat="31.2278800" lon="35.2044000">
<ele>594.420044</ele>
<time>2022-11-23T10:25:13.273Z</time>
</trkpt>
<trkpt lat="31.2277700" lon="35.2046000">
<ele>597.179993</ele>
<time>2022-11-23T10:25:13.273Z</time>
</trkpt>
<trkpt lat="31.2277400" lon="35.2046600">
<ele>597.760010</ele>
<time>2022-11-23T10:25:13.273Z</time>
</trkpt>
<trkpt lat="31.2277200" lon="35.2046700">
<ele>597.700012</ele>
<time>2022-11-23T10:25:13.274Z</time>
</trkpt>
<trkpt lat="31.2276200" lon="35.2048800">
<ele>599.320007</ele>
<time>2022-11-23T10:25:13.274Z</time>
</trkpt>
<trkpt lat="31.2274300" lon="35.2053100">
<ele>600.679993</ele>
<time>2022-11-23T10:25:13.274Z</time>
</trkpt>
<trkpt lat="31.2274100" lon="35.2053500">
<ele>600.289978</ele>
<time>2022-11-23T10:25:13.274Z</time>
</trkpt>
<trkpt lat="31.2273000" lon="35.2055200">
<ele>598.780029</ele>
<time>2022-11-23T10:25:13.274Z</time>
</trkpt>
<trkpt lat="31.2272500" lon="35.2055700">
<ele>598.429993</ele>
<time>2022-11-23T10:25:13.274Z</time>
</trkpt>
<trkpt lat="31.2270400" lon="35.2058900">
<ele>598.979980</ele>
<time>2022-11-23T10:25:13.274Z</time>
</trkpt>
<trkpt lat="31.2268200" lon="35.2063500">
<ele>601.309998</ele>
<time>2022-11-23T10:25:13.274Z</time>
</trkpt>
<trkpt lat="31.2267200" lon="35.2067200">
<ele>604.959961</ele>
<time>2022-11-23T10:25:13.274Z</time>
</trkpt>
<trkpt lat="31.2266300" lon="35.2069100">
<ele>605.599976</ele>
<time>2022-11-23T10:25:13.274Z</time>
</trkpt>
<trkpt lat="31.2265600" lon="35.2070500">
<ele>604.539978</ele>
<time>2022-11-23T10:25:13.274Z</time>
</trkpt>
<trkpt lat="31.2265400" lon="35.2070800">
<ele>604.109985</ele>
<time>2022-11-23T10:25:13.274Z</time>
</trkpt>
<trkpt lat="31.2265100" lon="35.2071300">
<ele>603.450012</ele>
<time>2022-11-23T10:25:13.274Z</time>
</trkpt>
<trkpt lat="31.2264800" lon="35.2071700">
<ele>602.700012</ele>
<time>2022-11-23T10:25:13.274Z</time>
</trkpt>
<trkpt lat="31.2264500" lon="35.2072700">
<ele>602.419983</ele>
<time>2022-11-23T10:25:13.274Z</time>
</trkpt>
<trkpt lat="31.2264300" lon="35.2076000">
<ele>605.679993</ele>
<time>2022-11-23T10:25:13.274Z</time>
</trkpt>
<trkpt lat="31.2263900" lon="35.2077200">
<ele>606.979980</ele>
<time>2022-11-23T10:25:13.274Z</time>
</trkpt>
<trkpt lat="31.2263300" lon="35.2078300">
<ele>607.119995</ele>
<time>2022-11-23T10:25:13.274Z</time>
</trkpt>
<trkpt lat="31.2262900" lon="35.2078800">
<ele>606.739990</ele>
<time>2022-11-23T10:25:13.274Z</time>
</trkpt>
<trkpt lat="31.2262200" lon="35.2079200">
<ele>605.590027</ele>
<time>2022-11-23T10:25:13.274Z</time>
</trkpt>
<trkpt lat="31.2261400" lon="35.2079700">
<ele>604.419983</ele>
<time>2022-11-23T10:25:13.274Z</time>
</trkpt>
<trkpt lat="31.2260700" lon="35.2080400">
<ele>603.760010</ele>
<time>2022-11-23T10:25:13.274Z</time>
</trkpt>
<trkpt lat="31.2260500" lon="35.2080500">
<ele>603.390015</ele>
<time>2022-11-23T10:25:13.274Z</time>
</trkpt>
<trkpt lat="31.2260400" lon="35.2080700">
<ele>603.329956</ele>
<time>2022-11-23T10:25:13.274Z</time>
</trkpt>
<trkpt lat="31.2258500" lon="35.2082800">
<ele>600.799988</ele>
<time>2022-11-23T10:25:13.274Z</time>
</trkpt>
<trkpt lat="31.2257200" lon="35.2084700">
<ele>600.520020</ele>
<time>2022-11-23T10:25:13.274Z</time>
</trkpt>
<trkpt lat="31.2256900" lon="35.2084600">
<ele>599.730042</ele>
<time>2022-11-23T10:25:13.274Z</time>
</trkpt>
<trkpt lat="31.2255900" lon="35.2085400">
<ele>598.719971</ele>
<time>2022-11-23T10:25:13.274Z</time>
</trkpt>
<trkpt lat="31.2255500" lon="35.2086700">
<ele>599.390015</ele>
<time>2022-11-23T10:25:13.274Z</time>
</trkpt>
<trkpt lat="31.2255300" lon="35.2087500">
<ele>599.860046</ele>
<time>2022-11-23T10:25:13.274Z</time>
</trkpt>
<trkpt lat="31.2254500" lon="35.2088400">
<ele>600.200012</ele>
<time>2022-11-23T10:25:13.274Z</time>
</trkpt>
<trkpt lat="31.2254200" lon="35.2088900">
<ele>600.530029</ele>
<time>2022-11-23T10:25:13.274Z</time>
</trkpt>
<trkpt lat="31.2254000" lon="35.2089100">
<ele>600.849976</ele>
<time>2022-11-23T10:25:13.274Z</time>
</trkpt>
<trkpt lat="31.2253000" lon="35.2090900">
<ele>603.760010</ele>
<time>2022-11-23T10:25:13.274Z</time>
</trkpt>
<trkpt lat="31.2251100" lon="35.2093300">
<ele>604.359985</ele>
<time>2022-11-23T10:25:13.275Z</time>
</trkpt>
<trkpt lat="31.2250500" lon="35.2094400">
<ele>604.510010</ele>
<time>2022-11-23T10:25:13.275Z</time>
</trkpt>
<trkpt lat="31.2250000" lon="35.2095600">
<ele>605.659973</ele>
<time>2022-11-23T10:25:13.275Z</time>
</trkpt>
<trkpt lat="31.2249700" lon="35.2096700">
<ele>607.309998</ele>
<time>2022-11-23T10:25:13.275Z</time>
</trkpt>
<trkpt lat="31.2249400" lon="35.2097300">
<ele>608.080017</ele>
<time>2022-11-23T10:25:13.275Z</time>
</trkpt>
<trkpt lat="31.2248100" lon="35.2098900">
<ele>609.400024</ele>
<time>2022-11-23T10:25:13.275Z</time>
</trkpt>
<trkpt lat="31.2247900" lon="35.2099400">
<ele>609.760010</ele>
<time>2022-11-23T10:25:13.275Z</time>
</trkpt>
<trkpt lat="31.2247500" lon="35.2101200">
<ele>611.440002</ele>
<time>2022-11-23T10:25:13.275Z</time>
</trkpt>
<trkpt lat="31.2247400" lon="35.2102500">
<ele>612.820007</ele>
<time>2022-11-23T10:25:13.275Z</time>
</trkpt>
<trkpt lat="31.2247500" lon="35.2114000">
<ele>625.269958</ele>
<time>2022-11-23T10:25:13.275Z</time>
</trkpt>
<trkpt lat="31.2247600" lon="35.2115300">
<ele>627.309998</ele>
<time>2022-11-23T10:25:13.275Z</time>
</trkpt>
<trkpt lat="31.2248300" lon="35.2117900">
<ele>630.440002</ele>
<time>2022-11-23T10:25:13.275Z</time>
</trkpt>
<trkpt lat="31.2249500" lon="35.2119500">
<ele>631.570007</ele>
<time>2022-11-23T10:25:13.275Z</time>
</trkpt>
<trkpt lat="31.2251000" lon="35.2120400">
<ele>630.510010</ele>
<time>2022-11-23T10:25:13.275Z</time>
</trkpt>
<trkpt lat="31.2251800" lon="35.2120900">
<ele>629.939941</ele>
<time>2022-11-23T10:25:13.275Z</time>
</trkpt>
<trkpt lat="31.2254300" lon="35.2122900">
<ele>629.129944</ele>
<time>2022-11-23T10:25:13.275Z</time>
</trkpt>
<trkpt lat="31.2254600" lon="35.2123400">
<ele>629.279968</ele>
<time>2022-11-23T10:25:13.275Z</time>
</trkpt>
<trkpt lat="31.2255300" lon="35.2124600">
<ele>629.779968</ele>
<time>2022-11-23T10:25:13.275Z</time>
</trkpt>
<trkpt lat="31.2256100" lon="35.2126800">
<ele>630.440002</ele>
<time>2022-11-23T10:25:13.275Z</time>
</trkpt>
<trkpt lat="31.2257300" lon="35.2129600">
<ele>630.919983</ele>
<time>2022-11-23T10:25:13.275Z</time>
</trkpt>
<trkpt lat="31.2257500" lon="35.2129900">
<ele>631.080017</ele>
<time>2022-11-23T10:25:13.275Z</time>
</trkpt>
<trkpt lat="31.2258200" lon="35.2130600">
<ele>631.819946</ele>
<time>2022-11-23T10:25:13.276Z</time>
</trkpt>
<trkpt lat="31.2259600" lon="35.2132400">
<ele>629.299988</ele>
<time>2022-11-23T10:25:13.276Z</time>
</trkpt>
<trkpt lat="31.2260200" lon="35.2133400">
<ele>629.370056</ele>
<time>2022-11-23T10:25:13.276Z</time>
</trkpt>
<trkpt lat="31.2261100" lon="35.2134600">
<ele>630.820007</ele>
<time>2022-11-23T10:25:13.276Z</time>
</trkpt>
<trkpt lat="31.2262600" lon="35.2136700">
<ele>633.050049</ele>
<time>2022-11-23T10:25:13.276Z</time>
</trkpt>
<trkpt lat="31.2263400" lon="35.2137900">
<ele>635.250000</ele>
<time>2022-11-23T10:25:13.276Z</time>
</trkpt>
<trkpt lat="31.2264600" lon="35.2139500">
<ele>636.510010</ele>
<time>2022-11-23T10:25:13.276Z</time>
</trkpt>
<trkpt lat="31.2265900" lon="35.2141500">
<ele>635.220032</ele>
<time>2022-11-23T10:25:13.276Z</time>
</trkpt>
<trkpt lat="31.2266100" lon="35.2141700">
<ele>635.179993</ele>
<time>2022-11-23T10:25:13.276Z</time>
</trkpt>
<trkpt lat="31.2266500" lon="35.2142200">
<ele>634.800049</ele>
<time>2022-11-23T10:25:13.276Z</time>
</trkpt>
<trkpt lat="31.2266600" lon="35.2142500">
<ele>634.679993</ele>
<time>2022-11-23T10:25:13.276Z</time>
</trkpt>
<trkpt lat="31.2267100" lon="35.2142800">
<ele>633.559998</ele>
<time>2022-11-23T10:25:13.276Z</time>
</trkpt>
<trkpt lat="31.2267700" lon="35.2143800">
<ele>631.910034</ele>
<time>2022-11-23T10:25:13.276Z</time>
</trkpt>
<trkpt lat="31.2268900" lon="35.2147200">
<ele>628.009949</ele>
<time>2022-11-23T10:25:13.276Z</time>
</trkpt>
<trkpt lat="31.2269100" lon="35.2147400">
<ele>627.700012</ele>
<time>2022-11-23T10:25:13.276Z</time>
</trkpt>
<trkpt lat="31.2269300" lon="35.2147500">
<ele>627.509949</ele>
<time>2022-11-23T10:25:13.276Z</time>
</trkpt>
<trkpt lat="31.2269400" lon="35.2147300">
<ele>627.860046</ele>
<time>2022-11-23T10:25:13.276Z</time>
</trkpt>
<trkpt lat="31.2270000" lon="35.2152000">
<ele>620.349976</ele>
<time>2022-11-23T10:25:13.276Z</time>
</trkpt>
<trkpt lat="31.2271300" lon="35.2156900">
<ele>618.529968</ele>
<time>2022-11-23T10:25:13.276Z</time>
</trkpt>
<trkpt lat="31.2273000" lon="35.2161100">
<ele>615.169983</ele>
<time>2022-11-23T10:25:13.276Z</time>
</trkpt>
<trkpt lat="31.2275000" lon="35.2165600">
<ele>614.619995</ele>
<time>2022-11-23T10:25:13.276Z</time>
</trkpt>
<trkpt lat="31.2275900" lon="35.2167900">
<ele>612.900024</ele>
<time>2022-11-23T10:25:13.276Z</time>
</trkpt>
<trkpt lat="31.2277500" lon="35.2173800">
<ele>610.630005</ele>
<time>2022-11-23T10:25:13.276Z</time>
</trkpt>
<trkpt lat="31.2277900" lon="35.2174900">
<ele>609.900024</ele>
<time>2022-11-23T10:25:13.277Z</time>
</trkpt>
<trkpt lat="31.2279700" lon="35.2178600">
<ele>606.729980</ele>
<time>2022-11-23T10:25:13.277Z</time>
</trkpt>
<trkpt lat="31.2282200" lon="35.2184200">
<ele>605.769958</ele>
<time>2022-11-23T10:25:13.277Z</time>
</trkpt>
<trkpt lat="31.2283500" lon="35.2188700">
<ele>603.190002</ele>
<time>2022-11-23T10:25:13.277Z</time>
</trkpt>
<trkpt lat="31.2284000" lon="35.2192500">
<ele>599.580017</ele>
<time>2022-11-23T10:25:13.277Z</time>
</trkpt>
<trkpt lat="31.2284200" lon="35.2194500">
<ele>597.640015</ele>
<time>2022-11-23T10:25:13.277Z</time>
</trkpt>
<trkpt lat="31.2283900" lon="35.2196500">
<ele>598.000000</ele>
<time>2022-11-23T10:25:13.277Z</time>
</trkpt>
<trkpt lat="31.2283500" lon="35.2197800">
<ele>598.440002</ele>
<time>2022-11-23T10:25:13.277Z</time>
</trkpt>
<trkpt lat="31.2282100" lon="35.2200900">
<ele>598.630005</ele>
<time>2022-11-23T10:25:13.277Z</time>
</trkpt>
<trkpt lat="31.2281200" lon="35.2203900">
<ele>598.880005</ele>
<time>2022-11-23T10:25:13.277Z</time>
</trkpt>
<trkpt lat="31.2280900" lon="35.2204200">
<ele>599.279968</ele>
<time>2022-11-23T10:25:13.277Z</time>
</trkpt>
<trkpt lat="31.2280400" lon="35.2205800">
<ele>600.849976</ele>
<time>2022-11-23T10:25:13.277Z</time>
</trkpt>
<trkpt lat="31.2279700" lon="35.2207100">
<ele>600.760010</ele>
<time>2022-11-23T10:25:13.277Z</time>
</trkpt>
<trkpt lat="31.2279000" lon="35.2207800">
<ele>601.130005</ele>
<time>2022-11-23T10:25:13.277Z</time>
</trkpt>
<trkpt lat="31.2276800" lon="35.2209000">
<ele>601.799988</ele>
<time>2022-11-23T10:25:13.277Z</time>
</trkpt>
<trkpt lat="31.2275100" lon="35.2210300">
<ele>602.210022</ele>
<time>2022-11-23T10:25:13.277Z</time>
</trkpt>
<trkpt lat="31.2273800" lon="35.2211200">
<ele>604.140015</ele>
<time>2022-11-23T10:25:13.277Z</time>
</trkpt>
<trkpt lat="31.2272900" lon="35.2212100">
<ele>605.690002</ele>
<time>2022-11-23T10:25:13.277Z</time>
</trkpt>
<trkpt lat="31.2271800" lon="35.2212900">
<ele>607.200012</ele>
<time>2022-11-23T10:25:13.278Z</time>
</trkpt>
<trkpt lat="31.2270200" lon="35.2213900">
<ele>608.450012</ele>
<time>2022-11-23T10:25:13.278Z</time>
</trkpt>
<trkpt lat="31.2269700" lon="35.2214300">
<ele>608.720032</ele>
<time>2022-11-23T10:25:13.278Z</time>
</trkpt>
<trkpt lat="31.2269300" lon="35.2214500">
<ele>608.960022</ele>
<time>2022-11-23T10:25:13.278Z</time>
</trkpt>
<trkpt lat="31.2268900" lon="35.2215100">
<ele>608.890015</ele>
<time>2022-11-23T10:25:13.278Z</time>
</trkpt>
<trkpt lat="31.2268200" lon="35.2216400">
<ele>608.960022</ele>
<time>2022-11-23T10:25:13.278Z</time>
</trkpt>
<trkpt lat="31.2267700" lon="35.2217800">
<ele>607.380005</ele>
<time>2022-11-23T10:25:13.278Z</time>
</trkpt>
<trkpt lat="31.2266800" lon="35.2221700">
<ele>606.650024</ele>
<time>2022-11-23T10:25:13.278Z</time>
</trkpt>
<trkpt lat="31.2266200" lon="35.2225900">
<ele>606.770020</ele>
<time>2022-11-23T10:25:13.278Z</time>
</trkpt>
<trkpt lat="31.2265100" lon="35.2229000">
<ele>607.059998</ele>
<time>2022-11-23T10:25:13.278Z</time>
</trkpt>
<trkpt lat="31.2264700" lon="35.2230900">
<ele>606.119995</ele>
<time>2022-11-23T10:25:13.278Z</time>
</trkpt>
<trkpt lat="31.2264600" lon="35.2233000">
<ele>606.229980</ele>
<time>2022-11-23T10:25:13.278Z</time>
</trkpt>
<trkpt lat="31.2264700" lon="35.2235100">
<ele>605.779968</ele>
<time>2022-11-23T10:25:13.278Z</time>
</trkpt>
<trkpt lat="31.2265000" lon="35.2235800">
<ele>605.799988</ele>
<time>2022-11-23T10:25:13.278Z</time>
</trkpt>
<trkpt lat="31.2265300" lon="35.2236400">
<ele>605.760010</ele>
<time>2022-11-23T10:25:13.278Z</time>
</trkpt>
<trkpt lat="31.2266000" lon="35.2237500">
<ele>605.659973</ele>
<time>2022-11-23T10:25:13.278Z</time>
</trkpt>
<trkpt lat="31.2267800" lon="35.2239200">
<ele>608.380005</ele>
<time>2022-11-23T10:25:13.278Z</time>
</trkpt>
<trkpt lat="31.2268700" lon="35.2240400">
<ele>610.250000</ele>
<time>2022-11-23T10:25:13.278Z</time>
</trkpt>
<trkpt lat="31.2269000" lon="35.2241200">
<ele>610.909973</ele>
<time>2022-11-23T10:25:13.278Z</time>
</trkpt>
<trkpt lat="31.2269200" lon="35.2242700">
<ele>612.029968</ele>
<time>2022-11-23T10:25:13.278Z</time>
</trkpt>
<trkpt lat="31.2269400" lon="35.2243500">
<ele>613.179993</ele>
<time>2022-11-23T10:25:13.278Z</time>
</trkpt>
<trkpt lat="31.2271000" lon="35.2247200">
<ele>614.799988</ele>
<time>2022-11-23T10:25:13.278Z</time>
</trkpt>
<trkpt lat="31.2271500" lon="35.2250200">
<ele>615.940002</ele>
<time>2022-11-23T10:25:13.278Z</time>
</trkpt>
<trkpt lat="31.2272500" lon="35.2252500">
<ele>617.809998</ele>
<time>2022-11-23T10:25:13.278Z</time>
</trkpt>
<trkpt lat="31.2272900" lon="35.2253600">
<ele>617.289978</ele>
<time>2022-11-23T10:25:13.278Z</time>
</trkpt>
<trkpt lat="31.2274000" lon="35.2255900">
<ele>616.179993</ele>
<time>2022-11-23T10:25:13.278Z</time>
</trkpt>
<trkpt lat="31.2274600" lon="35.2257600">
<ele>615.719971</ele>
<time>2022-11-23T10:25:13.278Z</time>
</trkpt>
<trkpt lat="31.2275000" lon="35.2260600">
<ele>616.000000</ele>
<time>2022-11-23T10:25:13.278Z</time>
</trkpt>
<trkpt lat="31.2275200" lon="35.2264500">
<ele>613.690002</ele>
<time>2022-11-23T10:25:13.278Z</time>
</trkpt>
<trkpt lat="31.2275600" lon="35.2266700">
<ele>612.530029</ele>
<time>2022-11-23T10:25:13.278Z</time>
</trkpt>
<trkpt lat="31.2275600" lon="35.2268000">
<ele>611.229980</ele>
<time>2022-11-23T10:25:13.278Z</time>
</trkpt>
<trkpt lat="31.2275900" lon="35.2270700">
<ele>608.909973</ele>
<time>2022-11-23T10:25:13.278Z</time>
</trkpt>
<trkpt lat="31.2276300" lon="35.2273300">
<ele>608.950012</ele>
<time>2022-11-23T10:25:13.278Z</time>
</trkpt>
<trkpt lat="31.2278800" lon="35.2277300">
<ele>613.109985</ele>
<time>2022-11-23T10:25:13.278Z</time>
</trkpt>
<trkpt lat="31.2278300" lon="35.2283000">
<ele>610.119995</ele>
<time>2022-11-23T10:25:13.279Z</time>
</trkpt>
<trkpt lat="31.2276500" lon="35.2287800">
<ele>608.599976</ele>
<time>2022-11-23T10:25:13.279Z</time>
</trkpt>
<trkpt lat="31.2256100" lon="35.2298000">
<ele>600.630005</ele>
<time>2022-11-23T10:25:13.279Z</time>
</trkpt>
<trkpt lat="31.2251600" lon="35.2301200">
<ele>608.909973</ele>
<time>2022-11-23T10:25:13.279Z</time>
</trkpt>
<trkpt lat="31.2250000" lon="35.2302700">
<ele>611.079956</ele>
<time>2022-11-23T10:25:13.279Z</time>
</trkpt>
<trkpt lat="31.2245700" lon="35.2301500">
<ele>611.070007</ele>
<time>2022-11-23T10:25:13.279Z</time>
</trkpt>
<trkpt lat="31.2241600" lon="35.2301700">
<ele>606.940002</ele>
<time>2022-11-23T10:25:13.279Z</time>
</trkpt>
<trkpt lat="31.2237400" lon="35.2300100">
<ele>606.349976</ele>
<time>2022-11-23T10:25:13.279Z</time>
</trkpt>
<trkpt lat="31.2242000" lon="35.2302300">
<ele>605.619995</ele>
<time>2022-11-23T10:25:13.279Z</time>
</trkpt>
<trkpt lat="31.2246200" lon="35.2301800">
<ele>610.900024</ele>
<time>2022-11-23T10:25:13.279Z</time>
</trkpt>
<trkpt lat="31.2249900" lon="35.2302700">
<ele>611.049988</ele>
<time>2022-11-23T10:25:13.279Z</time>
</trkpt>
<trkpt lat="31.2251800" lon="35.2310500">
<ele>596.840027</ele>
<time>2022-11-23T10:25:13.279Z</time>
</trkpt>
<trkpt lat="31.2252700" lon="35.2316400">
<ele>599.890015</ele>
<time>2022-11-23T10:25:13.279Z</time>
</trkpt>
<trkpt lat="31.2252700" lon="35.2313000">
<ele>597.140015</ele>
<time>2022-11-23T10:25:13.279Z</time>
</trkpt>
<trkpt lat="31.2251100" lon="35.2308600">
<ele>598.570007</ele>
<time>2022-11-23T10:25:13.279Z</time>
</trkpt>
<trkpt lat="31.2250200" lon="35.2305400">
<ele>604.820007</ele>
<time>2022-11-23T10:25:13.279Z</time>
</trkpt>
<trkpt lat="31.2250200" lon="35.2302900">
<ele>610.030029</ele>
<time>2022-11-23T10:25:13.279Z</time>
</trkpt>
<trkpt lat="31.2247300" lon="35.2302100">
<ele>611.469971</ele>
<time>2022-11-23T10:25:13.279Z</time>
</trkpt>
<trkpt lat="31.2250300" lon="35.2302600">
<ele>610.150024</ele>
<time>2022-11-23T10:25:13.279Z</time>
</trkpt>
<trkpt lat="31.2252000" lon="35.2300700">
<ele>609.279968</ele>
<time>2022-11-23T10:25:13.279Z</time>
</trkpt>
<trkpt lat="31.2263000" lon="35.2294300">
<ele>592.010010</ele>
<time>2022-11-23T10:25:13.279Z</time>
</trkpt>
<trkpt lat="31.2276700" lon="35.2287900">
<ele>608.570007</ele>
<time>2022-11-23T10:25:13.279Z</time>
</trkpt>
<trkpt lat="31.2278400" lon="35.2282600">
<ele>610.260010</ele>
<time>2022-11-23T10:25:13.279Z</time>
</trkpt>
<trkpt lat="31.2279000" lon="35.2277600">
<ele>613.330017</ele>
<time>2022-11-23T10:25:13.279Z</time>
</trkpt>
<trkpt lat="31.2284300" lon="35.2280600">
<ele>602.510010</ele>
<time>2022-11-23T10:25:13.279Z</time>
</trkpt>
<trkpt lat="31.2284700" lon="35.2281100">
<ele>600.869995</ele>
<time>2022-11-23T10:25:13.279Z</time>
</trkpt>
<trkpt lat="31.2285400" lon="35.2281900">
<ele>597.979980</ele>
<time>2022-11-23T10:25:13.279Z</time>
</trkpt>
<trkpt lat="31.2286400" lon="35.2282700">
<ele>594.299988</ele>
<time>2022-11-23T10:25:13.279Z</time>
</trkpt>
<trkpt lat="31.2288200" lon="35.2283300">
<ele>590.250000</ele>
<time>2022-11-23T10:25:13.279Z</time>
</trkpt>
<trkpt lat="31.2289700" lon="35.2283300">
<ele>586.960022</ele>
<time>2022-11-23T10:25:13.280Z</time>
</trkpt>
<trkpt lat="31.2291500" lon="35.2283000">
<ele>582.529968</ele>
<time>2022-11-23T10:25:13.280Z</time>
</trkpt>
<trkpt lat="31.2294100" lon="35.2283000">
<ele>579.630005</ele>
<time>2022-11-23T10:25:13.280Z</time>
</trkpt>
<trkpt lat="31.2295700" lon="35.2283400">
<ele>581.719971</ele>
<time>2022-11-23T10:25:13.280Z</time>
</trkpt>
<trkpt lat="31.2297200" lon="35.2284000">
<ele>582.539978</ele>
<time>2022-11-23T10:25:13.280Z</time>
</trkpt>
<trkpt lat="31.2298700" lon="35.2284800">
<ele>581.140015</ele>
<time>2022-11-23T10:25:13.280Z</time>
</trkpt>
<trkpt lat="31.2299900" lon="35.2285900">
<ele>580.160034</ele>
<time>2022-11-23T10:25:13.280Z</time>
</trkpt>
<trkpt lat="31.2301100" lon="35.2287100">
<ele>576.409973</ele>
<time>2022-11-23T10:25:13.280Z</time>
</trkpt>
<trkpt lat="31.2304500" lon="35.2290400">
<ele>568.429993</ele>
<time>2022-11-23T10:25:13.280Z</time>
</trkpt>
<trkpt lat="31.2305000" lon="35.2291000">
<ele>567.619995</ele>
<time>2022-11-23T10:25:13.280Z</time>
</trkpt>
<trkpt lat="31.2306800" lon="35.2294800">
<ele>561.690002</ele>
<time>2022-11-23T10:25:13.280Z</time>
</trkpt>
<trkpt lat="31.2307900" lon="35.2296400">
<ele>562.200012</ele>
<time>2022-11-23T10:25:13.280Z</time>
</trkpt>
<trkpt lat="31.2308400" lon="35.2297100">
<ele>562.200012</ele>
<time>2022-11-23T10:25:13.280Z</time>
</trkpt>
<trkpt lat="31.2309100" lon="35.2297600">
<ele>561.670044</ele>
<time>2022-11-23T10:25:13.280Z</time>
</trkpt>
<trkpt lat="31.2310700" lon="35.2298400">
<ele>561.450012</ele>
<time>2022-11-23T10:25:13.280Z</time>
</trkpt>
<trkpt lat="31.2312000" lon="35.2299400">
<ele>561.469971</ele>
<time>2022-11-23T10:25:13.280Z</time>
</trkpt>
<trkpt lat="31.2312600" lon="35.2300200">
<ele>561.400024</ele>
<time>2022-11-23T10:25:13.280Z</time>
</trkpt>
<trkpt lat="31.2313600" lon="35.2301800">
<ele>561.260010</ele>
<time>2022-11-23T10:25:13.280Z</time>
</trkpt>
<trkpt lat="31.2316400" lon="35.2309800">
<ele>556.080017</ele>
<time>2022-11-23T10:25:13.280Z</time>
</trkpt>
<trkpt lat="31.2316700" lon="35.2310800">
<ele>557.809998</ele>
<time>2022-11-23T10:25:13.280Z</time>
</trkpt>
<trkpt lat="31.2317800" lon="35.2318500">
<ele>556.369995</ele>
<time>2022-11-23T10:25:13.280Z</time>
</trkpt>
<trkpt lat="31.2320900" lon="35.2329500">
<ele>541.690002</ele>
<time>2022-11-23T10:25:13.280Z</time>
</trkpt>
<trkpt lat="31.2321000" lon="35.2331000">
<ele>541.880005</ele>
<time>2022-11-23T10:25:13.280Z</time>
</trkpt>
<trkpt lat="31.2320800" lon="35.2335500">
<ele>545.429993</ele>
<time>2022-11-23T10:25:13.280Z</time>
</trkpt>
<trkpt lat="31.2320600" lon="35.2336800">
<ele>545.940002</ele>
<time>2022-11-23T10:25:13.280Z</time>
</trkpt>
<trkpt lat="31.2318600" lon="35.2343400">
<ele>543.369995</ele>
<time>2022-11-23T10:25:13.280Z</time>
</trkpt>
<trkpt lat="31.2318000" lon="35.2346000">
<ele>542.960022</ele>
<time>2022-11-23T10:25:13.281Z</time>
</trkpt>
<trkpt lat="31.2317200" lon="35.2352800">
<ele>539.929993</ele>
<time>2022-11-23T10:25:13.281Z</time>
</trkpt>
<trkpt lat="31.2317300" lon="35.2354700">
<ele>537.690002</ele>
<time>2022-11-23T10:25:13.281Z</time>
</trkpt>
<trkpt lat="31.2317800" lon="35.2357100">
<ele>536.520020</ele>
<time>2022-11-23T10:25:13.281Z</time>
</trkpt>
<trkpt lat="31.2317800" lon="35.2357100">
<ele>536.520020</ele>
<time>2022-11-23T10:25:13.281Z</time>
</trkpt>
<trkpt lat="31.2317900" lon="35.2357100">
<ele>536.750000</ele>
<time>2022-11-23T10:25:13.281Z</time>
</trkpt>
<trkpt lat="31.2319100" lon="35.2360700">
<ele>537.299988</ele>
<time>2022-11-23T10:25:13.281Z</time>
</trkpt>
<trkpt lat="31.2319300" lon="35.2362800">
<ele>536.390015</ele>
<time>2022-11-23T10:25:13.281Z</time>
</trkpt>
<trkpt lat="31.2319200" lon="35.2364100">
<ele>534.849976</ele>
<time>2022-11-23T10:25:13.282Z</time>
</trkpt>
<trkpt lat="31.2319200" lon="35.2364100">
<ele>534.849976</ele>
<time>2022-11-23T10:25:13.282Z</time>
</trkpt>
<trkpt lat="31.2319200" lon="35.2365100">
<ele>532.760010</ele>
<time>2022-11-23T10:25:13.282Z</time>
</trkpt>
<trkpt lat="31.2318900" lon="35.2366600">
<ele>528.960022</ele>
<time>2022-11-23T10:25:13.282Z</time>
</trkpt>
<trkpt lat="31.2318600" lon="35.2367100">
<ele>527.799988</ele>
<time>2022-11-23T10:25:13.282Z</time>
</trkpt>
<trkpt lat="31.2318600" lon="35.2367100">
<ele>527.799988</ele>
<time>2022-11-23T10:25:13.282Z</time>
</trkpt>
<trkpt lat="31.2318600" lon="35.2367100">
<ele>527.799988</ele>
<time>2022-11-23T10:25:13.282Z</time>
</trkpt>
<trkpt lat="31.2318400" lon="35.2367300">
<ele>527.229980</ele>
<time>2022-11-23T10:25:13.282Z</time>
</trkpt>
<trkpt lat="31.2318400" lon="35.2367500">
<ele>527.070007</ele>
<time>2022-11-23T10:25:13.282Z</time>
</trkpt>
<trkpt lat="31.2317700" lon="35.2368500">
<ele>525.080017</ele>
<time>2022-11-23T10:25:13.282Z</time>
</trkpt>
<trkpt lat="31.2316400" lon="35.2369700">
<ele>522.460022</ele>
<time>2022-11-23T10:25:13.282Z</time>
</trkpt>
<trkpt lat="31.2313400" lon="35.2372700">
<ele>520.859985</ele>
<time>2022-11-23T10:25:13.282Z</time>
</trkpt>
<trkpt lat="31.2308800" lon="35.2379000">
<ele>513.470032</ele>
<time>2022-11-23T10:25:13.282Z</time>
</trkpt>
<trkpt lat="31.2308000" lon="35.2381000">
<ele>512.859985</ele>
<time>2022-11-23T10:25:13.282Z</time>
</trkpt>
<trkpt lat="31.2307400" lon="35.2385000">
<ele>510.529999</ele>
<time>2022-11-23T10:25:13.282Z</time>
</trkpt>
<trkpt lat="31.2307500" lon="35.2385700">
<ele>509.839996</ele>
<time>2022-11-23T10:25:13.282Z</time>
</trkpt>
<trkpt lat="31.2308100" lon="35.2387200">
<ele>508.330017</ele>
<time>2022-11-23T10:25:13.282Z</time>
</trkpt>
<trkpt lat="31.2308600" lon="35.2388100">
<ele>507.420013</ele>
<time>2022-11-23T10:25:13.282Z</time>
</trkpt>
<trkpt lat="31.2310100" lon="35.2390400">
<ele>505.930023</ele>
<time>2022-11-23T10:25:13.282Z</time>
</trkpt>
<trkpt lat="31.2311200" lon="35.2391900">
<ele>504.630005</ele>
<time>2022-11-23T10:25:13.282Z</time>
</trkpt>
<trkpt lat="31.2313600" lon="35.2394700">
<ele>500.710022</ele>
<time>2022-11-23T10:25:13.282Z</time>
</trkpt>
<trkpt lat="31.2314200" lon="35.2395800">
<ele>499.479980</ele>
<time>2022-11-23T10:25:13.282Z</time>
</trkpt>
<trkpt lat="31.2314600" lon="35.2398700">
<ele>494.959991</ele>
<time>2022-11-23T10:25:13.283Z</time>
</trkpt>
<trkpt lat="31.2316200" lon="35.2401700">
<ele>492.130005</ele>
<time>2022-11-23T10:25:13.283Z</time>
</trkpt>
<trkpt lat="31.2318800" lon="35.2405800">
<ele>487.539978</ele>
<time>2022-11-23T10:25:13.283Z</time>
</trkpt>
<trkpt lat="31.2319800" lon="35.2407300">
<ele>484.010010</ele>
<time>2022-11-23T10:25:13.283Z</time>
</trkpt>
<trkpt lat="31.2321000" lon="35.2408300">
<ele>479.149994</ele>
<time>2022-11-23T10:25:13.283Z</time>
</trkpt>
<trkpt lat="31.2325200" lon="35.2409900">
<ele>472.480011</ele>
<time>2022-11-23T10:25:13.283Z</time>
</trkpt>
<trkpt lat="31.2326500" lon="35.2410700">
<ele>471.929993</ele>
<time>2022-11-23T10:25:13.283Z</time>
</trkpt>
<trkpt lat="31.2326800" lon="35.2411200">
<ele>471.619995</ele>
<time>2022-11-23T10:25:13.283Z</time>
</trkpt>
<trkpt lat="31.2327000" lon="35.2412600">
<ele>470.100006</ele>
<time>2022-11-23T10:25:13.283Z</time>
</trkpt>
<trkpt lat="31.2326600" lon="35.2413200">
<ele>469.910004</ele>
<time>2022-11-23T10:25:13.283Z</time>
</trkpt>
<trkpt lat="31.2325700" lon="35.2414500">
<ele>469.420013</ele>
<time>2022-11-23T10:25:13.283Z</time>
</trkpt>
<trkpt lat="31.2325100" lon="35.2415000">
<ele>469.649994</ele>
<time>2022-11-23T10:25:13.283Z</time>
</trkpt>
<trkpt lat="31.2322600" lon="35.2418800">
<ele>463.559998</ele>
<time>2022-11-23T10:25:13.283Z</time>
</trkpt>
<trkpt lat="31.2321400" lon="35.2420500">
<ele>461.820007</ele>
<time>2022-11-23T10:25:13.283Z</time>
</trkpt>
<trkpt lat="31.2320900" lon="35.2421000">
<ele>461.100006</ele>
<time>2022-11-23T10:25:13.283Z</time>
</trkpt>
<trkpt lat="31.2320500" lon="35.2421600">
<ele>460.519989</ele>
<time>2022-11-23T10:25:13.283Z</time>
</trkpt>
<trkpt lat="31.2319800" lon="35.2422000">
<ele>459.510010</ele>
<time>2022-11-23T10:25:13.283Z</time>
</trkpt>
<trkpt lat="31.2318800" lon="35.2422800">
<ele>457.260010</ele>
<time>2022-11-23T10:25:13.283Z</time>
</trkpt>
<trkpt lat="31.2317500" lon="35.2423400">
<ele>453.490021</ele>
<time>2022-11-23T10:25:13.283Z</time>
</trkpt>
<trkpt lat="31.2315500" lon="35.2423900">
<ele>448.740021</ele>
<time>2022-11-23T10:25:13.283Z</time>
</trkpt>
<trkpt lat="31.2310400" lon="35.2424500">
<ele>438.129974</ele>
<time>2022-11-23T10:25:13.283Z</time>
</trkpt>
<trkpt lat="31.2309600" lon="35.2426000">
<ele>436.119995</ele>
<time>2022-11-23T10:25:13.283Z</time>
</trkpt>
<trkpt lat="31.2309500" lon="35.2427600">
<ele>435.709991</ele>
<time>2022-11-23T10:25:13.284Z</time>
</trkpt>
<trkpt lat="31.2310000" lon="35.2430400">
<ele>434.700012</ele>
<time>2022-11-23T10:25:13.284Z</time>
</trkpt>
<trkpt lat="31.2310100" lon="35.2431300">
<ele>434.380005</ele>
<time>2022-11-23T10:25:13.284Z</time>
</trkpt>
<trkpt lat="31.2310100" lon="35.2433000">
<ele>433.379974</ele>
<time>2022-11-23T10:25:13.284Z</time>
</trkpt>
<trkpt lat="31.2310200" lon="35.2435200">
<ele>431.119995</ele>
<time>2022-11-23T10:25:13.284Z</time>
</trkpt>
<trkpt lat="31.2310100" lon="35.2435300">
<ele>430.800018</ele>
<time>2022-11-23T10:25:13.284Z</time>
</trkpt>
<trkpt lat="31.2310100" lon="35.2438400">
<ele>425.169983</ele>
<time>2022-11-23T10:25:13.284Z</time>
</trkpt>
<trkpt lat="31.2310200" lon="35.2441400">
<ele>421.349976</ele>
<time>2022-11-23T10:25:13.284Z</time>
</trkpt>
<trkpt lat="31.2311500" lon="35.2445000">
<ele>417.000000</ele>
<time>2022-11-23T10:25:13.284Z</time>
</trkpt>
<trkpt lat="31.2311800" lon="35.2445600">
<ele>415.650024</ele>
<time>2022-11-23T10:25:13.285Z</time>
</trkpt>
<trkpt lat="31.2312000" lon="35.2446200">
<ele>414.150024</ele>
<time>2022-11-23T10:25:13.285Z</time>
</trkpt>
<trkpt lat="31.2312900" lon="35.2447300">
<ele>410.259979</ele>
<time>2022-11-23T10:25:13.285Z</time>
</trkpt>
<trkpt lat="31.2316000" lon="35.2448500">
<ele>399.279999</ele>
<time>2022-11-23T10:25:13.285Z</time>
</trkpt>
<trkpt lat="31.2317700" lon="35.2448800">
<ele>397.020020</ele>
<time>2022-11-23T10:25:13.285Z</time>
</trkpt>
<trkpt lat="31.2318600" lon="35.2448800">
<ele>397.160004</ele>
<time>2022-11-23T10:25:13.285Z</time>
</trkpt>
<trkpt lat="31.2319400" lon="35.2448300">
<ele>397.830017</ele>
<time>2022-11-23T10:25:13.285Z</time>
</trkpt>
<trkpt lat="31.2320200" lon="35.2447600">
<ele>398.630005</ele>
<time>2022-11-23T10:25:13.285Z</time>
</trkpt>
<trkpt lat="31.2320600" lon="35.2447400">
<ele>398.829987</ele>
<time>2022-11-23T10:25:13.285Z</time>
</trkpt>
<trkpt lat="31.2321500" lon="35.2447500">
<ele>398.769989</ele>
<time>2022-11-23T10:25:13.285Z</time>
</trkpt>
<trkpt lat="31.2322600" lon="35.2448900">
<ele>397.519989</ele>
<time>2022-11-23T10:25:13.285Z</time>
</trkpt>
<trkpt lat="31.2324300" lon="35.2452200">
<ele>392.140015</ele>
<time>2022-11-23T10:25:13.285Z</time>
</trkpt>
<trkpt lat="31.2324700" lon="35.2452900">
<ele>390.750000</ele>
<time>2022-11-23T10:25:13.285Z</time>
</trkpt>
<trkpt lat="31.2325500" lon="35.2454200">
<ele>387.000000</ele>
<time>2022-11-23T10:25:13.286Z</time>
</trkpt>
<trkpt lat="31.2326500" lon="35.2455000">
<ele>385.029999</ele>
<time>2022-11-23T10:25:13.286Z</time>
</trkpt>
<trkpt lat="31.2327300" lon="35.2455500">
<ele>383.970001</ele>
<time>2022-11-23T10:25:13.286Z</time>
</trkpt>
<trkpt lat="31.2328000" lon="35.2455600">
<ele>383.779999</ele>
<time>2022-11-23T10:25:13.286Z</time>
</trkpt>
<trkpt lat="31.2328200" lon="35.2456000">
<ele>383.100006</ele>
<time>2022-11-23T10:25:13.286Z</time>
</trkpt>
<trkpt lat="31.2328400" lon="35.2458500">
<ele>379.779968</ele>
<time>2022-11-23T10:25:13.286Z</time>
</trkpt>
<trkpt lat="31.2326600" lon="35.2461400">
<ele>376.140015</ele>
<time>2022-11-23T10:25:13.286Z</time>
</trkpt>
<trkpt lat="31.2325600" lon="35.2462400">
<ele>375.700012</ele>
<time>2022-11-23T10:25:13.286Z</time>
</trkpt>
<trkpt lat="31.2324900" lon="35.2462700">
<ele>375.110016</ele>
<time>2022-11-23T10:25:13.286Z</time>
</trkpt>
<trkpt lat="31.2317800" lon="35.2463500">
<ele>352.500000</ele>
<time>2022-11-23T10:25:13.286Z</time>
</trkpt>
<trkpt lat="31.2311000" lon="35.2463100">
<ele>349.450012</ele>
<time>2022-11-23T10:25:13.286Z</time>
</trkpt>
<trkpt lat="31.2305400" lon="35.2464400">
<ele>342.759979</ele>
<time>2022-11-23T10:25:13.286Z</time>
</trkpt>
<trkpt lat="31.2296600" lon="35.2465400">
<ele>352.139984</ele>
<time>2022-11-23T10:25:13.286Z</time>
</trkpt>
<trkpt lat="31.2295400" lon="35.2465800">
<ele>352.279999</ele>
<time>2022-11-23T10:25:13.286Z</time>
</trkpt>
<trkpt lat="31.2293500" lon="35.2466700">
<ele>351.669983</ele>
<time>2022-11-23T10:25:13.286Z</time>
</trkpt>
<trkpt lat="31.2292000" lon="35.2467900">
<ele>352.290009</ele>
<time>2022-11-23T10:25:13.286Z</time>
</trkpt>
<trkpt lat="31.2290800" lon="35.2468900">
<ele>351.910004</ele>
<time>2022-11-23T10:25:13.286Z</time>
</trkpt>
<trkpt lat="31.2290600" lon="35.2469200">
<ele>351.850006</ele>
<time>2022-11-23T10:25:13.286Z</time>
</trkpt>
<trkpt lat="31.2290100" lon="35.2469900">
<ele>351.440033</ele>
<time>2022-11-23T10:25:13.286Z</time>
</trkpt>
<trkpt lat="31.2289800" lon="35.2470700">
<ele>351.399994</ele>
<time>2022-11-23T10:25:13.286Z</time>
</trkpt>
<trkpt lat="31.2287000" lon="35.2472800">
<ele>344.670013</ele>
<time>2022-11-23T10:25:13.286Z</time>
</trkpt>
<trkpt lat="31.2284800" lon="35.2475700">
<ele>341.809998</ele>
<time>2022-11-23T10:25:13.286Z</time>
</trkpt>
<trkpt lat="31.2284400" lon="35.2476700">
<ele>342.000000</ele>
<time>2022-11-23T10:25:13.286Z</time>
</trkpt>
<trkpt lat="31.2286000" lon="35.2481900">
<ele>343.959991</ele>
<time>2022-11-23T10:25:13.286Z</time>
</trkpt>
<trkpt lat="31.2286400" lon="35.2482700">
<ele>344.609985</ele>
<time>2022-11-23T10:25:13.286Z</time>
</trkpt>
<trkpt lat="31.2287900" lon="35.2484600">
<ele>339.690002</ele>
<time>2022-11-23T10:25:13.286Z</time>
</trkpt>
<trkpt lat="31.2289600" lon="35.2486100">
<ele>334.000000</ele>
<time>2022-11-23T10:25:13.286Z</time>
</trkpt>
<trkpt lat="31.2290400" lon="35.2487200">
<ele>330.859985</ele>
<time>2022-11-23T10:25:13.286Z</time>
</trkpt>
<trkpt lat="31.2290900" lon="35.2488700">
<ele>327.440002</ele>
<time>2022-11-23T10:25:13.287Z</time>
</trkpt>
<trkpt lat="31.2291200" lon="35.2491900">
<ele>321.760010</ele>
<time>2022-11-23T10:25:13.287Z</time>
</trkpt>
<trkpt lat="31.2291100" lon="35.2493500">
<ele>321.210022</ele>
<time>2022-11-23T10:25:13.287Z</time>
</trkpt>
<trkpt lat="31.2289100" lon="35.2496700">
<ele>317.960022</ele>
<time>2022-11-23T10:25:13.287Z</time>
</trkpt>
<trkpt lat="31.2288500" lon="35.2498400">
<ele>318.339996</ele>
<time>2022-11-23T10:25:13.287Z</time>
</trkpt>
<trkpt lat="31.2287600" lon="35.2499600">
<ele>319.330017</ele>
<time>2022-11-23T10:25:13.287Z</time>
</trkpt>
<trkpt lat="31.2287300" lon="35.2500100">
<ele>319.739990</ele>
<time>2022-11-23T10:25:13.287Z</time>
</trkpt>
<trkpt lat="31.2287100" lon="35.2501400">
<ele>320.260010</ele>
<time>2022-11-23T10:25:13.287Z</time>
</trkpt>
<trkpt lat="31.2287000" lon="35.2504600">
<ele>323.549988</ele>
<time>2022-11-23T10:25:13.287Z</time>
</trkpt>
<trkpt lat="31.2287000" lon="35.2505700">
<ele>325.159973</ele>
<time>2022-11-23T10:25:13.287Z</time>
</trkpt>
<trkpt lat="31.2286800" lon="35.2506200">
<ele>325.840027</ele>
<time>2022-11-23T10:25:13.288Z</time>
</trkpt>
<trkpt lat="31.2287000" lon="35.2508200">
<ele>327.290009</ele>
<time>2022-11-23T10:25:13.288Z</time>
</trkpt>
<trkpt lat="31.2287300" lon="35.2510700">
<ele>325.159973</ele>
<time>2022-11-23T10:25:13.288Z</time>
</trkpt>
<trkpt lat="31.2287700" lon="35.2512000">
<ele>323.500000</ele>
<time>2022-11-23T10:25:13.288Z</time>
</trkpt>
<trkpt lat="31.2288200" lon="35.2515600">
<ele>320.929993</ele>
<time>2022-11-23T10:25:13.288Z</time>
</trkpt>
<trkpt lat="31.2288000" lon="35.2517600">
<ele>320.290009</ele>
<time>2022-11-23T10:25:13.288Z</time>
</trkpt>
<trkpt lat="31.2287100" lon="35.2522100">
<ele>317.339996</ele>
<time>2022-11-23T10:25:13.288Z</time>
</trkpt>
<trkpt lat="31.2287000" lon="35.2525100">
<ele>314.360016</ele>
<time>2022-11-23T10:25:13.288Z</time>
</trkpt>
<trkpt lat="31.2286100" lon="35.2532900">
<ele>311.329987</ele>
<time>2022-11-23T10:25:13.288Z</time>
</trkpt>
<trkpt lat="31.2286700" lon="35.2533800">
<ele>310.829987</ele>
<time>2022-11-23T10:25:13.288Z</time>
</trkpt>
<trkpt lat="31.2287400" lon="35.2534500">
<ele>310.579987</ele>
<time>2022-11-23T10:25:13.288Z</time>
</trkpt>
<trkpt lat="31.2288000" lon="35.2534800">
<ele>310.470001</ele>
<time>2022-11-23T10:25:13.288Z</time>
</trkpt>
<trkpt lat="31.2288300" lon="35.2535000">
<ele>310.399994</ele>
<time>2022-11-23T10:25:13.289Z</time>
</trkpt>
<trkpt lat="31.2290000" lon="35.2535500">
<ele>311.109985</ele>
<time>2022-11-23T10:25:13.289Z</time>
</trkpt>
<trkpt lat="31.2294300" lon="35.2537300">
<ele>313.349976</ele>
<time>2022-11-23T10:25:13.289Z</time>
</trkpt>
<trkpt lat="31.2294500" lon="35.2537400">
<ele>313.529999</ele>
<time>2022-11-23T10:25:13.289Z</time>
</trkpt>
<trkpt lat="31.2296000" lon="35.2539300">
<ele>315.200012</ele>
<time>2022-11-23T10:25:13.289Z</time>
</trkpt>
<trkpt lat="31.2296600" lon="35.2540300">
<ele>315.950012</ele>
<time>2022-11-23T10:25:13.289Z</time>
</trkpt>
<trkpt lat="31.2296800" lon="35.2540500">
<ele>316.190002</ele>
<time>2022-11-23T10:25:13.289Z</time>
</trkpt>
<trkpt lat="31.2296900" lon="35.2540700">
<ele>316.339996</ele>
<time>2022-11-23T10:25:13.289Z</time>
</trkpt>
<trkpt lat="31.2298200" lon="35.2542100">
<ele>316.690002</ele>
<time>2022-11-23T10:25:13.289Z</time>
</trkpt>
<trkpt lat="31.2298600" lon="35.2542500">
<ele>316.399994</ele>
<time>2022-11-23T10:25:13.289Z</time>
</trkpt>
<trkpt lat="31.2299000" lon="35.2543100">
<ele>315.970001</ele>
<time>2022-11-23T10:25:13.289Z</time>
</trkpt>
<trkpt lat="31.2300400" lon="35.2544800">
<ele>315.130005</ele>
<time>2022-11-23T10:25:13.289Z</time>
</trkpt>
<trkpt lat="31.2301300" lon="35.2546300">
<ele>315.669983</ele>
<time>2022-11-23T10:25:13.289Z</time>
</trkpt>
<trkpt lat="31.2301500" lon="35.2546600">
<ele>315.780029</ele>
<time>2022-11-23T10:25:13.289Z</time>
</trkpt>
<trkpt lat="31.2301900" lon="35.2547100">
<ele>315.959991</ele>
<time>2022-11-23T10:25:13.289Z</time>
</trkpt>
<trkpt lat="31.2302300" lon="35.2547800">
<ele>315.789978</ele>
<time>2022-11-23T10:25:13.289Z</time>
</trkpt>
<trkpt lat="31.2303700" lon="35.2549300">
<ele>314.920013</ele>
<time>2022-11-23T10:25:13.289Z</time>
</trkpt>
<trkpt lat="31.2304000" lon="35.2549600">
<ele>314.700012</ele>
<time>2022-11-23T10:25:13.289Z</time>
</trkpt>
<trkpt lat="31.2304300" lon="35.2549900">
<ele>314.490021</ele>
<time>2022-11-23T10:25:13.289Z</time>
</trkpt>
<trkpt lat="31.2304900" lon="35.2550500">
<ele>314.100006</ele>
<time>2022-11-23T10:25:13.289Z</time>
</trkpt>
<trkpt lat="31.2305300" lon="35.2550700">
<ele>313.859985</ele>
<time>2022-11-23T10:25:13.289Z</time>
</trkpt>
<trkpt lat="31.2306400" lon="35.2551600">
<ele>313.420013</ele>
<time>2022-11-23T10:25:13.289Z</time>
</trkpt>
<trkpt lat="31.2307700" lon="35.2553100">
<ele>312.940002</ele>
<time>2022-11-23T10:25:13.289Z</time>
</trkpt>
<trkpt lat="31.2308500" lon="35.2553900">
<ele>312.600006</ele>
<time>2022-11-23T10:25:13.289Z</time>
</trkpt>
<trkpt lat="31.2310700" lon="35.2556200">
<ele>311.600006</ele>
<time>2022-11-23T10:25:13.289Z</time>
</trkpt>
<trkpt lat="31.2311500" lon="35.2556700">
<ele>311.429993</ele>
<time>2022-11-23T10:25:13.289Z</time>
</trkpt>
<trkpt lat="31.2312600" lon="35.2557800">
<ele>311.789978</ele>
<time>2022-11-23T10:25:13.289Z</time>
</trkpt>
<trkpt lat="31.2313800" lon="35.2558800">
<ele>312.589996</ele>
<time>2022-11-23T10:25:13.289Z</time>
</trkpt>
<trkpt lat="31.2315600" lon="35.2560100">
<ele>310.660004</ele>
<time>2022-11-23T10:25:13.289Z</time>
</trkpt>
<trkpt lat="31.2316100" lon="35.2560700">
<ele>310.260010</ele>
<time>2022-11-23T10:25:13.289Z</time>
</trkpt>
<trkpt lat="31.2316900" lon="35.2561400">
<ele>309.630005</ele>
<time>2022-11-23T10:25:13.289Z</time>
</trkpt>
<trkpt lat="31.2317800" lon="35.2562300">
<ele>308.830017</ele>
<time>2022-11-23T10:25:13.289Z</time>
</trkpt>
<trkpt lat="31.2320100" lon="35.2564300">
<ele>308.929993</ele>
<time>2022-11-23T10:25:13.289Z</time>
</trkpt>
<trkpt lat="31.2321600" lon="35.2565800">
<ele>307.929993</ele>
<time>2022-11-23T10:25:13.289Z</time>
</trkpt>
<trkpt lat="31.2322100" lon="35.2566300">
<ele>307.339996</ele>
<time>2022-11-23T10:25:13.290Z</time>
</trkpt>
<trkpt lat="31.2323000" lon="35.2567200">
<ele>305.779999</ele>
<time>2022-11-23T10:25:13.290Z</time>
</trkpt>
<trkpt lat="31.2323300" lon="35.2567500">
<ele>305.239990</ele>
<time>2022-11-23T10:25:13.290Z</time>
</trkpt>
<trkpt lat="31.2325100" lon="35.2569000">
<ele>302.309998</ele>
<time>2022-11-23T10:25:13.290Z</time>
</trkpt>
<trkpt lat="31.2325600" lon="35.2569700">
<ele>301.910004</ele>
<time>2022-11-23T10:25:13.290Z</time>
</trkpt>
<trkpt lat="31.2327500" lon="35.2571500">
<ele>301.259979</ele>
<time>2022-11-23T10:25:13.290Z</time>
</trkpt>
<trkpt lat="31.2328500" lon="35.2572500">
<ele>301.029999</ele>
<time>2022-11-23T10:25:13.290Z</time>
</trkpt>
<trkpt lat="31.2330700" lon="35.2574500">
<ele>301.899994</ele>
<time>2022-11-23T10:25:13.290Z</time>
</trkpt>
<trkpt lat="31.2332100" lon="35.2575900">
<ele>304.299988</ele>
<time>2022-11-23T10:25:13.290Z</time>
</trkpt>
<trkpt lat="31.2333400" lon="35.2576600">
<ele>306.779999</ele>
<time>2022-11-23T10:25:13.290Z</time>
</trkpt>
<trkpt lat="31.2337900" lon="35.2577000">
<ele>299.450012</ele>
<time>2022-11-23T10:25:13.290Z</time>
</trkpt>
<trkpt lat="31.2338900" lon="35.2576900">
<ele>297.040009</ele>
<time>2022-11-23T10:25:13.290Z</time>
</trkpt>
<trkpt lat="31.2339800" lon="35.2576400">
<ele>295.690002</ele>
<time>2022-11-23T10:25:13.290Z</time>
</trkpt>
<trkpt lat="31.2340100" lon="35.2576100">
<ele>295.050018</ele>
<time>2022-11-23T10:25:13.290Z</time>
</trkpt>
<trkpt lat="31.2341600" lon="35.2575300">
<ele>292.500000</ele>
<time>2022-11-23T10:25:13.290Z</time>
</trkpt>
<trkpt lat="31.2342300" lon="35.2574800">
<ele>293.109985</ele>
<time>2022-11-23T10:25:13.290Z</time>
</trkpt>
<trkpt lat="31.2342700" lon="35.2574700">
<ele>293.779999</ele>
<time>2022-11-23T10:25:13.290Z</time>
</trkpt>
<trkpt lat="31.2342900" lon="35.2574800">
<ele>294.160004</ele>
<time>2022-11-23T10:25:13.290Z</time>
</trkpt>
<trkpt lat="31.2342900" lon="35.2574900">
<ele>294.190002</ele>
<time>2022-11-23T10:25:13.290Z</time>
</trkpt>
<trkpt lat="31.2343200" lon="35.2576100">
<ele>295.690002</ele>
<time>2022-11-23T10:25:13.290Z</time>
</trkpt>
<trkpt lat="31.2343200" lon="35.2577900">
<ele>297.160004</ele>
<time>2022-11-23T10:25:13.290Z</time>
</trkpt>
<trkpt lat="31.2343600" lon="35.2579600">
<ele>297.729980</ele>
<time>2022-11-23T10:25:13.290Z</time>
</trkpt>
<trkpt lat="31.2344700" lon="35.2581000">
<ele>296.919983</ele>
<time>2022-11-23T10:25:13.290Z</time>
</trkpt>
<trkpt lat="31.2346200" lon="35.2582300">
<ele>296.610016</ele>
<time>2022-11-23T10:25:13.290Z</time>
</trkpt>
<trkpt lat="31.2346800" lon="35.2582900">
<ele>296.290009</ele>
<time>2022-11-23T10:25:13.290Z</time>
</trkpt>
<trkpt lat="31.2347300" lon="35.2583600">
<ele>295.899994</ele>
<time>2022-11-23T10:25:13.291Z</time>
</trkpt>
<trkpt lat="31.2347600" lon="35.2584500">
<ele>295.580017</ele>
<time>2022-11-23T10:25:13.291Z</time>
</trkpt>
<trkpt lat="31.2348400" lon="35.2589900">
<ele>293.850006</ele>
<time>2022-11-23T10:25:13.291Z</time>
</trkpt>
<trkpt lat="31.2349300" lon="35.2595300">
<ele>293.130005</ele>
<time>2022-11-23T10:25:13.291Z</time>
</trkpt>
<trkpt lat="31.2349900" lon="35.2597900">
<ele>291.739990</ele>
<time>2022-11-23T10:25:13.291Z</time>
</trkpt>
<trkpt lat="31.2350600" lon="35.2602300">
<ele>291.609985</ele>
<time>2022-11-23T10:25:13.291Z</time>
</trkpt>
<trkpt lat="31.2350700" lon="35.2602800">
<ele>291.790009</ele>
<time>2022-11-23T10:25:13.291Z</time>
</trkpt>
<trkpt lat="31.2351700" lon="35.2604800">
<ele>294.420013</ele>
<time>2022-11-23T10:25:13.291Z</time>
</trkpt>
<trkpt lat="31.2355100" lon="35.2609400">
<ele>296.229980</ele>
<time>2022-11-23T10:25:13.291Z</time>
</trkpt>
<trkpt lat="31.2356400" lon="35.2612400">
<ele>292.390015</ele>
<time>2022-11-23T10:25:13.291Z</time>
</trkpt>
<trkpt lat="31.2360100" lon="35.2625800">
<ele>290.919983</ele>
<time>2022-11-23T10:25:13.291Z</time>
</trkpt>
<trkpt lat="31.2362000" lon="35.2631000">
<ele>290.309998</ele>
<time>2022-11-23T10:25:13.291Z</time>
</trkpt>
<trkpt lat="31.2363700" lon="35.2634900">
<ele>290.809998</ele>
<time>2022-11-23T10:25:13.291Z</time>
</trkpt>
<trkpt lat="31.2364600" lon="35.2636900">
<ele>291.380005</ele>
<time>2022-11-23T10:25:13.291Z</time>
</trkpt>
<trkpt lat="31.2366600" lon="35.2640300">
<ele>290.490021</ele>
<time>2022-11-23T10:25:13.291Z</time>
</trkpt>
<trkpt lat="31.2367600" lon="35.2642600">
<ele>287.089996</ele>
<time>2022-11-23T10:25:13.291Z</time>
</trkpt>
<trkpt lat="31.2368500" lon="35.2645600">
<ele>282.029999</ele>
<time>2022-11-23T10:25:13.291Z</time>
</trkpt>
<trkpt lat="31.2369400" lon="35.2652200">
<ele>277.240021</ele>
<time>2022-11-23T10:25:13.291Z</time>
</trkpt>
<trkpt lat="31.2370400" lon="35.2655100">
<ele>274.670013</ele>
<time>2022-11-23T10:25:13.291Z</time>
</trkpt>
<trkpt lat="31.2371200" lon="35.2656700">
<ele>274.889984</ele>
<time>2022-11-23T10:25:13.291Z</time>
</trkpt>
<trkpt lat="31.2372000" lon="35.2657600">
<ele>275.600006</ele>
<time>2022-11-23T10:25:13.291Z</time>
</trkpt>
<trkpt lat="31.2372900" lon="35.2658600">
<ele>275.709991</ele>
<time>2022-11-23T10:25:13.291Z</time>
</trkpt>
<trkpt lat="31.2373400" lon="35.2659400">
<ele>275.519989</ele>
<time>2022-11-23T10:25:13.291Z</time>
</trkpt>
<trkpt lat="31.2374900" lon="35.2663800">
<ele>275.890015</ele>
<time>2022-11-23T10:25:13.291Z</time>
</trkpt>
<trkpt lat="31.2374900" lon="35.2664100">
<ele>275.890015</ele>
<time>2022-11-23T10:25:13.291Z</time>
</trkpt>
<trkpt lat="31.2375200" lon="35.2665300">
<ele>275.639984</ele>
<time>2022-11-23T10:25:13.291Z</time>
</trkpt>
<trkpt lat="31.2375000" lon="35.2670500">
<ele>275.380005</ele>
<time>2022-11-23T10:25:13.291Z</time>
</trkpt>
<trkpt lat="31.2375500" lon="35.2675900">
<ele>278.660004</ele>
<time>2022-11-23T10:25:13.292Z</time>
</trkpt>
<trkpt lat="31.2375600" lon="35.2677000">
<ele>278.709991</ele>
<time>2022-11-23T10:25:13.292Z</time>
</trkpt>
<trkpt lat="31.2375500" lon="35.2678400">
<ele>279.029999</ele>
<time>2022-11-23T10:25:13.292Z</time>
</trkpt>
<trkpt lat="31.2374200" lon="35.2680300">
<ele>279.789978</ele>
<time>2022-11-23T10:25:13.292Z</time>
</trkpt>
<trkpt lat="31.2373400" lon="35.2681500">
<ele>280.040009</ele>
<time>2022-11-23T10:25:13.292Z</time>
</trkpt>
<trkpt lat="31.2371500" lon="35.2684200">
<ele>276.750000</ele>
<time>2022-11-23T10:25:13.292Z</time>
</trkpt>
<trkpt lat="31.2370500" lon="35.2686000">
<ele>273.989990</ele>
<time>2022-11-23T10:25:13.292Z</time>
</trkpt>
<trkpt lat="31.2370300" lon="35.2686400">
<ele>273.070007</ele>
<time>2022-11-23T10:25:13.292Z</time>
</trkpt>
<trkpt lat="31.2369000" lon="35.2689000">
<ele>265.880005</ele>
<time>2022-11-23T10:25:13.292Z</time>
</trkpt>
<trkpt lat="31.2367600" lon="35.2691600">
<ele>267.029999</ele>
<time>2022-11-23T10:25:13.292Z</time>
</trkpt>
<trkpt lat="31.2366600" lon="35.2693300">
<ele>267.320007</ele>
<time>2022-11-23T10:25:13.292Z</time>
</trkpt>
<trkpt lat="31.2366200" lon="35.2693900">
<ele>267.119995</ele>
<time>2022-11-23T10:25:13.292Z</time>
</trkpt>
<trkpt lat="31.2364000" lon="35.2697000">
<ele>266.269989</ele>
<time>2022-11-23T10:25:13.292Z</time>
</trkpt>
<trkpt lat="31.2363400" lon="35.2697800">
<ele>266.279999</ele>
<time>2022-11-23T10:25:13.292Z</time>
</trkpt>
<trkpt lat="31.2361400" lon="35.2700900">
<ele>267.220001</ele>
<time>2022-11-23T10:25:13.292Z</time>
</trkpt>
<trkpt lat="31.2360500" lon="35.2702200">
<ele>267.540009</ele>
<time>2022-11-23T10:25:13.292Z</time>
</trkpt>
<trkpt lat="31.2360100" lon="35.2702500">
<ele>267.320007</ele>
<time>2022-11-23T10:25:13.292Z</time>
</trkpt>
<trkpt lat="31.2358600" lon="35.2703200">
<ele>266.809998</ele>
<time>2022-11-23T10:25:13.292Z</time>
</trkpt>
<trkpt lat="31.2357900" lon="35.2704000">
<ele>267.500000</ele>
<time>2022-11-23T10:25:13.292Z</time>
</trkpt>
<trkpt lat="31.2357300" lon="35.2705000">
<ele>267.790009</ele>
<time>2022-11-23T10:25:13.292Z</time>
</trkpt>
<trkpt lat="31.2356400" lon="35.2705700">
<ele>266.760010</ele>
<time>2022-11-23T10:25:13.292Z</time>
</trkpt>
<trkpt lat="31.2355700" lon="35.2706300">
<ele>266.589996</ele>
<time>2022-11-23T10:25:13.293Z</time>
</trkpt>
<trkpt lat="31.2355500" lon="35.2706500">
<ele>266.750000</ele>
<time>2022-11-23T10:25:13.293Z</time>
</trkpt>
<trkpt lat="31.2353700" lon="35.2708000">
<ele>269.720001</ele>
<time>2022-11-23T10:25:13.293Z</time>
</trkpt>
<trkpt lat="31.2352900" lon="35.2708400">
<ele>270.070007</ele>
<time>2022-11-23T10:25:13.293Z</time>
</trkpt>
<trkpt lat="31.2352100" lon="35.2709800">
<ele>270.739990</ele>
<time>2022-11-23T10:25:13.293Z</time>
</trkpt>
<trkpt lat="31.2349500" lon="35.2714800">
<ele>273.070007</ele>
<time>2022-11-23T10:25:13.293Z</time>
</trkpt>
<trkpt lat="31.2349100" lon="35.2716300">
<ele>272.080017</ele>
<time>2022-11-23T10:25:13.293Z</time>
</trkpt>
<trkpt lat="31.2349100" lon="35.2719000">
<ele>273.470001</ele>
<time>2022-11-23T10:25:13.293Z</time>
</trkpt>
<trkpt lat="31.2349500" lon="35.2720600">
<ele>274.959991</ele>
<time>2022-11-23T10:25:13.293Z</time>
</trkpt>
<trkpt lat="31.2350000" lon="35.2724500">
<ele>274.359985</ele>
<time>2022-11-23T10:25:13.293Z</time>
</trkpt>
<trkpt lat="31.2350700" lon="35.2727400">
<ele>275.109985</ele>
<time>2022-11-23T10:25:13.293Z</time>
</trkpt>
<trkpt lat="31.2350600" lon="35.2727600">
<ele>274.910004</ele>
<time>2022-11-23T10:25:13.293Z</time>
</trkpt>
<trkpt lat="31.2351100" lon="35.2728900">
<ele>276.080017</ele>
<time>2022-11-23T10:25:13.293Z</time>
</trkpt>
<trkpt lat="31.2352000" lon="35.2732200">
<ele>275.750000</ele>
<time>2022-11-23T10:25:13.293Z</time>
</trkpt>
<trkpt lat="31.2352100" lon="35.2734000">
<ele>275.769989</ele>
<time>2022-11-23T10:25:13.293Z</time>
</trkpt>
<trkpt lat="31.2352300" lon="35.2734000">
<ele>275.390015</ele>
<time>2022-11-23T10:25:13.293Z</time>
</trkpt>
<trkpt lat="31.2352000" lon="35.2737200">
<ele>277.970001</ele>
<time>2022-11-23T10:25:13.293Z</time>
</trkpt>
<trkpt lat="31.2351700" lon="35.2739300">
<ele>280.119995</ele>
<time>2022-11-23T10:25:13.293Z</time>
</trkpt>
<trkpt lat="31.2351400" lon="35.2740700">
<ele>281.470001</ele>
<time>2022-11-23T10:25:13.293Z</time>
</trkpt>
<trkpt lat="31.2350200" lon="35.2744400">
<ele>278.529999</ele>
<time>2022-11-23T10:25:13.294Z</time>
</trkpt>
<trkpt lat="31.2349500" lon="35.2745900">
<ele>276.579987</ele>
<time>2022-11-23T10:25:13.294Z</time>
</trkpt>
<trkpt lat="31.2347900" lon="35.2748700">
<ele>272.010010</ele>
<time>2022-11-23T10:25:13.294Z</time>
</trkpt>
<trkpt lat="31.2347400" lon="35.2749300">
<ele>270.899994</ele>
<time>2022-11-23T10:25:13.294Z</time>
</trkpt>
<trkpt lat="31.2346200" lon="35.2750000">
<ele>271.470001</ele>
<time>2022-11-23T10:25:13.294Z</time>
</trkpt>
<trkpt lat="31.2344600" lon="35.2752600">
<ele>270.029999</ele>
<time>2022-11-23T10:25:13.294Z</time>
</trkpt>
<trkpt lat="31.2343500" lon="35.2753700">
<ele>269.360016</ele>
<time>2022-11-23T10:25:13.294Z</time>
</trkpt>
<trkpt lat="31.2342500" lon="35.2754400">
<ele>269.179993</ele>
<time>2022-11-23T10:25:13.294Z</time>
</trkpt>
<trkpt lat="31.2339400" lon="35.2757200">
<ele>264.119995</ele>
<time>2022-11-23T10:25:13.294Z</time>
</trkpt>
<trkpt lat="31.2339000" lon="35.2757600">
<ele>263.329987</ele>
<time>2022-11-23T10:25:13.294Z</time>
</trkpt>
<trkpt lat="31.2338300" lon="35.2758400">
<ele>262.369995</ele>
<time>2022-11-23T10:25:13.294Z</time>
</trkpt>
<trkpt lat="31.2337100" lon="35.2760900">
<ele>260.839996</ele>
<time>2022-11-23T10:25:13.294Z</time>
</trkpt>
<trkpt lat="31.2336800" lon="35.2761300">
<ele>260.730011</ele>
<time>2022-11-23T10:25:13.295Z</time>
</trkpt>
<trkpt lat="31.2336000" lon="35.2761900">
<ele>260.920013</ele>
<time>2022-11-23T10:25:13.295Z</time>
</trkpt>
<trkpt lat="31.2334600" lon="35.2763100">
<ele>262.380005</ele>
<time>2022-11-23T10:25:13.295Z</time>
</trkpt>
<trkpt lat="31.2332900" lon="35.2765000">
<ele>263.279999</ele>
<time>2022-11-23T10:25:13.295Z</time>
</trkpt>
<trkpt lat="31.2332300" lon="35.2765700">
<ele>263.860016</ele>
<time>2022-11-23T10:25:13.295Z</time>
</trkpt>
<trkpt lat="31.2332000" lon="35.2765900">
<ele>264.179993</ele>
<time>2022-11-23T10:25:13.295Z</time>
</trkpt>
<trkpt lat="31.2330300" lon="35.2767500">
<ele>264.910004</ele>
<time>2022-11-23T10:25:13.295Z</time>
</trkpt>
<trkpt lat="31.2330000" lon="35.2767800">
<ele>264.420013</ele>
<time>2022-11-23T10:25:13.295Z</time>
</trkpt>
<trkpt lat="31.2327700" lon="35.2770800">
<ele>261.089996</ele>
<time>2022-11-23T10:25:13.295Z</time>
</trkpt>
<trkpt lat="31.2326200" lon="35.2773100">
<ele>259.190002</ele>
<time>2022-11-23T10:25:13.295Z</time>
</trkpt>
<trkpt lat="31.2325600" lon="35.2774300">
<ele>258.320007</ele>
<time>2022-11-23T10:25:13.295Z</time>
</trkpt>
<trkpt lat="31.2325000" lon="35.2775800">
<ele>257.420013</ele>
<time>2022-11-23T10:25:13.295Z</time>
</trkpt>
<trkpt lat="31.2322900" lon="35.2782700">
<ele>251.119995</ele>
<time>2022-11-23T10:25:13.295Z</time>
</trkpt>
<trkpt lat="31.2321900" lon="35.2784300">
<ele>250.959991</ele>
<time>2022-11-23T10:25:13.295Z</time>
</trkpt>
<trkpt lat="31.2320100" lon="35.2786600">
<ele>251.360001</ele>
<time>2022-11-23T10:25:13.295Z</time>
</trkpt>
<trkpt lat="31.2319500" lon="35.2787300">
<ele>251.050003</ele>
<time>2022-11-23T10:25:13.295Z</time>
</trkpt>
<trkpt lat="31.2318400" lon="35.2788600">
<ele>251.830002</ele>
<time>2022-11-23T10:25:13.295Z</time>
</trkpt>
<trkpt lat="31.2317700" lon="35.2789100">
<ele>252.369995</ele>
<time>2022-11-23T10:25:13.295Z</time>
</trkpt>
<trkpt lat="31.2315400" lon="35.2791600">
<ele>253.030014</ele>
<time>2022-11-23T10:25:13.295Z</time>
</trkpt>
<trkpt lat="31.2313500" lon="35.2793100">
<ele>251.449997</ele>
<time>2022-11-23T10:25:13.295Z</time>
</trkpt>
<trkpt lat="31.2312700" lon="35.2793500">
<ele>251.020004</ele>
<time>2022-11-23T10:25:13.295Z</time>
</trkpt>
<trkpt lat="31.2311400" lon="35.2794000">
<ele>250.480011</ele>
<time>2022-11-23T10:25:13.295Z</time>
</trkpt>
<trkpt lat="31.2310400" lon="35.2793900">
<ele>250.539993</ele>
<time>2022-11-23T10:25:13.295Z</time>
</trkpt>
<trkpt lat="31.2308300" lon="35.2793700">
<ele>250.539993</ele>
<time>2022-11-23T10:25:13.295Z</time>
</trkpt>
<trkpt lat="31.2305800" lon="35.2792800">
<ele>251.720001</ele>
<time>2022-11-23T10:25:13.296Z</time>
</trkpt>
<trkpt lat="31.2304500" lon="35.2793500">
<ele>249.500015</ele>
<time>2022-11-23T10:25:13.296Z</time>
</trkpt>
<trkpt lat="31.2304100" lon="35.2793900">
<ele>248.490005</ele>
<time>2022-11-23T10:25:13.296Z</time>
</trkpt>
<trkpt lat="31.2303700" lon="35.2794900">
<ele>247.050003</ele>
<time>2022-11-23T10:25:13.296Z</time>
</trkpt>
<trkpt lat="31.2302900" lon="35.2797500">
<ele>244.119995</ele>
<time>2022-11-23T10:25:13.296Z</time>
</trkpt>
<trkpt lat="31.2302800" lon="35.2797900">
<ele>243.789993</ele>
<time>2022-11-23T10:25:13.296Z</time>
</trkpt>
<trkpt lat="31.2302700" lon="35.2801500">
<ele>242.320007</ele>
<time>2022-11-23T10:25:13.296Z</time>
</trkpt>
<trkpt lat="31.2302400" lon="35.2802200">
<ele>241.450012</ele>
<time>2022-11-23T10:25:13.296Z</time>
</trkpt>
<trkpt lat="31.2301600" lon="35.2802900">
<ele>239.339996</ele>
<time>2022-11-23T10:25:13.296Z</time>
</trkpt>
<trkpt lat="31.2299700" lon="35.2803700">
<ele>235.439987</ele>
<time>2022-11-23T10:25:13.296Z</time>
</trkpt>
<trkpt lat="31.2296700" lon="35.2805400">
<ele>234.919998</ele>
<time>2022-11-23T10:25:13.296Z</time>
</trkpt>
<trkpt lat="31.2295700" lon="35.2805400">
<ele>234.560013</ele>
<time>2022-11-23T10:25:13.296Z</time>
</trkpt>
<trkpt lat="31.2294100" lon="35.2805000">
<ele>234.770004</ele>
<time>2022-11-23T10:25:13.296Z</time>
</trkpt>
<trkpt lat="31.2293400" lon="35.2805200">
<ele>235.379990</ele>
<time>2022-11-23T10:25:13.296Z</time>
</trkpt>
<trkpt lat="31.2293000" lon="35.2805900">
<ele>235.430008</ele>
<time>2022-11-23T10:25:13.297Z</time>
</trkpt>
<trkpt lat="31.2292800" lon="35.2808500">
<ele>234.519989</ele>
<time>2022-11-23T10:25:13.297Z</time>
</trkpt>
<trkpt lat="31.2292200" lon="35.2810500">
<ele>233.550003</ele>
<time>2022-11-23T10:25:13.297Z</time>
</trkpt>
<trkpt lat="31.2291400" lon="35.2811200">
<ele>233.309998</ele>
<time>2022-11-23T10:25:13.297Z</time>
</trkpt>
<trkpt lat="31.2289900" lon="35.2811600">
<ele>234.860016</ele>
<time>2022-11-23T10:25:13.297Z</time>
</trkpt>
<trkpt lat="31.2289600" lon="35.2811600">
<ele>235.149994</ele>
<time>2022-11-23T10:25:13.297Z</time>
</trkpt>
<trkpt lat="31.2289400" lon="35.2811800">
<ele>235.289993</ele>
<time>2022-11-23T10:25:13.297Z</time>
</trkpt>
<trkpt lat="31.2289100" lon="35.2812000">
<ele>235.500000</ele>
<time>2022-11-23T10:25:13.297Z</time>
</trkpt>
<trkpt lat="31.2288800" lon="35.2812500">
<ele>235.559998</ele>
<time>2022-11-23T10:25:13.297Z</time>
</trkpt>
<trkpt lat="31.2288600" lon="35.2813000">
<ele>235.569992</ele>
<time>2022-11-23T10:25:13.297Z</time>
</trkpt>
<trkpt lat="31.2288700" lon="35.2814800">
<ele>234.569992</ele>
<time>2022-11-23T10:25:13.297Z</time>
</trkpt>
<trkpt lat="31.2289000" lon="35.2816400">
<ele>233.190002</ele>
<time>2022-11-23T10:25:13.297Z</time>
</trkpt>
<trkpt lat="31.2289400" lon="35.2820900">
<ele>230.100006</ele>
<time>2022-11-23T10:25:13.297Z</time>
</trkpt>
<trkpt lat="31.2289900" lon="35.2822000">
<ele>229.050003</ele>
<time>2022-11-23T10:25:13.297Z</time>
</trkpt>
<trkpt lat="31.2290700" lon="35.2822700">
<ele>227.809998</ele>
<time>2022-11-23T10:25:13.297Z</time>
</trkpt>
<trkpt lat="31.2291600" lon="35.2823300">
<ele>226.669998</ele>
<time>2022-11-23T10:25:13.297Z</time>
</trkpt>
<trkpt lat="31.2292400" lon="35.2824000">
<ele>226.020004</ele>
<time>2022-11-23T10:25:13.297Z</time>
</trkpt>
<trkpt lat="31.2293200" lon="35.2825800">
<ele>225.029999</ele>
<time>2022-11-23T10:25:13.297Z</time>
</trkpt>
<trkpt lat="31.2293000" lon="35.2827400">
<ele>225.489990</ele>
<time>2022-11-23T10:25:13.297Z</time>
</trkpt>
<trkpt lat="31.2292400" lon="35.2829400">
<ele>226.520004</ele>
<time>2022-11-23T10:25:13.297Z</time>
</trkpt>
<trkpt lat="31.2292000" lon="35.2833600">
<ele>225.880005</ele>
<time>2022-11-23T10:25:13.297Z</time>
</trkpt>
<trkpt lat="31.2291300" lon="35.2836600">
<ele>224.869995</ele>
<time>2022-11-23T10:25:13.298Z</time>
</trkpt>
<trkpt lat="31.2291400" lon="35.2838600">
<ele>223.229996</ele>
<time>2022-11-23T10:25:13.298Z</time>
</trkpt>
<trkpt lat="31.2289500" lon="35.2850300">
<ele>215.559998</ele>
<time>2022-11-23T10:25:13.298Z</time>
</trkpt>
<trkpt lat="31.2288800" lon="35.2853100">
<ele>215.000000</ele>
<time>2022-11-23T10:25:13.298Z</time>
</trkpt>
<trkpt lat="31.2285600" lon="35.2860700">
<ele>214.039993</ele>
<time>2022-11-23T10:25:13.298Z</time>
</trkpt>
<trkpt lat="31.2285100" lon="35.2862500">
<ele>214.639999</ele>
<time>2022-11-23T10:25:13.298Z</time>
</trkpt>
<trkpt lat="31.2284800" lon="35.2864200">
<ele>214.950012</ele>
<time>2022-11-23T10:25:13.298Z</time>
</trkpt>
<trkpt lat="31.2283700" lon="35.2868200">
<ele>217.229996</ele>
<time>2022-11-23T10:25:13.298Z</time>
</trkpt>
<trkpt lat="31.2282800" lon="35.2872700">
<ele>218.070007</ele>
<time>2022-11-23T10:25:13.298Z</time>
</trkpt>
<trkpt lat="31.2282400" lon="35.2874300">
<ele>217.990005</ele>
<time>2022-11-23T10:25:13.298Z</time>
</trkpt>
<trkpt lat="31.2282200" lon="35.2874800">
<ele>217.789993</ele>
<time>2022-11-23T10:25:13.298Z</time>
</trkpt>
<trkpt lat="31.2282000" lon="35.2875100">
<ele>217.559998</ele>
<time>2022-11-23T10:25:13.298Z</time>
</trkpt>
<trkpt lat="31.2280900" lon="35.2875900">
<ele>216.620010</ele>
<time>2022-11-23T10:25:13.298Z</time>
</trkpt>
<trkpt lat="31.2280500" lon="35.2876300">
<ele>216.519989</ele>
<time>2022-11-23T10:25:13.298Z</time>
</trkpt>
<trkpt lat="31.2279900" lon="35.2877200">
<ele>217.180008</ele>
<time>2022-11-23T10:25:13.298Z</time>
</trkpt>
<trkpt lat="31.2279400" lon="35.2880700">
<ele>217.970001</ele>
<time>2022-11-23T10:25:13.298Z</time>
</trkpt>
<trkpt lat="31.2278700" lon="35.2882500">
<ele>217.360001</ele>
<time>2022-11-23T10:25:13.298Z</time>
</trkpt>
<trkpt lat="31.2277400" lon="35.2886300">
<ele>214.099991</ele>
<time>2022-11-23T10:25:13.298Z</time>
</trkpt>
<trkpt lat="31.2277100" lon="35.2887200">
<ele>213.860001</ele>
<time>2022-11-23T10:25:13.298Z</time>
</trkpt>
<trkpt lat="31.2276000" lon="35.2889200">
<ele>212.069992</ele>
<time>2022-11-23T10:25:13.298Z</time>
</trkpt>
<trkpt lat="31.2273700" lon="35.2894500">
<ele>212.460007</ele>
<time>2022-11-23T10:25:13.298Z</time>
</trkpt>
<trkpt lat="31.2273300" lon="35.2895400">
<ele>211.070007</ele>
<time>2022-11-23T10:25:13.298Z</time>
</trkpt>
<trkpt lat="31.2273000" lon="35.2896300">
<ele>209.500000</ele>
<time>2022-11-23T10:25:13.298Z</time>
</trkpt>
<trkpt lat="31.2272100" lon="35.2902100">
<ele>204.330002</ele>
<time>2022-11-23T10:25:13.298Z</time>
</trkpt>
<trkpt lat="31.2270700" lon="35.2904900">
<ele>205.790009</ele>
<time>2022-11-23T10:25:13.298Z</time>
</trkpt>
<trkpt lat="31.2270400" lon="35.2905500">
<ele>205.989990</ele>
<time>2022-11-23T10:25:13.298Z</time>
</trkpt>
<trkpt lat="31.2269900" lon="35.2906100">
<ele>206.059998</ele>
<time>2022-11-23T10:25:13.298Z</time>
</trkpt>
<trkpt lat="31.2269000" lon="35.2907000">
<ele>206.449997</ele>
<time>2022-11-23T10:25:13.298Z</time>
</trkpt>
<trkpt lat="31.2268000" lon="35.2908000">
<ele>205.980011</ele>
<time>2022-11-23T10:25:13.299Z</time>
</trkpt>
<trkpt lat="31.2266600" lon="35.2909700">
<ele>203.489990</ele>
<time>2022-11-23T10:25:13.299Z</time>
</trkpt>
<trkpt lat="31.2265000" lon="35.2912900">
<ele>201.060013</ele>
<time>2022-11-23T10:25:13.299Z</time>
</trkpt>
<trkpt lat="31.2264300" lon="35.2914000">
<ele>200.449997</ele>
<time>2022-11-23T10:25:13.299Z</time>
</trkpt>
<trkpt lat="31.2264000" lon="35.2914500">
<ele>200.130005</ele>
<time>2022-11-23T10:25:13.299Z</time>
</trkpt>
<trkpt lat="31.2263200" lon="35.2916000">
<ele>199.320007</ele>
<time>2022-11-23T10:25:13.299Z</time>
</trkpt>
<trkpt lat="31.2262400" lon="35.2917600">
<ele>197.700012</ele>
<time>2022-11-23T10:25:13.299Z</time>
</trkpt>
<trkpt lat="31.2260100" lon="35.2920400">
<ele>194.929993</ele>
<time>2022-11-23T10:25:13.299Z</time>
</trkpt>
<trkpt lat="31.2259800" lon="35.2920800">
<ele>195.219986</ele>
<time>2022-11-23T10:25:13.299Z</time>
</trkpt>
<trkpt lat="31.2258500" lon="35.2923300">
<ele>194.879990</ele>
<time>2022-11-23T10:25:13.299Z</time>
</trkpt>
<trkpt lat="31.2257800" lon="35.2925300">
<ele>193.410004</ele>
<time>2022-11-23T10:25:13.299Z</time>
</trkpt>
<trkpt lat="31.2257700" lon="35.2926700">
<ele>192.650009</ele>
<time>2022-11-23T10:25:13.299Z</time>
</trkpt>
<trkpt lat="31.2257700" lon="35.2929800">
<ele>191.830002</ele>
<time>2022-11-23T10:25:13.299Z</time>
</trkpt>
<trkpt lat="31.2257500" lon="35.2931600">
<ele>192.600006</ele>
<time>2022-11-23T10:25:13.299Z</time>
</trkpt>
<trkpt lat="31.2257300" lon="35.2932100">
<ele>192.880005</ele>
<time>2022-11-23T10:25:13.299Z</time>
</trkpt>
<trkpt lat="31.2256600" lon="35.2933400">
<ele>193.100006</ele>
<time>2022-11-23T10:25:13.299Z</time>
</trkpt>
<trkpt lat="31.2255600" lon="35.2934600">
<ele>192.459991</ele>
<time>2022-11-23T10:25:13.299Z</time>
</trkpt>
<trkpt lat="31.2254700" lon="35.2936900">
<ele>193.139999</ele>
<time>2022-11-23T10:25:13.299Z</time>
</trkpt>
<trkpt lat="31.2254400" lon="35.2939500">
<ele>191.809998</ele>
<time>2022-11-23T10:25:13.299Z</time>
</trkpt>
<trkpt lat="31.2254600" lon="35.2941800">
<ele>189.950012</ele>
<time>2022-11-23T10:25:13.299Z</time>
</trkpt>
<trkpt lat="31.2254500" lon="35.2944300">
<ele>188.600006</ele>
<time>2022-11-23T10:25:13.299Z</time>
</trkpt>
<trkpt lat="31.2254200" lon="35.2944700">
<ele>188.720001</ele>
<time>2022-11-23T10:25:13.299Z</time>
</trkpt>
<trkpt lat="31.2253600" lon="35.2945200">
<ele>189.190002</ele>
<time>2022-11-23T10:25:13.299Z</time>
</trkpt>
<trkpt lat="31.2252200" lon="35.2946600">
<ele>189.540009</ele>
<time>2022-11-23T10:25:13.299Z</time>
</trkpt>
<trkpt lat="31.2251400" lon="35.2947500">
<ele>188.949997</ele>
<time>2022-11-23T10:25:13.299Z</time>
</trkpt>
<trkpt lat="31.2250500" lon="35.2948300">
<ele>188.929993</ele>
<time>2022-11-23T10:25:13.299Z</time>
</trkpt>
<trkpt lat="31.2250000" lon="35.2948700">
<ele>189.000000</ele>
<time>2022-11-23T10:25:13.299Z</time>
</trkpt>
<trkpt lat="31.2249200" lon="35.2949700">
<ele>188.490005</ele>
<time>2022-11-23T10:25:13.299Z</time>
</trkpt>
<trkpt lat="31.2248800" lon="35.2950200">
<ele>188.240005</ele>
<time>2022-11-23T10:25:13.299Z</time>
</trkpt>
<trkpt lat="31.2247000" lon="35.2952100">
<ele>188.410004</ele>
<time>2022-11-23T10:25:13.299Z</time>
</trkpt>
<trkpt lat="31.2246200" lon="35.2952500">
<ele>188.169998</ele>
<time>2022-11-23T10:25:13.299Z</time>
</trkpt>
<trkpt lat="31.2244700" lon="35.2952400">
<ele>187.279999</ele>
<time>2022-11-23T10:25:13.299Z</time>
</trkpt>
<trkpt lat="31.2243500" lon="35.2952600">
<ele>185.789993</ele>
<time>2022-11-23T10:25:13.299Z</time>
</trkpt>
<trkpt lat="31.2239100" lon="35.2954200">
<ele>182.379990</ele>
<time>2022-11-23T10:25:13.299Z</time>
</trkpt>
<trkpt lat="31.2238300" lon="35.2954000">
<ele>183.340012</ele>
<time>2022-11-23T10:25:13.299Z</time>
</trkpt>
<trkpt lat="31.2237700" lon="35.2953600">
<ele>184.779999</ele>
<time>2022-11-23T10:25:13.299Z</time>
</trkpt>
<trkpt lat="31.2236300" lon="35.2952200">
<ele>188.919998</ele>
<time>2022-11-23T10:25:13.299Z</time>
</trkpt>
<trkpt lat="31.2235900" lon="35.2951000">
<ele>191.080002</ele>
<time>2022-11-23T10:25:13.299Z</time>
</trkpt>
<trkpt lat="31.2235900" lon="35.2950600">
<ele>191.779999</ele>
<time>2022-11-23T10:25:13.299Z</time>
</trkpt>
<trkpt lat="31.2236000" lon="35.2949500">
<ele>193.820007</ele>
<time>2022-11-23T10:25:13.300Z</time>
</trkpt>
<trkpt lat="31.2236000" lon="35.2948600">
<ele>195.440002</ele>
<time>2022-11-23T10:25:13.300Z</time>
</trkpt>
<trkpt lat="31.2235800" lon="35.2948300">
<ele>195.840012</ele>
<time>2022-11-23T10:25:13.300Z</time>
</trkpt>
<trkpt lat="31.2233200" lon="35.2948900">
<ele>192.940002</ele>
<time>2022-11-23T10:25:13.300Z</time>
</trkpt>
<trkpt lat="31.2232700" lon="35.2948800">
<ele>192.959991</ele>
<time>2022-11-23T10:25:13.300Z</time>
</trkpt>
<trkpt lat="31.2232400" lon="35.2948700">
<ele>193.029999</ele>
<time>2022-11-23T10:25:13.300Z</time>
</trkpt>
<trkpt lat="31.2232000" lon="35.2948200">
<ele>193.619995</ele>
<time>2022-11-23T10:25:13.300Z</time>
</trkpt>
<trkpt lat="31.2231400" lon="35.2947100">
<ele>194.649994</ele>
<time>2022-11-23T10:25:13.300Z</time>
</trkpt>
<trkpt lat="31.2231200" lon="35.2946800">
<ele>194.620010</ele>
<time>2022-11-23T10:25:13.300Z</time>
</trkpt>
<trkpt lat="31.2230800" lon="35.2946300">
<ele>194.510010</ele>
<time>2022-11-23T10:25:13.300Z</time>
</trkpt>
<trkpt lat="31.2230000" lon="35.2945800">
<ele>194.009995</ele>
<time>2022-11-23T10:25:13.300Z</time>
</trkpt>
<trkpt lat="31.2229200" lon="35.2945500">
<ele>193.339996</ele>
<time>2022-11-23T10:25:13.300Z</time>
</trkpt>
<trkpt lat="31.2227700" lon="35.2945800">
<ele>192.000000</ele>
<time>2022-11-23T10:25:13.300Z</time>
</trkpt>
<trkpt lat="31.2227400" lon="35.2946000">
<ele>191.970001</ele>
<time>2022-11-23T10:25:13.300Z</time>
</trkpt>
<trkpt lat="31.2227200" lon="35.2946300">
<ele>191.859985</ele>
<time>2022-11-23T10:25:13.300Z</time>
</trkpt>
<trkpt lat="31.2225800" lon="35.2947400">
<ele>190.380005</ele>
<time>2022-11-23T10:25:13.300Z</time>
</trkpt>
<trkpt lat="31.2225500" lon="35.2947700">
<ele>189.839996</ele>
<time>2022-11-23T10:25:13.300Z</time>
</trkpt>
<trkpt lat="31.2225000" lon="35.2949000">
<ele>188.080002</ele>
<time>2022-11-23T10:25:13.300Z</time>
</trkpt>
<trkpt lat="31.2224500" lon="35.2952000">
<ele>187.669998</ele>
<time>2022-11-23T10:25:13.301Z</time>
</trkpt>
<trkpt lat="31.2223900" lon="35.2954300">
<ele>189.719986</ele>
<time>2022-11-23T10:25:13.301Z</time>
</trkpt>
<trkpt lat="31.2223800" lon="35.2955600">
<ele>190.469986</ele>
<time>2022-11-23T10:25:13.301Z</time>
</trkpt>
<trkpt lat="31.2224600" lon="35.2958000">
<ele>189.659988</ele>
<time>2022-11-23T10:25:13.301Z</time>
</trkpt>
<trkpt lat="31.2225100" lon="35.2962200">
<ele>190.110001</ele>
<time>2022-11-23T10:25:13.301Z</time>
</trkpt>
<trkpt lat="31.2224600" lon="35.2965200">
<ele>190.910004</ele>
<time>2022-11-23T10:25:13.301Z</time>
</trkpt>
<trkpt lat="31.2223500" lon="35.2968900">
<ele>191.740005</ele>
<time>2022-11-23T10:25:13.301Z</time>
</trkpt>
<trkpt lat="31.2223000" lon="35.2971100">
<ele>191.089996</ele>
<time>2022-11-23T10:25:13.301Z</time>
</trkpt>
<trkpt lat="31.2222600" lon="35.2974600">
<ele>186.679993</ele>
<time>2022-11-23T10:25:13.301Z</time>
</trkpt>
<trkpt lat="31.2221500" lon="35.2977500">
<ele>183.350006</ele>
<time>2022-11-23T10:25:13.301Z</time>
</trkpt>
<trkpt lat="31.2221300" lon="35.2978300">
<ele>182.419998</ele>
<time>2022-11-23T10:25:13.301Z</time>
</trkpt>
<trkpt lat="31.2221200" lon="35.2980900">
<ele>181.090012</ele>
<time>2022-11-23T10:25:13.301Z</time>
</trkpt>
<trkpt lat="31.2221200" lon="35.2982100">
<ele>180.869995</ele>
<time>2022-11-23T10:25:13.301Z</time>
</trkpt>
<trkpt lat="31.2221200" lon="35.2982500">
<ele>180.790009</ele>
<time>2022-11-23T10:25:13.301Z</time>
</trkpt>
<trkpt lat="31.2220900" lon="35.2982900">
<ele>180.539993</ele>
<time>2022-11-23T10:25:13.301Z</time>
</trkpt>
<trkpt lat="31.2218700" lon="35.2984200">
<ele>178.559998</ele>
<time>2022-11-23T10:25:13.301Z</time>
</trkpt>
<trkpt lat="31.2214900" lon="35.2984900">
<ele>171.750000</ele>
<time>2022-11-23T10:25:13.301Z</time>
</trkpt>
<trkpt lat="31.2212300" lon="35.2984800">
<ele>160.350006</ele>
<time>2022-11-23T10:25:13.301Z</time>
</trkpt>
<trkpt lat="31.2212400" lon="35.2984900">
<ele>161.279999</ele>
<time>2022-11-23T10:25:13.301Z</time>
</trkpt>
<trkpt lat="31.2212300" lon="35.2985000">
<ele>161.079987</ele>
<time>2022-11-23T10:25:13.301Z</time>
</trkpt>
<trkpt lat="31.2212300" lon="35.2985200">
<ele>161.809998</ele>
<time>2022-11-23T10:25:13.301Z</time>
</trkpt>
<trkpt lat="31.2212500" lon="35.2985300">
<ele>163.229996</ele>
<time>2022-11-23T10:25:13.301Z</time>
</trkpt>
<trkpt lat="31.2212600" lon="35.2985500">
<ele>164.410004</ele>
<time>2022-11-23T10:25:13.301Z</time>
</trkpt>
<trkpt lat="31.2212900" lon="35.2985800">
<ele>166.809998</ele>
<time>2022-11-23T10:25:13.301Z</time>
</trkpt>
<trkpt lat="31.2213600" lon="35.2985900">
<ele>170.300003</ele>
<time>2022-11-23T10:25:13.302Z</time>
</trkpt>
<trkpt lat="31.2214400" lon="35.2986300">
<ele>172.800003</ele>
<time>2022-11-23T10:25:13.302Z</time>
</trkpt>
<trkpt lat="31.2215000" lon="35.2986300">
<ele>173.669998</ele>
<time>2022-11-23T10:25:13.302Z</time>
</trkpt>
<trkpt lat="31.2216300" lon="35.2985900">
<ele>175.290009</ele>
<time>2022-11-23T10:25:13.302Z</time>
</trkpt>
<trkpt lat="31.2217800" lon="35.2985800">
<ele>177.500000</ele>
<time>2022-11-23T10:25:13.302Z</time>
</trkpt>
<trkpt lat="31.2218800" lon="35.2986500">
<ele>179.000000</ele>
<time>2022-11-23T10:25:13.302Z</time>
</trkpt>
<trkpt lat="31.2220100" lon="35.2987100">
<ele>178.619995</ele>
<time>2022-11-23T10:25:13.302Z</time>
</trkpt>
<trkpt lat="31.2221000" lon="35.2987700">
<ele>176.870010</ele>
<time>2022-11-23T10:25:13.302Z</time>
</trkpt>
<trkpt lat="31.2221200" lon="35.2988400">
<ele>176.129990</ele>
<time>2022-11-23T10:25:13.302Z</time>
</trkpt>
<trkpt lat="31.2221300" lon="35.2989900">
<ele>173.589996</ele>
<time>2022-11-23T10:25:13.302Z</time>
</trkpt>
<trkpt lat="31.2221100" lon="35.2992100">
<ele>170.600006</ele>
<time>2022-11-23T10:25:13.302Z</time>
</trkpt>
<trkpt lat="31.2220500" lon="35.2995600">
<ele>171.699997</ele>
<time>2022-11-23T10:25:13.302Z</time>
</trkpt>
<trkpt lat="31.2220500" lon="35.2997700">
<ele>171.460007</ele>
<time>2022-11-23T10:25:13.302Z</time>
</trkpt>
<trkpt lat="31.2220800" lon="35.3000200">
<ele>172.319992</ele>
<time>2022-11-23T10:25:13.302Z</time>
</trkpt>
<trkpt lat="31.2220800" lon="35.3003700">
<ele>176.819992</ele>
<time>2022-11-23T10:25:13.302Z</time>
</trkpt>
<trkpt lat="31.2220900" lon="35.3004500">
<ele>178.020004</ele>
<time>2022-11-23T10:25:13.302Z</time>
</trkpt>
<trkpt lat="31.2222800" lon="35.3009800">
<ele>180.500000</ele>
<time>2022-11-23T10:25:13.302Z</time>
</trkpt>
<trkpt lat="31.2223600" lon="35.3014300">
<ele>182.779999</ele>
<time>2022-11-23T10:25:13.302Z</time>
</trkpt>
<trkpt lat="31.2224000" lon="35.3015400">
<ele>184.009995</ele>
<time>2022-11-23T10:25:13.302Z</time>
</trkpt>
<trkpt lat="31.2224900" lon="35.3017000">
<ele>186.000000</ele>
<time>2022-11-23T10:25:13.302Z</time>
</trkpt>
<trkpt lat="31.2225700" lon="35.3017900">
<ele>186.839996</ele>
<time>2022-11-23T10:25:13.302Z</time>
</trkpt>
<trkpt lat="31.2229100" lon="35.3020300">
<ele>184.839996</ele>
<time>2022-11-23T10:25:13.302Z</time>
</trkpt>
<trkpt lat="31.2231300" lon="35.3023000">
<ele>181.639999</ele>
<time>2022-11-23T10:25:13.302Z</time>
</trkpt>
<trkpt lat="31.2232300" lon="35.3025100">
<ele>183.589996</ele>
<time>2022-11-23T10:25:13.302Z</time>
</trkpt>
<trkpt lat="31.2235500" lon="35.3029500">
<ele>179.139999</ele>
<time>2022-11-23T10:25:13.302Z</time>
</trkpt>
<trkpt lat="31.2236000" lon="35.3030000">
<ele>178.169998</ele>
<time>2022-11-23T10:25:13.302Z</time>
</trkpt>
<trkpt lat="31.2236500" lon="35.3030500">
<ele>176.830002</ele>
<time>2022-11-23T10:25:13.302Z</time>
</trkpt>
<trkpt lat="31.2237000" lon="35.3031000">
<ele>175.659988</ele>
<time>2022-11-23T10:25:13.302Z</time>
</trkpt>
<trkpt lat="31.2238400" lon="35.3032700">
<ele>173.900009</ele>
<time>2022-11-23T10:25:13.303Z</time>
</trkpt>
<trkpt lat="31.2239100" lon="35.3033800">
<ele>174.110001</ele>
<time>2022-11-23T10:25:13.303Z</time>
</trkpt>
<trkpt lat="31.2239600" lon="35.3035000">
<ele>174.119995</ele>
<time>2022-11-23T10:25:13.303Z</time>
</trkpt>
<trkpt lat="31.2240100" lon="35.3037300">
<ele>172.830002</ele>
<time>2022-11-23T10:25:13.303Z</time>
</trkpt>
<trkpt lat="31.2240400" lon="35.3040100">
<ele>170.869995</ele>
<time>2022-11-23T10:25:13.303Z</time>
</trkpt>
<trkpt lat="31.2240300" lon="35.3041800">
<ele>169.970001</ele>
<time>2022-11-23T10:25:13.303Z</time>
</trkpt>
<trkpt lat="31.2239600" lon="35.3043300">
<ele>170.139999</ele>
<time>2022-11-23T10:25:13.303Z</time>
</trkpt>
<trkpt lat="31.2239300" lon="35.3043800">
<ele>170.430008</ele>
<time>2022-11-23T10:25:13.303Z</time>
</trkpt>
<trkpt lat="31.2238400" lon="35.3046600">
<ele>171.070007</ele>
<time>2022-11-23T10:25:13.303Z</time>
</trkpt>
<trkpt lat="31.2234900" lon="35.3055000">
<ele>170.770004</ele>
<time>2022-11-23T10:25:13.303Z</time>
</trkpt>
<trkpt lat="31.2234500" lon="35.3055600">
<ele>170.720001</ele>
<time>2022-11-23T10:25:13.303Z</time>
</trkpt>
<trkpt lat="31.2234000" lon="35.3056300">
<ele>170.560013</ele>
<time>2022-11-23T10:25:13.303Z</time>
</trkpt>
<trkpt lat="31.2233600" lon="35.3056500">
<ele>170.100006</ele>
<time>2022-11-23T10:25:13.303Z</time>
</trkpt>
<trkpt lat="31.2232700" lon="35.3056800">
<ele>166.170013</ele>
<time>2022-11-23T10:25:13.303Z</time>
</trkpt>
<trkpt lat="31.2230800" lon="35.3056600">
<ele>155.039993</ele>
<time>2022-11-23T10:25:13.303Z</time>
</trkpt>
<trkpt lat="31.2229500" lon="35.3056600">
<ele>155.050003</ele>
<time>2022-11-23T10:25:13.303Z</time>
</trkpt>
<trkpt lat="31.2227600" lon="35.3056900">
<ele>157.449997</ele>
<time>2022-11-23T10:25:13.303Z</time>
</trkpt>
<trkpt lat="31.2226200" lon="35.3056900">
<ele>157.169998</ele>
<time>2022-11-23T10:25:13.303Z</time>
</trkpt>
<trkpt lat="31.2224100" lon="35.3057500">
<ele>158.250000</ele>
<time>2022-11-23T10:25:13.303Z</time>
</trkpt>
<trkpt lat="31.2223500" lon="35.3057700">
<ele>158.919998</ele>
<time>2022-11-23T10:25:13.303Z</time>
</trkpt>
<trkpt lat="31.2222200" lon="35.3058900">
<ele>160.929993</ele>
<time>2022-11-23T10:25:13.303Z</time>
</trkpt>
<trkpt lat="31.2221800" lon="35.3059500">
<ele>159.699997</ele>
<time>2022-11-23T10:25:13.303Z</time>
</trkpt>
<trkpt lat="31.2221200" lon="35.3060300">
<ele>157.950012</ele>
<time>2022-11-23T10:25:13.303Z</time>
</trkpt>
<trkpt lat="31.2220800" lon="35.3061200">
<ele>156.759995</ele>
<time>2022-11-23T10:25:13.303Z</time>
</trkpt>
<trkpt lat="31.2219800" lon="35.3063900">
<ele>151.360001</ele>
<time>2022-11-23T10:25:13.303Z</time>
</trkpt>
<trkpt lat="31.2218600" lon="35.3066700">
<ele>144.710007</ele>
<time>2022-11-23T10:25:13.303Z</time>
</trkpt>
<trkpt lat="31.2218400" lon="35.3067100">
<ele>143.520004</ele>
<time>2022-11-23T10:25:13.303Z</time>
</trkpt>
<trkpt lat="31.2217600" lon="35.3068400">
<ele>139.800003</ele>
<time>2022-11-23T10:25:13.303Z</time>
</trkpt>
<trkpt lat="31.2216300" lon="35.3070000">
<ele>135.330002</ele>
<time>2022-11-23T10:25:13.303Z</time>
</trkpt>
<trkpt lat="31.2215500" lon="35.3072700">
<ele>130.110001</ele>
<time>2022-11-23T10:25:13.303Z</time>
</trkpt>
<trkpt lat="31.2214900" lon="35.3073600">
<ele>127.660004</ele>
<time>2022-11-23T10:25:13.303Z</time>
</trkpt>
<trkpt lat="31.2214800" lon="35.3074100">
<ele>126.709999</ele>
<time>2022-11-23T10:25:13.303Z</time>
</trkpt>
<trkpt lat="31.2214100" lon="35.3074900">
<ele>124.450005</ele>
<time>2022-11-23T10:25:13.303Z</time>
</trkpt>
<trkpt lat="31.2213100" lon="35.3075800">
<ele>121.029999</ele>
<time>2022-11-23T10:25:13.303Z</time>
</trkpt>
<trkpt lat="31.2212400" lon="35.3076700">
<ele>118.529999</ele>
<time>2022-11-23T10:25:13.303Z</time>
</trkpt>
<trkpt lat="31.2212000" lon="35.3077400">
<ele>117.140007</ele>
<time>2022-11-23T10:25:13.303Z</time>
</trkpt>
<trkpt lat="31.2210100" lon="35.3082700">
<ele>107.809998</ele>
<time>2022-11-23T10:25:13.303Z</time>
</trkpt>
<trkpt lat="31.2209500" lon="35.3083600">
<ele>105.290001</ele>
<time>2022-11-23T10:25:13.303Z</time>
</trkpt>
<trkpt lat="31.2209300" lon="35.3083900">
<ele>104.609993</ele>
<time>2022-11-23T10:25:13.304Z</time>
</trkpt>
<trkpt lat="31.2208400" lon="35.3084600">
<ele>102.220001</ele>
<time>2022-11-23T10:25:13.304Z</time>
</trkpt>
<trkpt lat="31.2206700" lon="35.3085300">
<ele>99.229996</ele>
<time>2022-11-23T10:25:13.304Z</time>
</trkpt>
<trkpt lat="31.2206400" lon="35.3085600">
<ele>98.580002</ele>
<time>2022-11-23T10:25:13.304Z</time>
</trkpt>
<trkpt lat="31.2206200" lon="35.3087200">
<ele>97.139999</ele>
<time>2022-11-23T10:25:13.304Z</time>
</trkpt>
<trkpt lat="31.2205100" lon="35.3089300">
<ele>95.619995</ele>
<time>2022-11-23T10:25:13.304Z</time>
</trkpt>
<trkpt lat="31.2204800" lon="35.3091100">
<ele>97.139999</ele>
<time>2022-11-23T10:25:13.304Z</time>
</trkpt>
<trkpt lat="31.2205100" lon="35.3095000">
<ele>99.500000</ele>
<time>2022-11-23T10:25:13.304Z</time>
</trkpt>
<trkpt lat="31.2205200" lon="35.3095700">
<ele>99.650002</ele>
<time>2022-11-23T10:25:13.304Z</time>
</trkpt>
<trkpt lat="31.2204900" lon="35.3097000">
<ele>100.169998</ele>
<time>2022-11-23T10:25:13.304Z</time>
</trkpt>
<trkpt lat="31.2204500" lon="35.3101600">
<ele>98.209999</ele>
<time>2022-11-23T10:25:13.304Z</time>
</trkpt>
<trkpt lat="31.2204400" lon="35.3104000">
<ele>96.889999</ele>
<time>2022-11-23T10:25:13.304Z</time>
</trkpt>
<trkpt lat="31.2204100" lon="35.3106000">
<ele>96.090004</ele>
<time>2022-11-23T10:25:13.304Z</time>
</trkpt>
<trkpt lat="31.2204000" lon="35.3108600">
<ele>96.790001</ele>
<time>2022-11-23T10:25:13.304Z</time>
</trkpt>
<trkpt lat="31.2203600" lon="35.3111900">
<ele>98.639999</ele>
<time>2022-11-23T10:25:13.304Z</time>
</trkpt>
<trkpt lat="31.2204200" lon="35.3115900">
<ele>97.430000</ele>
<time>2022-11-23T10:25:13.304Z</time>
</trkpt>
<trkpt lat="31.2204300" lon="35.3117200">
<ele>97.089996</ele>
<time>2022-11-23T10:25:13.304Z</time>
</trkpt>
<trkpt lat="31.2204000" lon="35.3122400">
<ele>93.990005</ele>
<time>2022-11-23T10:25:13.304Z</time>
</trkpt>
<trkpt lat="31.2203900" lon="35.3125200">
<ele>92.130005</ele>
<time>2022-11-23T10:25:13.304Z</time>
</trkpt>
<trkpt lat="31.2204100" lon="35.3126900">
<ele>91.400002</ele>
<time>2022-11-23T10:25:13.304Z</time>
</trkpt>
<trkpt lat="31.2204000" lon="35.3129000">
<ele>91.680000</ele>
<time>2022-11-23T10:25:13.304Z</time>
</trkpt>
<trkpt lat="31.2204600" lon="35.3134200">
<ele>94.099998</ele>
<time>2022-11-23T10:25:13.304Z</time>
</trkpt>
<trkpt lat="31.2204400" lon="35.3136200">
<ele>95.050003</ele>
<time>2022-11-23T10:25:13.304Z</time>
</trkpt>
<trkpt lat="31.2203100" lon="35.3139000">
<ele>96.150002</ele>
<time>2022-11-23T10:25:13.305Z</time>
</trkpt>
<trkpt lat="31.2203000" lon="35.3140000">
<ele>96.420006</ele>
<time>2022-11-23T10:25:13.305Z</time>
</trkpt>
<trkpt lat="31.2203200" lon="35.3142400">
<ele>96.769997</ele>
<time>2022-11-23T10:25:13.305Z</time>
</trkpt>
<trkpt lat="31.2203800" lon="35.3143000">
<ele>96.279999</ele>
<time>2022-11-23T10:25:13.305Z</time>
</trkpt>
<trkpt lat="31.2204300" lon="35.3143700">
<ele>95.650002</ele>
<time>2022-11-23T10:25:13.305Z</time>
</trkpt>
<trkpt lat="31.2189300" lon="35.3168400">
<ele>87.139999</ele>
<time>2022-11-23T10:25:13.305Z</time>
</trkpt>
<trkpt lat="31.2182700" lon="35.3184700">
<ele>87.919998</ele>
<time>2022-11-23T10:25:13.305Z</time>
</trkpt>
<trkpt lat="31.2180900" lon="35.3190300">
<ele>85.740005</ele>
<time>2022-11-23T10:25:13.305Z</time>
</trkpt>
<trkpt lat="31.2181600" lon="35.3197100">
<ele>83.639999</ele>
<time>2022-11-23T10:25:13.305Z</time>
</trkpt>
<trkpt lat="31.2179400" lon="35.3206600">
<ele>81.669998</ele>
<time>2022-11-23T10:25:13.305Z</time>
</trkpt>
<trkpt lat="31.2173900" lon="35.3219900">
<ele>81.830002</ele>
<time>2022-11-23T10:25:13.305Z</time>
</trkpt>
<trkpt lat="31.2160700" lon="35.3229300">
<ele>82.470001</ele>
<time>2022-11-23T10:25:13.305Z</time>
</trkpt>
<trkpt lat="31.2154400" lon="35.3237100">
<ele>83.699997</ele>
<time>2022-11-23T10:25:13.305Z</time>
</trkpt>
<trkpt lat="31.2150000" lon="35.3248200">
<ele>74.349998</ele>
<time>2022-11-23T10:25:13.305Z</time>
</trkpt>
<trkpt lat="31.2139800" lon="35.3268000">
<ele>60.570000</ele>
<time>2022-11-23T10:25:13.305Z</time>
</trkpt>
<trkpt lat="31.2124300" lon="35.3284700">
<ele>54.489998</ele>
<time>2022-11-23T10:25:13.305Z</time>
</trkpt>
<trkpt lat="31.2112600" lon="35.3311300">
<ele>38.000000</ele>
<time>2022-11-23T10:25:13.305Z</time>
</trkpt>
<trkpt lat="31.2113300" lon="35.3317700">
<ele>34.170002</ele>
<time>2022-11-23T10:25:13.305Z</time>
</trkpt>
<trkpt lat="31.2115900" lon="35.3324600">
<ele>30.240000</ele>
<time>2022-11-23T10:25:13.305Z</time>
</trkpt>
<trkpt lat="31.2108600" lon="35.3352900">
<ele>33.880001</ele>
<time>2022-11-23T10:25:13.305Z</time>
</trkpt>
<trkpt lat="31.2105600" lon="35.3374400">
<ele>37.860001</ele>
<time>2022-11-23T10:25:13.305Z</time>
</trkpt>
<trkpt lat="31.2102700" lon="35.3402700">
<ele>24.030001</ele>
<time>2022-11-23T10:25:13.305Z</time>
</trkpt>
<trkpt lat="31.2098700" lon="35.3423700">
<ele>29.940001</ele>
<time>2022-11-23T10:25:13.305Z</time>
</trkpt>
<trkpt lat="31.2089500" lon="35.3452100">
<ele>24.439999</ele>
<time>2022-11-23T10:25:13.306Z</time>
</trkpt>
<trkpt lat="31.2080700" lon="35.3463600">
<ele>28.850000</ele>
<time>2022-11-23T10:25:13.306Z</time>
</trkpt>
<trkpt lat="31.2080700" lon="35.3485100">
<ele>9.900001</ele>
<time>2022-11-23T10:25:13.306Z</time>
</trkpt>
<trkpt lat="31.2077400" lon="35.3492400">
<ele>8.719999</ele>
<time>2022-11-23T10:25:13.306Z</time>
</trkpt>
<trkpt lat="31.2081600" lon="35.3505100">
<ele>-14.030000</ele>
<time>2022-11-23T10:25:13.306Z</time>
</trkpt>
<trkpt lat="31.2077600" lon="35.3491500">
<ele>8.260000</ele>
<time>2022-11-23T10:25:13.306Z</time>
</trkpt>
<trkpt lat="31.2080800" lon="35.3484600">
<ele>10.330000</ele>
<time>2022-11-23T10:25:13.306Z</time>
</trkpt>
<trkpt lat="31.2080200" lon="35.3463300">
<ele>28.380001</ele>
<time>2022-11-23T10:25:13.306Z</time>
</trkpt>
<trkpt lat="31.2090100" lon="35.3452400">
<ele>24.870001</ele>
<time>2022-11-23T10:25:13.306Z</time>
</trkpt>
<trkpt lat="31.2111700" lon="35.3444600">
<ele>14.050000</ele>
<time>2022-11-23T10:25:13.306Z</time>
</trkpt>
<trkpt lat="31.2130200" lon="35.3434000">
<ele>13.690001</ele>
<time>2022-11-23T10:25:13.306Z</time>
</trkpt>
<trkpt lat="31.2142900" lon="35.3435500">
<ele>18.100000</ele>
<time>2022-11-23T10:25:13.306Z</time>
</trkpt>
<trkpt lat="31.2151900" lon="35.3434900">
<ele>21.609999</ele>
<time>2022-11-23T10:25:13.306Z</time>
</trkpt>
<trkpt lat="31.2159800" lon="35.3434900">
<ele>25.349998</ele>
<time>2022-11-23T10:25:13.306Z</time>
</trkpt>
<trkpt lat="31.2173200" lon="35.3432800">
<ele>32.900002</ele>
<time>2022-11-23T10:25:13.306Z</time>
</trkpt>
<trkpt lat="31.2178800" lon="35.3428000">
<ele>31.020000</ele>
<time>2022-11-23T10:25:13.306Z</time>
</trkpt>
<trkpt lat="31.2184900" lon="35.3423300">
<ele>33.299999</ele>
<time>2022-11-23T10:25:13.306Z</time>
</trkpt>
<trkpt lat="31.2188800" lon="35.3420900">
<ele>35.489998</ele>
<time>2022-11-23T10:25:13.306Z</time>
</trkpt>
<trkpt lat="31.2202200" lon="35.3410600">
<ele>36.230000</ele>
<time>2022-11-23T10:25:13.306Z</time>
</trkpt>
<trkpt lat="31.2211900" lon="35.3404000">
<ele>36.560001</ele>
<time>2022-11-23T10:25:13.306Z</time>
</trkpt>
<trkpt lat="31.2221800" lon="35.3401400">
<ele>28.900002</ele>
<time>2022-11-23T10:25:13.306Z</time>
</trkpt>
<trkpt lat="31.2227300" lon="35.3398600">
<ele>26.670000</ele>
<time>2022-11-23T10:25:13.306Z</time>
</trkpt>
<trkpt lat="31.2238100" lon="35.3396500">
<ele>31.690001</ele>
<time>2022-11-23T10:25:13.306Z</time>
</trkpt>
<trkpt lat="31.2255200" lon="35.3394600">
<ele>41.230000</ele>
<time>2022-11-23T10:25:13.306Z</time>
</trkpt>
<trkpt lat="31.2260000" lon="35.3395200">
<ele>36.470001</ele>
<time>2022-11-23T10:25:13.306Z</time>
</trkpt>
<trkpt lat="31.2268800" lon="35.3392200">
<ele>39.579998</ele>
<time>2022-11-23T10:25:13.306Z</time>
</trkpt>
<trkpt lat="31.2273900" lon="35.3390300">
<ele>39.199997</ele>
<time>2022-11-23T10:25:13.306Z</time>
</trkpt>
<trkpt lat="31.2280300" lon="35.3387000">
<ele>39.320000</ele>
<time>2022-11-23T10:25:13.306Z</time>
</trkpt>
<trkpt lat="31.2287300" lon="35.3384000">
<ele>42.759998</ele>
<time>2022-11-23T10:25:13.306Z</time>
</trkpt>
<trkpt lat="31.2289500" lon="35.3384000">
<ele>42.929996</ele>
<time>2022-11-23T10:25:13.306Z</time>
</trkpt>
<trkpt lat="31.2290100" lon="35.3398900">
<ele>40.120003</ele>
<time>2022-11-23T10:25:13.306Z</time>
</trkpt>
<trkpt lat="31.2290300" lon="35.3400000">
<ele>40.489998</ele>
<time>2022-11-23T10:25:13.306Z</time>
</trkpt>
<trkpt lat="31.2291300" lon="35.3403500">
<ele>40.770000</ele>
<time>2022-11-23T10:25:13.306Z</time>
</trkpt>
<trkpt lat="31.2291600" lon="35.3405700">
<ele>39.970001</ele>
<time>2022-11-23T10:25:13.306Z</time>
</trkpt>
<trkpt lat="31.2291900" lon="35.3410800">
<ele>37.469997</ele>
<time>2022-11-23T10:25:13.306Z</time>
</trkpt>
<trkpt lat="31.2292800" lon="35.3414400">
<ele>36.739998</ele>
<time>2022-11-23T10:25:13.306Z</time>
</trkpt>
<trkpt lat="31.2294400" lon="35.3423700">
<ele>36.990002</ele>
<time>2022-11-23T10:25:13.306Z</time>
</trkpt>
<trkpt lat="31.2295300" lon="35.3426100">
<ele>39.029999</ele>
<time>2022-11-23T10:25:13.306Z</time>
</trkpt>
<trkpt lat="31.2295700" lon="35.3427000">
<ele>39.520000</ele>
<time>2022-11-23T10:25:13.306Z</time>
</trkpt>
<trkpt lat="31.2296200" lon="35.3427900">
<ele>39.590004</ele>
<time>2022-11-23T10:25:13.308Z</time>
</trkpt>
<trkpt lat="31.2296500" lon="35.3428200">
<ele>39.590004</ele>
<time>2022-11-23T10:25:13.308Z</time>
</trkpt>
<trkpt lat="31.2297700" lon="35.3430700">
<ele>38.829998</ele>
<time>2022-11-23T10:25:13.308Z</time>
</trkpt>
<trkpt lat="31.2298200" lon="35.3431500">
<ele>38.649998</ele>
<time>2022-11-23T10:25:13.308Z</time>
</trkpt>
<trkpt lat="31.2298700" lon="35.3432300">
<ele>38.470001</ele>
<time>2022-11-23T10:25:13.308Z</time>
</trkpt>
<trkpt lat="31.2300100" lon="35.3434200">
<ele>37.360001</ele>
<time>2022-11-23T10:25:13.308Z</time>
</trkpt>
<trkpt lat="31.2301500" lon="35.3436200">
<ele>36.480000</ele>
<time>2022-11-23T10:25:13.308Z</time>
</trkpt>
<trkpt lat="31.2301900" lon="35.3437100">
<ele>35.970001</ele>
<time>2022-11-23T10:25:13.308Z</time>
</trkpt>
<trkpt lat="31.2302700" lon="35.3439200">
<ele>34.860001</ele>
<time>2022-11-23T10:25:13.308Z</time>
</trkpt>
<trkpt lat="31.2303700" lon="35.3441400">
<ele>33.759998</ele>
<time>2022-11-23T10:25:13.308Z</time>
</trkpt>
<trkpt lat="31.2305700" lon="35.3444800">
<ele>32.919998</ele>
<time>2022-11-23T10:25:13.308Z</time>
</trkpt>
<trkpt lat="31.2307200" lon="35.3446900">
<ele>32.180000</ele>
<time>2022-11-23T10:25:13.308Z</time>
</trkpt>
<trkpt lat="31.2307600" lon="35.3447300">
<ele>32.009998</ele>
<time>2022-11-23T10:25:13.308Z</time>
</trkpt>
<trkpt lat="31.2308800" lon="35.3448700">
<ele>32.080002</ele>
<time>2022-11-23T10:25:13.308Z</time>
</trkpt>
<trkpt lat="31.2311400" lon="35.3451100">
<ele>31.099998</ele>
<time>2022-11-23T10:25:13.308Z</time>
</trkpt>
<trkpt lat="31.2311800" lon="35.3451500">
<ele>30.369999</ele>
<time>2022-11-23T10:25:13.308Z</time>
</trkpt>
<trkpt lat="31.2312500" lon="35.3452400">
<ele>29.429998</ele>
<time>2022-11-23T10:25:13.308Z</time>
</trkpt>
<trkpt lat="31.2313400" lon="35.3453700">
<ele>29.740002</ele>
<time>2022-11-23T10:25:13.308Z</time>
</trkpt>
<trkpt lat="31.2314800" lon="35.3454800">
<ele>29.959999</ele>
<time>2022-11-23T10:25:13.308Z</time>
</trkpt>
<trkpt lat="31.2315100" lon="35.3455600">
<ele>30.269999</ele>
<time>2022-11-23T10:25:13.308Z</time>
</trkpt>
<trkpt lat="31.2315100" lon="35.3456200">
<ele>30.459999</ele>
<time>2022-11-23T10:25:13.308Z</time>
</trkpt>
<trkpt lat="31.2314700" lon="35.3457200">
<ele>31.179998</ele>
<time>2022-11-23T10:25:13.308Z</time>
</trkpt>
<trkpt lat="31.2312700" lon="35.3458700">
<ele>32.969997</ele>
<time>2022-11-23T10:25:13.308Z</time>
</trkpt>
<trkpt lat="31.2311200" lon="35.3460600">
<ele>35.520000</ele>
<time>2022-11-23T10:25:13.308Z</time>
</trkpt>
<trkpt lat="31.2310800" lon="35.3461800">
<ele>35.530003</ele>
<time>2022-11-23T10:25:13.308Z</time>
</trkpt>
<trkpt lat="31.2310800" lon="35.3465100">
<ele>30.719999</ele>
<time>2022-11-23T10:25:13.308Z</time>
</trkpt>
<trkpt lat="31.2315400" lon="35.3465900">
<ele>20.049999</ele>
<time>2022-11-23T10:25:13.308Z</time>
</trkpt>
<trkpt lat="31.2311000" lon="35.3466000">
<ele>28.019999</ele>
<time>2022-11-23T10:25:13.308Z</time>
</trkpt>
<trkpt lat="31.2311300" lon="35.3461200">
<ele>35.660000</ele>
<time>2022-11-23T10:25:13.308Z</time>
</trkpt>
<trkpt lat="31.2312200" lon="35.3459700">
<ele>33.809998</ele>
<time>2022-11-23T10:25:13.308Z</time>
</trkpt>
<trkpt lat="31.2312900" lon="35.3459000">
<ele>32.880001</ele>
<time>2022-11-23T10:25:13.308Z</time>
</trkpt>
<trkpt lat="31.2313300" lon="35.3458700">
<ele>32.480000</ele>
<time>2022-11-23T10:25:13.308Z</time>
</trkpt>
<trkpt lat="31.2314600" lon="35.3457600">
<ele>31.350000</ele>
<time>2022-11-23T10:25:13.309Z</time>
</trkpt>
<trkpt lat="31.2315200" lon="35.3457000">
<ele>30.600000</ele>
<time>2022-11-23T10:25:13.309Z</time>
</trkpt>
<trkpt lat="31.2315500" lon="35.3456100">
<ele>29.910000</ele>
<time>2022-11-23T10:25:13.309Z</time>
</trkpt>
<trkpt lat="31.2315100" lon="35.3455100">
<ele>29.890001</ele>
<time>2022-11-23T10:25:13.309Z</time>
</trkpt>
<trkpt lat="31.2314600" lon="35.3454500">
<ele>29.849998</ele>
<time>2022-11-23T10:25:13.309Z</time>
</trkpt>
<trkpt lat="31.2313700" lon="35.3453700">
<ele>29.490000</ele>
<time>2022-11-23T10:25:13.309Z</time>
</trkpt>
<trkpt lat="31.2313500" lon="35.3453500">
<ele>29.389999</ele>
<time>2022-11-23T10:25:13.309Z</time>
</trkpt>
<trkpt lat="31.2313000" lon="35.3452800">
<ele>28.990000</ele>
<time>2022-11-23T10:25:13.309Z</time>
</trkpt>
<trkpt lat="31.2311700" lon="35.3451200">
<ele>30.570000</ele>
<time>2022-11-23T10:25:13.309Z</time>
</trkpt>
<trkpt lat="31.2307200" lon="35.3446600">
<ele>32.360001</ele>
<time>2022-11-23T10:25:13.309Z</time>
</trkpt>
<trkpt lat="31.2305800" lon="35.3444800">
<ele>32.950001</ele>
<time>2022-11-23T10:25:13.309Z</time>
</trkpt>
<trkpt lat="31.2304000" lon="35.3441900">
<ele>33.469997</ele>
<time>2022-11-23T10:25:13.309Z</time>
</trkpt>
<trkpt lat="31.2303500" lon="35.3441100">
<ele>33.939999</ele>
<time>2022-11-23T10:25:13.309Z</time>
</trkpt>
<trkpt lat="31.2301500" lon="35.3436500">
<ele>36.260002</ele>
<time>2022-11-23T10:25:13.309Z</time>
</trkpt>
<trkpt lat="31.2301100" lon="35.3435700">
<ele>36.570000</ele>
<time>2022-11-23T10:25:13.309Z</time>
</trkpt>
<trkpt lat="31.2300200" lon="35.3434500">
<ele>37.150002</ele>
<time>2022-11-23T10:25:13.309Z</time>
</trkpt>
<trkpt lat="31.2299600" lon="35.3433800">
<ele>37.809998</ele>
<time>2022-11-23T10:25:13.309Z</time>
</trkpt>
<trkpt lat="31.2299000" lon="35.3433200">
<ele>38.360001</ele>
<time>2022-11-23T10:25:13.309Z</time>
</trkpt>
<trkpt lat="31.2297800" lon="35.3431500">
<ele>38.790001</ele>
<time>2022-11-23T10:25:13.309Z</time>
</trkpt>
<trkpt lat="31.2295400" lon="35.3426500">
<ele>39.220001</ele>
<time>2022-11-23T10:25:13.309Z</time>
</trkpt>
<trkpt lat="31.2294600" lon="35.3424600">
<ele>37.340000</ele>
<time>2022-11-23T10:25:13.309Z</time>
</trkpt>
<trkpt lat="31.2294000" lon="35.3422400">
<ele>37.130001</ele>
<time>2022-11-23T10:25:13.309Z</time>
</trkpt>
<trkpt lat="31.2293600" lon="35.3420000">
<ele>36.020000</ele>
<time>2022-11-23T10:25:13.309Z</time>
</trkpt>
<trkpt lat="31.2292300" lon="35.3413300">
<ele>36.720001</ele>
<time>2022-11-23T10:25:13.309Z</time>
</trkpt>
<trkpt lat="31.2291800" lon="35.3410800">
<ele>37.360001</ele>
<time>2022-11-23T10:25:13.309Z</time>
</trkpt>
<trkpt lat="31.2291600" lon="35.3404900">
<ele>40.250000</ele>
<time>2022-11-23T10:25:13.309Z</time>
</trkpt>
<trkpt lat="31.2291200" lon="35.3402900">
<ele>40.960003</ele>
<time>2022-11-23T10:25:13.309Z</time>
</trkpt>
<trkpt lat="31.2290500" lon="35.3400900">
<ele>40.610001</ele>
<time>2022-11-23T10:25:13.309Z</time>
</trkpt>
<trkpt lat="31.2290100" lon="35.3399200">
<ele>40.239998</ele>
<time>2022-11-23T10:25:13.309Z</time>
</trkpt>
<trkpt lat="31.2290200" lon="35.3396100">
<ele>39.070000</ele>
<time>2022-11-23T10:25:13.309Z</time>
</trkpt>
<trkpt lat="31.2290100" lon="35.3392200">
<ele>38.540001</ele>
<time>2022-11-23T10:25:13.309Z</time>
</trkpt>
<trkpt lat="31.2289700" lon="35.3388200">
<ele>41.029999</ele>
<time>2022-11-23T10:25:13.309Z</time>
</trkpt>
<trkpt lat="31.2294100" lon="35.3376300">
<ele>42.570000</ele>
<time>2022-11-23T10:25:13.309Z</time>
</trkpt>
<trkpt lat="31.2293300" lon="35.3371400">
<ele>35.400002</ele>
<time>2022-11-23T10:25:13.309Z</time>
</trkpt>
<trkpt lat="31.2294600" lon="35.3366000">
<ele>34.070000</ele>
<time>2022-11-23T10:25:13.309Z</time>
</trkpt>
<trkpt lat="31.2296700" lon="35.3370100">
<ele>34.989998</ele>
<time>2022-11-23T10:25:13.309Z</time>
</trkpt>
<trkpt lat="31.2300000" lon="35.3371600">
<ele>30.780001</ele>
<time>2022-11-23T10:25:13.309Z</time>
</trkpt>
<trkpt lat="31.2303100" lon="35.3374000">
<ele>30.160002</ele>
<time>2022-11-23T10:25:13.309Z</time>
</trkpt>
<trkpt lat="31.2306000" lon="35.3374700">
<ele>29.340000</ele>
<time>2022-11-23T10:25:13.309Z</time>
</trkpt>
<trkpt lat="31.2310400" lon="35.3375200">
<ele>25.490000</ele>
<time>2022-11-23T10:25:13.309Z</time>
</trkpt>
<trkpt lat="31.2311600" lon="35.3375700">
<ele>24.959999</ele>
<time>2022-11-23T10:25:13.309Z</time>
</trkpt>
<trkpt lat="31.2312800" lon="35.3376700">
<ele>24.629999</ele>
<time>2022-11-23T10:25:13.309Z</time>
</trkpt>
<trkpt lat="31.2314200" lon="35.3376600">
<ele>24.410000</ele>
<time>2022-11-23T10:25:13.309Z</time>
</trkpt>
<trkpt lat="31.2315500" lon="35.3375800">
<ele>24.959999</ele>
<time>2022-11-23T10:25:13.310Z</time>
</trkpt>
<trkpt lat="31.2317500" lon="35.3375300">
<ele>25.379999</ele>
<time>2022-11-23T10:25:13.310Z</time>
</trkpt>
<trkpt lat="31.2319700" lon="35.3376000">
<ele>23.829998</ele>
<time>2022-11-23T10:25:13.310Z</time>
</trkpt>
<trkpt lat="31.2319300" lon="35.3375800">
<ele>24.190001</ele>
<time>2022-11-23T10:25:13.310Z</time>
</trkpt>
<trkpt lat="31.2321700" lon="35.3378500">
<ele>20.509998</ele>
<time>2022-11-23T10:25:13.310Z</time>
</trkpt>
<trkpt lat="31.2323300" lon="35.3381900">
<ele>18.780001</ele>
<time>2022-11-23T10:25:13.310Z</time>
</trkpt>
<trkpt lat="31.2325500" lon="35.3383700">
<ele>20.900002</ele>
<time>2022-11-23T10:25:13.310Z</time>
</trkpt>
<trkpt lat="31.2326300" lon="35.3383200">
<ele>22.320000</ele>
<time>2022-11-23T10:25:13.310Z</time>
</trkpt>
<trkpt lat="31.2328500" lon="35.3383100">
<ele>24.920000</ele>
<time>2022-11-23T10:25:13.310Z</time>
</trkpt>
<trkpt lat="31.2330600" lon="35.3385700">
<ele>24.180000</ele>
<time>2022-11-23T10:25:13.310Z</time>
</trkpt>
<trkpt lat="31.2329300" lon="35.3388900">
<ele>25.000000</ele>
<time>2022-11-23T10:25:13.310Z</time>
</trkpt>
<trkpt lat="31.2329100" lon="35.3391700">
<ele>25.020000</ele>
<time>2022-11-23T10:25:13.310Z</time>
</trkpt>
<trkpt lat="31.2329700" lon="35.3395700">
<ele>25.860001</ele>
<time>2022-11-23T10:25:13.310Z</time>
</trkpt>
<trkpt lat="31.2330600" lon="35.3397500">
<ele>24.469999</ele>
<time>2022-11-23T10:25:13.310Z</time>
</trkpt>
<trkpt lat="31.2331700" lon="35.3399600">
<ele>19.900000</ele>
<time>2022-11-23T10:25:13.310Z</time>
</trkpt>
<trkpt lat="31.2334400" lon="35.3397800">
<ele>22.200001</ele>
<time>2022-11-23T10:25:13.310Z</time>
</trkpt>
<trkpt lat="31.2336100" lon="35.3396300">
<ele>23.660000</ele>
<time>2022-11-23T10:25:13.310Z</time>
</trkpt>
<trkpt lat="31.2338300" lon="35.3397400">
<ele>24.549999</ele>
<time>2022-11-23T10:25:13.310Z</time>
</trkpt>
<trkpt lat="31.2341300" lon="35.3398800">
<ele>28.969999</ele>
<time>2022-11-23T10:25:13.310Z</time>
</trkpt>
<trkpt lat="31.2343600" lon="35.3399000">
<ele>31.920000</ele>
<time>2022-11-23T10:25:13.310Z</time>
</trkpt>
<trkpt lat="31.2344800" lon="35.3397500">
<ele>31.270000</ele>
<time>2022-11-23T10:25:13.310Z</time>
</trkpt>
<trkpt lat="31.2347800" lon="35.3395800">
<ele>29.980000</ele>
<time>2022-11-23T10:25:13.310Z</time>
</trkpt>
<trkpt lat="31.2348800" lon="35.3397100">
<ele>30.390001</ele>
<time>2022-11-23T10:25:13.310Z</time>
</trkpt>
<trkpt lat="31.2350200" lon="35.3397500">
<ele>30.369999</ele>
<time>2022-11-23T10:25:13.310Z</time>
</trkpt>
<trkpt lat="31.2351600" lon="35.3396700">
<ele>32.410000</ele>
<time>2022-11-23T10:25:13.310Z</time>
</trkpt>
<trkpt lat="31.2353700" lon="35.3393600">
<ele>36.689999</ele>
<time>2022-11-23T10:25:13.310Z</time>
</trkpt>
<trkpt lat="31.2355200" lon="35.3390600">
<ele>36.080002</ele>
<time>2022-11-23T10:25:13.310Z</time>
</trkpt>
<trkpt lat="31.2356000" lon="35.3386100">
<ele>31.040001</ele>
<time>2022-11-23T10:25:13.310Z</time>
</trkpt>
<trkpt lat="31.2356900" lon="35.3385000">
<ele>29.480001</ele>
<time>2022-11-23T10:25:13.310Z</time>
</trkpt>
<trkpt lat="31.2360000" lon="35.3382900">
<ele>25.559999</ele>
<time>2022-11-23T10:25:13.311Z</time>
</trkpt>
<trkpt lat="31.2364300" lon="35.3379700">
<ele>27.360001</ele>
<time>2022-11-23T10:25:13.311Z</time>
</trkpt>
<trkpt lat="31.2367900" lon="35.3378100">
<ele>31.230001</ele>
<time>2022-11-23T10:25:13.311Z</time>
</trkpt>
<trkpt lat="31.2370200" lon="35.3376400">
<ele>32.270000</ele>
<time>2022-11-23T10:25:13.311Z</time>
</trkpt>
<trkpt lat="31.2370800" lon="35.3375500">
<ele>32.820000</ele>
<time>2022-11-23T10:25:13.311Z</time>
</trkpt>
<trkpt lat="31.2373200" lon="35.3373400">
<ele>32.930000</ele>
<time>2022-11-23T10:25:13.311Z</time>
</trkpt>
<trkpt lat="31.2376600" lon="35.3375500">
<ele>35.049999</ele>
<time>2022-11-23T10:25:13.311Z</time>
</trkpt>
<trkpt lat="31.2384600" lon="35.3373100">
<ele>25.389999</ele>
<time>2022-11-23T10:25:13.311Z</time>
</trkpt>
<trkpt lat="31.2383700" lon="35.3374500">
<ele>24.169998</ele>
<time>2022-11-23T10:25:13.311Z</time>
</trkpt>
<trkpt lat="31.2377800" lon="35.3378200">
<ele>34.709999</ele>
<time>2022-11-23T10:25:13.311Z</time>
</trkpt>
<trkpt lat="31.2373100" lon="35.3381100">
<ele>38.459999</ele>
<time>2022-11-23T10:25:13.311Z</time>
</trkpt>
<trkpt lat="31.2372100" lon="35.3383200">
<ele>37.730000</ele>
<time>2022-11-23T10:25:13.311Z</time>
</trkpt>
<trkpt lat="31.2373600" lon="35.3384100">
<ele>39.849998</ele>
<time>2022-11-23T10:25:13.311Z</time>
</trkpt>
<trkpt lat="31.2375500" lon="35.3383000">
<ele>41.360001</ele>
<time>2022-11-23T10:25:13.311Z</time>
</trkpt>
<trkpt lat="31.2378200" lon="35.3380700">
<ele>38.259998</ele>
<time>2022-11-23T10:25:13.311Z</time>
</trkpt>
<trkpt lat="31.2385900" lon="35.3377400">
<ele>24.220001</ele>
<time>2022-11-23T10:25:13.311Z</time>
</trkpt>
<trkpt lat="31.2389200" lon="35.3378200">
<ele>25.110001</ele>
<time>2022-11-23T10:25:13.311Z</time>
</trkpt>
<trkpt lat="31.2393300" lon="35.3377600">
<ele>24.199999</ele>
<time>2022-11-23T10:25:13.311Z</time>
</trkpt>
<trkpt lat="31.2397600" lon="35.3378700">
<ele>17.680000</ele>
<time>2022-11-23T10:25:13.311Z</time>
</trkpt>
<trkpt lat="31.2399900" lon="35.3379400">
<ele>16.639999</ele>
<time>2022-11-23T10:25:13.311Z</time>
</trkpt>
<trkpt lat="31.2399900" lon="35.3379400">
<ele>16.639999</ele>
<time>2022-11-23T10:25:13.311Z</time>
</trkpt>
<trkpt lat="31.2399900" lon="35.3379400">
<ele>16.639999</ele>
<time>2022-11-23T10:25:13.311Z</time>
</trkpt>
<trkpt lat="31.2401000" lon="35.3379700">
<ele>18.500000</ele>
<time>2022-11-23T10:25:13.311Z</time>
</trkpt>
<trkpt lat="31.2404400" lon="35.3380600">
<ele>23.300001</ele>
<time>2022-11-23T10:25:13.311Z</time>
</trkpt>
<trkpt lat="31.2408000" lon="35.3380900">
<ele>21.990000</ele>
<time>2022-11-23T10:25:13.311Z</time>
</trkpt>
<trkpt lat="31.2412700" lon="35.3379000">
<ele>15.640000</ele>
<time>2022-11-23T10:25:13.311Z</time>
</trkpt>
<trkpt lat="31.2415500" lon="35.3378600">
<ele>17.870001</ele>
<time>2022-11-23T10:25:13.311Z</time>
</trkpt>
<trkpt lat="31.2418000" lon="35.3378200">
<ele>21.580000</ele>
<time>2022-11-23T10:25:13.311Z</time>
</trkpt>
<trkpt lat="31.2419000" lon="35.3379800">
<ele>21.110001</ele>
<time>2022-11-23T10:25:13.311Z</time>
</trkpt>
<trkpt lat="31.2418000" lon="35.3383100">
<ele>19.920000</ele>
<time>2022-11-23T10:25:13.312Z</time>
</trkpt>
<trkpt lat="31.2420400" lon="35.3384100">
<ele>22.529999</ele>
<time>2022-11-23T10:25:13.312Z</time>
</trkpt>
<trkpt lat="31.2421800" lon="35.3384200">
<ele>24.710001</ele>
<time>2022-11-23T10:25:13.312Z</time>
</trkpt>
<trkpt lat="31.2422800" lon="35.3385700">
<ele>24.710001</ele>
<time>2022-11-23T10:25:13.312Z</time>
</trkpt>
<trkpt lat="31.2423200" lon="35.3387800">
<ele>25.309999</ele>
<time>2022-11-23T10:25:13.312Z</time>
</trkpt>
<trkpt lat="31.2421300" lon="35.3389700">
<ele>23.049999</ele>
<time>2022-11-23T10:25:13.312Z</time>
</trkpt>
<trkpt lat="31.2420500" lon="35.3393400">
<ele>20.509998</ele>
<time>2022-11-23T10:25:13.312Z</time>
</trkpt>
<trkpt lat="31.2419100" lon="35.3397500">
<ele>16.139999</ele>
<time>2022-11-23T10:25:13.312Z</time>
</trkpt>
<trkpt lat="31.2420300" lon="35.3398900">
<ele>15.889999</ele>
<time>2022-11-23T10:25:13.312Z</time>
</trkpt>
<trkpt lat="31.2422600" lon="35.3399300">
<ele>19.690001</ele>
<time>2022-11-23T10:25:13.312Z</time>
</trkpt>
<trkpt lat="31.2425300" lon="35.3399800">
<ele>17.340000</ele>
<time>2022-11-23T10:25:13.312Z</time>
</trkpt>
<trkpt lat="31.2427700" lon="35.3401200">
<ele>11.850000</ele>
<time>2022-11-23T10:25:13.312Z</time>
</trkpt>
<trkpt lat="31.2429900" lon="35.3402900">
<ele>12.610000</ele>
<time>2022-11-23T10:25:13.312Z</time>
</trkpt>
<trkpt lat="31.2432300" lon="35.3408100">
<ele>9.210000</ele>
<time>2022-11-23T10:25:13.312Z</time>
</trkpt>
<trkpt lat="31.2430400" lon="35.3408800">
<ele>5.580000</ele>
<time>2022-11-23T10:25:13.312Z</time>
</trkpt>
<trkpt lat="31.2428300" lon="35.3405500">
<ele>5.840000</ele>
<time>2022-11-23T10:25:13.312Z</time>
</trkpt>
<trkpt lat="31.2425500" lon="35.3403400">
<ele>5.830000</ele>
<time>2022-11-23T10:25:13.312Z</time>
</trkpt>
<trkpt lat="31.2422000" lon="35.3402500">
<ele>8.070000</ele>
<time>2022-11-23T10:25:13.312Z</time>
</trkpt>
<trkpt lat="31.2418500" lon="35.3404700">
<ele>4.620000</ele>
<time>2022-11-23T10:25:13.312Z</time>
</trkpt>
<trkpt lat="31.2417400" lon="35.3407200">
<ele>4.280000</ele>
<time>2022-11-23T10:25:13.312Z</time>
</trkpt>
<trkpt lat="31.2417400" lon="35.3408400">
<ele>4.420000</ele>
<time>2022-11-23T10:25:13.312Z</time>
</trkpt>
<trkpt lat="31.2417400" lon="35.3409800">
<ele>3.420000</ele>
<time>2022-11-23T10:25:13.312Z</time>
</trkpt>
<trkpt lat="31.2416400" lon="35.3411800">
<ele>2.680000</ele>
<time>2022-11-23T10:25:13.312Z</time>
</trkpt>
<trkpt lat="31.2415300" lon="35.3413600">
<ele>2.050000</ele>
<time>2022-11-23T10:25:13.312Z</time>
</trkpt>
<trkpt lat="31.2415100" lon="35.3417900">
<ele>1.380000</ele>
<time>2022-11-23T10:25:13.312Z</time>
</trkpt>
<trkpt lat="31.2413100" lon="35.3420900">
<ele>-5.410000</ele>
<time>2022-11-23T10:25:13.312Z</time>
</trkpt>
<trkpt lat="31.2413800" lon="35.3422300">
<ele>-4.720000</ele>
<time>2022-11-23T10:25:13.313Z</time>
</trkpt>
<trkpt lat="31.2416400" lon="35.3423300">
<ele>1.880000</ele>
<time>2022-11-23T10:25:13.313Z</time>
</trkpt>
<trkpt lat="31.2417500" lon="35.3426000">
<ele>-0.660000</ele>
<time>2022-11-23T10:25:13.313Z</time>
</trkpt>
<trkpt lat="31.2417600" lon="35.3428900">
<ele>-3.980000</ele>
<time>2022-11-23T10:25:13.313Z</time>
</trkpt>
<trkpt lat="31.2416900" lon="35.3432400">
<ele>-11.540000</ele>
<time>2022-11-23T10:25:13.314Z</time>
</trkpt>
<trkpt lat="31.2417200" lon="35.3433000">
<ele>-11.770000</ele>
<time>2022-11-23T10:25:13.314Z</time>
</trkpt>
<trkpt lat="31.2417200" lon="35.3433000">
<ele>-11.770000</ele>
<time>2022-11-23T10:25:13.314Z</time>
</trkpt>
<trkpt lat="31.2418300" lon="35.3435100">
<ele>-15.209999</ele>
<time>2022-11-23T10:25:13.314Z</time>
</trkpt>
<trkpt lat="31.2420600" lon="35.3436600">
<ele>-11.920000</ele>
<time>2022-11-23T10:25:13.314Z</time>
</trkpt>
<trkpt lat="31.2422800" lon="35.3437500">
<ele>-7.750000</ele>
<time>2022-11-23T10:25:13.314Z</time>
</trkpt>
<trkpt lat="31.2424400" lon="35.3438500">
<ele>-4.450000</ele>
<time>2022-11-23T10:25:13.314Z</time>
</trkpt>
<trkpt lat="31.2426800" lon="35.3441600">
<ele>-5.890000</ele>
<time>2022-11-23T10:25:13.314Z</time>
</trkpt>
<trkpt lat="31.2427700" lon="35.3444000">
<ele>-8.670000</ele>
<time>2022-11-23T10:25:13.314Z</time>
</trkpt>
<trkpt lat="31.2427100" lon="35.3445700">
<ele>-9.660000</ele>
<time>2022-11-23T10:25:13.314Z</time>
</trkpt>
<trkpt lat="31.2425600" lon="35.3446200">
<ele>-11.969999</ele>
<time>2022-11-23T10:25:13.314Z</time>
</trkpt>
<trkpt lat="31.2424300" lon="35.3448700">
<ele>-25.039999</ele>
<time>2022-11-23T10:25:13.314Z</time>
</trkpt>
<trkpt lat="31.2424600" lon="35.3449500">
<ele>-26.189999</ele>
<time>2022-11-23T10:25:13.314Z</time>
</trkpt>
<trkpt lat="31.2426500" lon="35.3447500">
<ele>-12.490001</ele>
<time>2022-11-23T10:25:13.314Z</time>
</trkpt>
<trkpt lat="31.2426000" lon="35.3450300">
<ele>-21.609999</ele>
<time>2022-11-23T10:25:13.314Z</time>
</trkpt>
<trkpt lat="31.2430500" lon="35.3447500">
<ele>-10.090000</ele>
<time>2022-11-23T10:25:13.314Z</time>
</trkpt>
<trkpt lat="31.2429100" lon="35.3450600">
<ele>-13.230000</ele>
<time>2022-11-23T10:25:13.314Z</time>
</trkpt>
<trkpt lat="31.2429200" lon="35.3452700">
<ele>-15.360000</ele>
<time>2022-11-23T10:25:13.314Z</time>
</trkpt>
<trkpt lat="31.2433800" lon="35.3451100">
<ele>-15.070000</ele>
<time>2022-11-23T10:25:13.314Z</time>
</trkpt>
<trkpt lat="31.2436200" lon="35.3450900">
<ele>-15.340000</ele>
<time>2022-11-23T10:25:13.314Z</time>
</trkpt>
<trkpt lat="31.2437000" lon="35.3450800">
<ele>-15.470000</ele>
<time>2022-11-23T10:25:13.314Z</time>
</trkpt>
<trkpt lat="31.2438600" lon="35.3451200">
<ele>-16.210001</ele>
<time>2022-11-23T10:25:13.314Z</time>
</trkpt>
<trkpt lat="31.2439300" lon="35.3453300">
<ele>-18.629999</ele>
<time>2022-11-23T10:25:13.314Z</time>
</trkpt>
<trkpt lat="31.2439700" lon="35.3454300">
<ele>-19.420000</ele>
<time>2022-11-23T10:25:13.314Z</time>
</trkpt>
<trkpt lat="31.2439200" lon="35.3456400">
<ele>-19.299999</ele>
<time>2022-11-23T10:25:13.314Z</time>
</trkpt>
<trkpt lat="31.2438900" lon="35.3457200">
<ele>-19.010000</ele>
<time>2022-11-23T10:25:13.314Z</time>
</trkpt>
<trkpt lat="31.2438700" lon="35.3458300">
<ele>-18.860001</ele>
<time>2022-11-23T10:25:13.314Z</time>
</trkpt>
<trkpt lat="31.2437800" lon="35.3459300">
<ele>-17.930000</ele>
<time>2022-11-23T10:25:13.314Z</time>
</trkpt>
<trkpt lat="31.2437800" lon="35.3459300">
<ele>-17.930000</ele>
<time>2022-11-23T10:25:13.314Z</time>
</trkpt>
<trkpt lat="31.2438900" lon="35.3462400">
<ele>-17.460001</ele>
<time>2022-11-23T10:25:13.314Z</time>
</trkpt>
<trkpt lat="31.2441400" lon="35.3463600">
<ele>-14.660001</ele>
<time>2022-11-23T10:25:13.315Z</time>
</trkpt>
<trkpt lat="31.2443600" lon="35.3464000">
<ele>-15.560000</ele>
<time>2022-11-23T10:25:13.315Z</time>
</trkpt>
<trkpt lat="31.2445000" lon="35.3463800">
<ele>-17.039999</ele>
<time>2022-11-23T10:25:13.315Z</time>
</trkpt>
<trkpt lat="31.2447300" lon="35.3465100">
<ele>-21.539999</ele>
<time>2022-11-23T10:25:13.315Z</time>
</trkpt>
<trkpt lat="31.2449800" lon="35.3466800">
<ele>-24.790001</ele>
<time>2022-11-23T10:25:13.315Z</time>
</trkpt>
<trkpt lat="31.2450100" lon="35.3468000">
<ele>-25.020000</ele>
<time>2022-11-23T10:25:13.315Z</time>
</trkpt>
<trkpt lat="31.2451600" lon="35.3468600">
<ele>-25.180000</ele>
<time>2022-11-23T10:25:13.315Z</time>
</trkpt>
<trkpt lat="31.2451600" lon="35.3468600">
<ele>-25.180000</ele>
<time>2022-11-23T10:25:13.315Z</time>
</trkpt>
<trkpt lat="31.2453700" lon="35.3469200">
<ele>-25.420000</ele>
<time>2022-11-23T10:25:13.315Z</time>
</trkpt>
<trkpt lat="31.2454800" lon="35.3470400">
<ele>-25.039999</ele>
<time>2022-11-23T10:25:13.315Z</time>
</trkpt>
<trkpt lat="31.2455300" lon="35.3472200">
<ele>-23.920000</ele>
<time>2022-11-23T10:25:13.315Z</time>
</trkpt>
<trkpt lat="31.2454800" lon="35.3474100">
<ele>-23.049999</ele>
<time>2022-11-23T10:25:13.315Z</time>
</trkpt>
<trkpt lat="31.2456600" lon="35.3476600">
<ele>-24.490000</ele>
<time>2022-11-23T10:25:13.315Z</time>
</trkpt>
<trkpt lat="31.2458600" lon="35.3478100">
<ele>-26.010000</ele>
<time>2022-11-23T10:25:13.315Z</time>
</trkpt>
<trkpt lat="31.2458900" lon="35.3480100">
<ele>-26.459999</ele>
<time>2022-11-23T10:25:13.315Z</time>
</trkpt>
<trkpt lat="31.2460800" lon="35.3482700">
<ele>-27.449999</ele>
<time>2022-11-23T10:25:13.315Z</time>
</trkpt>
<trkpt lat="31.2462800" lon="35.3483600">
<ele>-28.400000</ele>
<time>2022-11-23T10:25:13.315Z</time>
</trkpt>
<trkpt lat="31.2466800" lon="35.3484300">
<ele>-26.260000</ele>
<time>2022-11-23T10:25:13.315Z</time>
</trkpt>
<trkpt lat="31.2471600" lon="35.3484300">
<ele>-28.629999</ele>
<time>2022-11-23T10:25:13.315Z</time>
</trkpt>
<trkpt lat="31.2473400" lon="35.3487100">
<ele>-28.450001</ele>
<time>2022-11-23T10:25:13.315Z</time>
</trkpt>
<trkpt lat="31.2475200" lon="35.3492600">
<ele>-32.739998</ele>
<time>2022-11-23T10:25:13.315Z</time>
</trkpt>
<trkpt lat="31.2474000" lon="35.3494900">
<ele>-32.080002</ele>
<time>2022-11-23T10:25:13.315Z</time>
</trkpt>
<trkpt lat="31.2475700" lon="35.3496500">
<ele>-36.059998</ele>
<time>2022-11-23T10:25:13.315Z</time>
</trkpt>
<trkpt lat="31.2476400" lon="35.3497400">
<ele>-39.230000</ele>
<time>2022-11-23T10:25:13.315Z</time>
</trkpt>
<trkpt lat="31.2475700" lon="35.3498900">
<ele>-38.329998</ele>
<time>2022-11-23T10:25:13.315Z</time>
</trkpt>
<trkpt lat="31.2474200" lon="35.3499600">
<ele>-36.439999</ele>
<time>2022-11-23T10:25:13.315Z</time>
</trkpt>
<trkpt lat="31.2472800" lon="35.3498900">
<ele>-34.869999</ele>
<time>2022-11-23T10:25:13.315Z</time>
</trkpt>
<trkpt lat="31.2471400" lon="35.3497100">
<ele>-30.379999</ele>
<time>2022-11-23T10:25:13.316Z</time>
</trkpt>
<trkpt lat="31.2468100" lon="35.3497600">
<ele>-27.230001</ele>
<time>2022-11-23T10:25:13.316Z</time>
</trkpt>
<trkpt lat="31.2467900" lon="35.3498800">
<ele>-32.110001</ele>
<time>2022-11-23T10:25:13.316Z</time>
</trkpt>
<trkpt lat="31.2470500" lon="35.3499200">
<ele>-35.360001</ele>
<time>2022-11-23T10:25:13.316Z</time>
</trkpt>
<trkpt lat="31.2465600" lon="35.3499500">
<ele>-33.989998</ele>
<time>2022-11-23T10:25:13.316Z</time>
</trkpt>
<trkpt lat="31.2468000" lon="35.3501700">
<ele>-47.349998</ele>
<time>2022-11-23T10:25:13.316Z</time>
</trkpt>
<trkpt lat="31.2469900" lon="35.3502800">
<ele>-50.230000</ele>
<time>2022-11-23T10:25:13.316Z</time>
</trkpt>
<trkpt lat="31.2471400" lon="35.3503300">
<ele>-48.869999</ele>
<time>2022-11-23T10:25:13.316Z</time>
</trkpt>
<trkpt lat="31.2472900" lon="35.3503800">
<ele>-48.520000</ele>
<time>2022-11-23T10:25:13.316Z</time>
</trkpt>
<trkpt lat="31.2472900" lon="35.3503800">
<ele>-48.520000</ele>
<time>2022-11-23T10:25:13.316Z</time>
</trkpt>
<trkpt lat="31.2472900" lon="35.3503800">
<ele>-48.520000</ele>
<time>2022-11-23T10:25:13.316Z</time>
</trkpt>
<trkpt lat="31.2473900" lon="35.3504600">
<ele>-49.849998</ele>
<time>2022-11-23T10:25:13.316Z</time>
</trkpt>
<trkpt lat="31.2476200" lon="35.3504300">
<ele>-48.480000</ele>
<time>2022-11-23T10:25:13.316Z</time>
</trkpt>
<trkpt lat="31.2478600" lon="35.3503000">
<ele>-47.760002</ele>
<time>2022-11-23T10:25:13.316Z</time>
</trkpt>
<trkpt lat="31.2480000" lon="35.3502400">
<ele>-50.239998</ele>
<time>2022-11-23T10:25:13.316Z</time>
</trkpt>
<trkpt lat="31.2477900" lon="35.3506100">
<ele>-51.769997</ele>
<time>2022-11-23T10:25:13.316Z</time>
</trkpt>
<trkpt lat="31.2479000" lon="35.3506300">
<ele>-51.840000</ele>
<time>2022-11-23T10:25:13.316Z</time>
</trkpt>
<trkpt lat="31.2483100" lon="35.3506500">
<ele>-55.970001</ele>
<time>2022-11-23T10:25:13.316Z</time>
</trkpt>
<trkpt lat="31.2482600" lon="35.3508200">
<ele>-57.250000</ele>
<time>2022-11-23T10:25:13.316Z</time>
</trkpt>
<trkpt lat="31.2478200" lon="35.3508100">
<ele>-54.389999</ele>
<time>2022-11-23T10:25:13.316Z</time>
</trkpt>
<trkpt lat="31.2477700" lon="35.3509000">
<ele>-55.020000</ele>
<time>2022-11-23T10:25:13.316Z</time>
</trkpt>
<trkpt lat="31.2481600" lon="35.3511400">
<ele>-57.820000</ele>
<time>2022-11-23T10:25:13.316Z</time>
</trkpt>
<trkpt lat="31.2483600" lon="35.3514400">
<ele>-63.879997</ele>
<time>2022-11-23T10:25:13.316Z</time>
</trkpt>
<trkpt lat="31.2486000" lon="35.3513700">
<ele>-65.610001</ele>
<time>2022-11-23T10:25:13.316Z</time>
</trkpt>
<trkpt lat="31.2487500" lon="35.3512400">
<ele>-65.050003</ele>
<time>2022-11-23T10:25:13.316Z</time>
</trkpt>
<trkpt lat="31.2488800" lon="35.3511100">
<ele>-62.969997</ele>
<time>2022-11-23T10:25:13.316Z</time>
</trkpt>
<trkpt lat="31.2489700" lon="35.3510100">
<ele>-62.500000</ele>
<time>2022-11-23T10:25:13.316Z</time>
</trkpt>
<trkpt lat="31.2492000" lon="35.3509000">
<ele>-59.759998</ele>
<time>2022-11-23T10:25:13.317Z</time>
</trkpt>
<trkpt lat="31.2491400" lon="35.3512000">
<ele>-64.339996</ele>
<time>2022-11-23T10:25:13.317Z</time>
</trkpt>
<trkpt lat="31.2491600" lon="35.3514500">
<ele>-70.990005</ele>
<time>2022-11-23T10:25:13.317Z</time>
</trkpt>
<trkpt lat="31.2492800" lon="35.3515300">
<ele>-71.930000</ele>
<time>2022-11-23T10:25:13.317Z</time>
</trkpt>
<trkpt lat="31.2492800" lon="35.3515300">
<ele>-71.930000</ele>
<time>2022-11-23T10:25:13.317Z</time>
</trkpt>
<trkpt lat="31.2494000" lon="35.3516200">
<ele>-72.570000</ele>
<time>2022-11-23T10:25:13.317Z</time>
</trkpt>
<trkpt lat="31.2494900" lon="35.3515800">
<ele>-70.040001</ele>
<time>2022-11-23T10:25:13.317Z</time>
</trkpt>
<trkpt lat="31.2496200" lon="35.3514400">
<ele>-65.559998</ele>
<time>2022-11-23T10:25:13.317Z</time>
</trkpt>
<trkpt lat="31.2496600" lon="35.3512400">
<ele>-60.750000</ele>
<time>2022-11-23T10:25:13.317Z</time>
</trkpt>
<trkpt lat="31.2498100" lon="35.3511600">
<ele>-58.889999</ele>
<time>2022-11-23T10:25:13.317Z</time>
</trkpt>
<trkpt lat="31.2502600" lon="35.3514000">
<ele>-62.760002</ele>
<time>2022-11-23T10:25:13.317Z</time>
</trkpt>
<trkpt lat="31.2505600" lon="35.3513400">
<ele>-55.639999</ele>
<time>2022-11-23T10:25:13.317Z</time>
</trkpt>
<trkpt lat="31.2508300" lon="35.3512700">
<ele>-55.000000</ele>
<time>2022-11-23T10:25:13.317Z</time>
</trkpt>
<trkpt lat="31.2512200" lon="35.3511800">
<ele>-56.559998</ele>
<time>2022-11-23T10:25:13.317Z</time>
</trkpt>
<trkpt lat="31.2515900" lon="35.3511200">
<ele>-52.100002</ele>
<time>2022-11-23T10:25:13.317Z</time>
</trkpt>
<trkpt lat="31.2518300" lon="35.3509800">
<ele>-50.130001</ele>
<time>2022-11-23T10:25:13.317Z</time>
</trkpt>
<trkpt lat="31.2521400" lon="35.3508600">
<ele>-49.440002</ele>
<time>2022-11-23T10:25:13.317Z</time>
</trkpt>
<trkpt lat="31.2523900" lon="35.3507500">
<ele>-48.339996</ele>
<time>2022-11-23T10:25:13.317Z</time>
</trkpt>
<trkpt lat="31.2526400" lon="35.3506900">
<ele>-48.549999</ele>
<time>2022-11-23T10:25:13.317Z</time>
</trkpt>
<trkpt lat="31.2528500" lon="35.3506200">
<ele>-49.040001</ele>
<time>2022-11-23T10:25:13.317Z</time>
</trkpt>
<trkpt lat="31.2531300" lon="35.3505400">
<ele>-48.750000</ele>
<time>2022-11-23T10:25:13.317Z</time>
</trkpt>
<trkpt lat="31.2534100" lon="35.3505700">
<ele>-48.350002</ele>
<time>2022-11-23T10:25:13.317Z</time>
</trkpt>
<trkpt lat="31.2536500" lon="35.3507100">
<ele>-52.160004</ele>
<time>2022-11-23T10:25:13.317Z</time>
</trkpt>
<trkpt lat="31.2537600" lon="35.3509200">
<ele>-55.340000</ele>
<time>2022-11-23T10:25:13.317Z</time>
</trkpt>
<trkpt lat="31.2537600" lon="35.3509200">
<ele>-55.340000</ele>
<time>2022-11-23T10:25:13.317Z</time>
</trkpt>
<trkpt lat="31.2539000" lon="35.3511600">
<ele>-58.699997</ele>
<time>2022-11-23T10:25:13.317Z</time>
</trkpt>
<trkpt lat="31.2541600" lon="35.3511800">
<ele>-59.720001</ele>
<time>2022-11-23T10:25:13.318Z</time>
</trkpt>
<trkpt lat="31.2543800" lon="35.3512400">
<ele>-62.199997</ele>
<time>2022-11-23T10:25:13.318Z</time>
</trkpt>
<trkpt lat="31.2546500" lon="35.3511300">
<ele>-64.430000</ele>
<time>2022-11-23T10:25:13.318Z</time>
</trkpt>
<trkpt lat="31.2548600" lon="35.3511100">
<ele>-65.980003</ele>
<time>2022-11-23T10:25:13.318Z</time>
</trkpt>
<trkpt lat="31.2550200" lon="35.3511700">
<ele>-66.529999</ele>
<time>2022-11-23T10:25:13.318Z</time>
</trkpt>
<trkpt lat="31.2550900" lon="35.3513300">
<ele>-65.610001</ele>
<time>2022-11-23T10:25:13.318Z</time>
</trkpt>
<trkpt lat="31.2550900" lon="35.3515900">
<ele>-64.599998</ele>
<time>2022-11-23T10:25:13.318Z</time>
</trkpt>
<trkpt lat="31.2550300" lon="35.3517900">
<ele>-63.660000</ele>
<time>2022-11-23T10:25:13.318Z</time>
</trkpt>
<trkpt lat="31.2548900" lon="35.3519800">
<ele>-61.869999</ele>
<time>2022-11-23T10:25:13.318Z</time>
</trkpt>
<trkpt lat="31.2547400" lon="35.3520700">
<ele>-60.200001</ele>
<time>2022-11-23T10:25:13.318Z</time>
</trkpt>
<trkpt lat="31.2545500" lon="35.3522000">
<ele>-58.539997</ele>
<time>2022-11-23T10:25:13.318Z</time>
</trkpt>
<trkpt lat="31.2544200" lon="35.3523800">
<ele>-58.260002</ele>
<time>2022-11-23T10:25:13.318Z</time>
</trkpt>
<trkpt lat="31.2542800" lon="35.3525500">
<ele>-59.699997</ele>
<time>2022-11-23T10:25:13.318Z</time>
</trkpt>
<trkpt lat="31.2541600" lon="35.3527000">
<ele>-61.020000</ele>
<time>2022-11-23T10:25:13.318Z</time>
</trkpt>
<trkpt lat="31.2542200" lon="35.3529000">
<ele>-59.439999</ele>
<time>2022-11-23T10:25:13.318Z</time>
</trkpt>
<trkpt lat="31.2542000" lon="35.3530200">
<ele>-58.880001</ele>
<time>2022-11-23T10:25:13.318Z</time>
</trkpt>
<trkpt lat="31.2541800" lon="35.3532100">
<ele>-58.939999</ele>
<time>2022-11-23T10:25:13.318Z</time>
</trkpt>
<trkpt lat="31.2541000" lon="35.3532900">
<ele>-59.680000</ele>
<time>2022-11-23T10:25:13.318Z</time>
</trkpt>
<trkpt lat="31.2539800" lon="35.3532400">
<ele>-60.790001</ele>
<time>2022-11-23T10:25:13.318Z</time>
</trkpt>
<trkpt lat="31.2539500" lon="35.3531300">
<ele>-60.770000</ele>
<time>2022-11-23T10:25:13.318Z</time>
</trkpt>
<trkpt lat="31.2539100" lon="35.3529600">
<ele>-61.219997</ele>
<time>2022-11-23T10:25:13.318Z</time>
</trkpt>
<trkpt lat="31.2538400" lon="35.3528500">
<ele>-62.620003</ele>
<time>2022-11-23T10:25:13.318Z</time>
</trkpt>
<trkpt lat="31.2537900" lon="35.3528000">
<ele>-63.700001</ele>
<time>2022-11-23T10:25:13.318Z</time>
</trkpt>
<trkpt lat="31.2537100" lon="35.3527700">
<ele>-65.180000</ele>
<time>2022-11-23T10:25:13.318Z</time>
</trkpt>
<trkpt lat="31.2536800" lon="35.3528600">
<ele>-65.459999</ele>
<time>2022-11-23T10:25:13.318Z</time>
</trkpt>
<trkpt lat="31.2536600" lon="35.3529800">
<ele>-65.389999</ele>
<time>2022-11-23T10:25:13.318Z</time>
</trkpt>
<trkpt lat="31.2536400" lon="35.3531100">
<ele>-65.500000</ele>
<time>2022-11-23T10:25:13.318Z</time>
</trkpt>
<trkpt lat="31.2535500" lon="35.3532500">
<ele>-66.529999</ele>
<time>2022-11-23T10:25:13.318Z</time>
</trkpt>
<trkpt lat="31.2534000" lon="35.3533700">
<ele>-68.410004</ele>
<time>2022-11-23T10:25:13.318Z</time>
</trkpt>
<trkpt lat="31.2531900" lon="35.3536200">
<ele>-71.650002</ele>
<time>2022-11-23T10:25:13.318Z</time>
</trkpt>
<trkpt lat="31.2529700" lon="35.3537500">
<ele>-73.769997</ele>
<time>2022-11-23T10:25:13.318Z</time>
</trkpt>
<trkpt lat="31.2527300" lon="35.3537700">
<ele>-70.870003</ele>
<time>2022-11-23T10:25:13.318Z</time>
</trkpt>
<trkpt lat="31.2526800" lon="35.3539300">
<ele>-72.639999</ele>
<time>2022-11-23T10:25:13.318Z</time>
</trkpt>
<trkpt lat="31.2528100" lon="35.3539500">
<ele>-73.830002</ele>
<time>2022-11-23T10:25:13.319Z</time>
</trkpt>
<trkpt lat="31.2529800" lon="35.3540200">
<ele>-75.830002</ele>
<time>2022-11-23T10:25:13.319Z</time>
</trkpt>
<trkpt lat="31.2530900" lon="35.3539700">
<ele>-76.159996</ele>
<time>2022-11-23T10:25:13.319Z</time>
</trkpt>
<trkpt lat="31.2531800" lon="35.3540100">
<ele>-74.709999</ele>
<time>2022-11-23T10:25:13.319Z</time>
</trkpt>
<trkpt lat="31.2531900" lon="35.3540900">
<ele>-74.559998</ele>
<time>2022-11-23T10:25:13.319Z</time>
</trkpt>
<trkpt lat="31.2531000" lon="35.3544500">
<ele>-77.690002</ele>
<time>2022-11-23T10:25:13.319Z</time>
</trkpt>
<trkpt lat="31.2530400" lon="35.3546600">
<ele>-77.920006</ele>
<time>2022-11-23T10:25:13.319Z</time>
</trkpt>
<trkpt lat="31.2529400" lon="35.3548500">
<ele>-80.150002</ele>
<time>2022-11-23T10:25:13.319Z</time>
</trkpt>
<trkpt lat="31.2528500" lon="35.3549500">
<ele>-81.570000</ele>
<time>2022-11-23T10:25:13.319Z</time>
</trkpt>
<trkpt lat="31.2528300" lon="35.3550900">
<ele>-84.909996</ele>
<time>2022-11-23T10:25:13.319Z</time>
</trkpt>
<trkpt lat="31.2528700" lon="35.3552600">
<ele>-89.840004</ele>
<time>2022-11-23T10:25:13.319Z</time>
</trkpt>
<trkpt lat="31.2532400" lon="35.3551800">
<ele>-89.000000</ele>
<time>2022-11-23T10:25:13.319Z</time>
</trkpt>
<trkpt lat="31.2535300" lon="35.3551300">
<ele>-88.009995</ele>
<time>2022-11-23T10:25:13.319Z</time>
</trkpt>
<trkpt lat="31.2536400" lon="35.3552800">
<ele>-90.119995</ele>
<time>2022-11-23T10:25:13.319Z</time>
</trkpt>
<trkpt lat="31.2536000" lon="35.3556200">
<ele>-92.450005</ele>
<time>2022-11-23T10:25:13.319Z</time>
</trkpt>
<trkpt lat="31.2535900" lon="35.3557500">
<ele>-93.350006</ele>
<time>2022-11-23T10:25:13.319Z</time>
</trkpt>
<trkpt lat="31.2536600" lon="35.3557800">
<ele>-93.789993</ele>
<time>2022-11-23T10:25:13.319Z</time>
</trkpt>
<trkpt lat="31.2537400" lon="35.3557000">
<ele>-93.500008</ele>
<time>2022-11-23T10:25:13.319Z</time>
</trkpt>
<trkpt lat="31.2539100" lon="35.3555700">
<ele>-93.250000</ele>
<time>2022-11-23T10:25:13.319Z</time>
</trkpt>
<trkpt lat="31.2540700" lon="35.3555000">
<ele>-93.900002</ele>
<time>2022-11-23T10:25:13.319Z</time>
</trkpt>
<trkpt lat="31.2543000" lon="35.3555100">
<ele>-95.149994</ele>
<time>2022-11-23T10:25:13.319Z</time>
</trkpt>
<trkpt lat="31.2545400" lon="35.3554300">
<ele>-95.439995</ele>
<time>2022-11-23T10:25:13.319Z</time>
</trkpt>
<trkpt lat="31.2546200" lon="35.3553600">
<ele>-95.220001</ele>
<time>2022-11-23T10:25:13.319Z</time>
</trkpt>
<trkpt lat="31.2547000" lon="35.3553700">
<ele>-95.580002</ele>
<time>2022-11-23T10:25:13.319Z</time>
</trkpt>
<trkpt lat="31.2549200" lon="35.3554400">
<ele>-99.310005</ele>
<time>2022-11-23T10:25:13.319Z</time>
</trkpt>
<trkpt lat="31.2553400" lon="35.3551900">
<ele>-97.630005</ele>
<time>2022-11-23T10:25:13.319Z</time>
</trkpt>
<trkpt lat="31.2553800" lon="35.3550600">
<ele>-97.050003</ele>
<time>2022-11-23T10:25:13.319Z</time>
</trkpt>
<trkpt lat="31.2555200" lon="35.3549000">
<ele>-94.570007</ele>
<time>2022-11-23T10:25:13.319Z</time>
</trkpt>
<trkpt lat="31.2557100" lon="35.3549300">
<ele>-94.360001</ele>
<time>2022-11-23T10:25:13.319Z</time>
</trkpt>
<trkpt lat="31.2558300" lon="35.3548800">
<ele>-93.709999</ele>
<time>2022-11-23T10:25:13.319Z</time>
</trkpt>
<trkpt lat="31.2558300" lon="35.3548800">
<ele>-93.709999</ele>
<time>2022-11-23T10:25:13.320Z</time>
</trkpt>
<trkpt lat="31.2559800" lon="35.3548200">
<ele>-95.540001</ele>
<time>2022-11-23T10:25:13.320Z</time>
</trkpt>
<trkpt lat="31.2560900" lon="35.3547900">
<ele>-96.880005</ele>
<time>2022-11-23T10:25:13.320Z</time>
</trkpt>
<trkpt lat="31.2561400" lon="35.3549700">
<ele>-101.120003</ele>
<time>2022-11-23T10:25:13.320Z</time>
</trkpt>
<trkpt lat="31.2562400" lon="35.3550100">
<ele>-103.809998</ele>
<time>2022-11-23T10:25:13.320Z</time>
</trkpt>
<trkpt lat="31.2565000" lon="35.3551800">
<ele>-103.989998</ele>
<time>2022-11-23T10:25:13.320Z</time>
</trkpt>
<trkpt lat="31.2566300" lon="35.3553500">
<ele>-100.169998</ele>
<time>2022-11-23T10:25:13.320Z</time>
</trkpt>
<trkpt lat="31.2568000" lon="35.3552700">
<ele>-100.090004</ele>
<time>2022-11-23T10:25:13.320Z</time>
</trkpt>
<trkpt lat="31.2569500" lon="35.3553400">
<ele>-98.580002</ele>
<time>2022-11-23T10:25:13.320Z</time>
</trkpt>
<trkpt lat="31.2570500" lon="35.3554000">
<ele>-96.010002</ele>
<time>2022-11-23T10:25:13.320Z</time>
</trkpt>
<trkpt lat="31.2572000" lon="35.3553400">
<ele>-95.180008</ele>
<time>2022-11-23T10:25:13.320Z</time>
</trkpt>
<trkpt lat="31.2574800" lon="35.3551000">
<ele>-97.800003</ele>
<time>2022-11-23T10:25:13.320Z</time>
</trkpt>
<trkpt lat="31.2579200" lon="35.3549600">
<ele>-99.500000</ele>
<time>2022-11-23T10:25:13.320Z</time>
</trkpt>
<trkpt lat="31.2580100" lon="35.3549800">
<ele>-99.229996</ele>
<time>2022-11-23T10:25:13.320Z</time>
</trkpt>
<trkpt lat="31.2581600" lon="35.3549400">
<ele>-98.900002</ele>
<time>2022-11-23T10:25:13.320Z</time>
</trkpt>
<trkpt lat="31.2582200" lon="35.3547700">
<ele>-100.299995</ele>
<time>2022-11-23T10:25:13.320Z</time>
</trkpt>
<trkpt lat="31.2584500" lon="35.3546800">
<ele>-101.300003</ele>
<time>2022-11-23T10:25:13.320Z</time>
</trkpt>
<trkpt lat="31.2585700" lon="35.3547300">
<ele>-101.620003</ele>
<time>2022-11-23T10:25:13.320Z</time>
</trkpt>
<trkpt lat="31.2589000" lon="35.3549700">
<ele>-109.080002</ele>
<time>2022-11-23T10:25:13.320Z</time>
</trkpt>
<trkpt lat="31.2592200" lon="35.3549200">
<ele>-112.420006</ele>
<time>2022-11-23T10:25:13.320Z</time>
</trkpt>
<trkpt lat="31.2593700" lon="35.3548800">
<ele>-110.089996</ele>
<time>2022-11-23T10:25:13.320Z</time>
</trkpt>
<trkpt lat="31.2592600" lon="35.3546800">
<ele>-109.739998</ele>
<time>2022-11-23T10:25:13.320Z</time>
</trkpt>
<trkpt lat="31.2592800" lon="35.3545800">
<ele>-109.080002</ele>
<time>2022-11-23T10:25:13.320Z</time>
</trkpt>
<trkpt lat="31.2594900" lon="35.3544500">
<ele>-108.480003</ele>
<time>2022-11-23T10:25:13.320Z</time>
</trkpt>
<trkpt lat="31.2597600" lon="35.3541900">
<ele>-108.440002</ele>
<time>2022-11-23T10:25:13.320Z</time>
</trkpt>
<trkpt lat="31.2601400" lon="35.3539400">
<ele>-106.970001</ele>
<time>2022-11-23T10:25:13.320Z</time>
</trkpt>
<trkpt lat="31.2603400" lon="35.3537900">
<ele>-108.040001</ele>
<time>2022-11-23T10:25:13.320Z</time>
</trkpt>
<trkpt lat="31.2605400" lon="35.3540200">
<ele>-102.700005</ele>
<time>2022-11-23T10:25:13.320Z</time>
</trkpt>
<trkpt lat="31.2606300" lon="35.3541100">
<ele>-101.500000</ele>
<time>2022-11-23T10:25:13.321Z</time>
</trkpt>
<trkpt lat="31.2606800" lon="35.3541100">
<ele>-102.220001</ele>
<time>2022-11-23T10:25:13.321Z</time>
</trkpt>
<trkpt lat="31.2610200" lon="35.3540000">
<ele>-103.169998</ele>
<time>2022-11-23T10:25:13.321Z</time>
</trkpt>
<trkpt lat="31.2613600" lon="35.3539100">
<ele>-97.599998</ele>
<time>2022-11-23T10:25:13.321Z</time>
</trkpt>
<trkpt lat="31.2614300" lon="35.3539100">
<ele>-96.479996</ele>
<time>2022-11-23T10:25:13.321Z</time>
</trkpt>
<trkpt lat="31.2614300" lon="35.3539100">
<ele>-96.479996</ele>
<time>2022-11-23T10:25:13.321Z</time>
</trkpt>
<trkpt lat="31.2614300" lon="35.3539100">
<ele>-96.479996</ele>
<time>2022-11-23T10:25:13.321Z</time>
</trkpt>
<trkpt lat="31.2615300" lon="35.3539100">
<ele>-95.400002</ele>
<time>2022-11-23T10:25:13.321Z</time>
</trkpt>
<trkpt lat="31.2618800" lon="35.3539600">
<ele>-93.739998</ele>
<time>2022-11-23T10:25:13.321Z</time>
</trkpt>
<trkpt lat="31.2620000" lon="35.3539200">
<ele>-93.619995</ele>
<time>2022-11-23T10:25:13.321Z</time>
</trkpt>
<trkpt lat="31.2620600" lon="35.3540100">
<ele>-92.600006</ele>
<time>2022-11-23T10:25:13.321Z</time>
</trkpt>
<trkpt lat="31.2622100" lon="35.3541400">
<ele>-89.550003</ele>
<time>2022-11-23T10:25:13.321Z</time>
</trkpt>
<trkpt lat="31.2623700" lon="35.3541900">
<ele>-87.599998</ele>
<time>2022-11-23T10:25:13.321Z</time>
</trkpt>
<trkpt lat="31.2625200" lon="35.3542300">
<ele>-85.979996</ele>
<time>2022-11-23T10:25:13.321Z</time>
</trkpt>
<trkpt lat="31.2626200" lon="35.3544200">
<ele>-83.279999</ele>
<time>2022-11-23T10:25:13.321Z</time>
</trkpt>
<trkpt lat="31.2627600" lon="35.3542800">
<ele>-84.260002</ele>
<time>2022-11-23T10:25:13.321Z</time>
</trkpt>
<trkpt lat="31.2629800" lon="35.3543100">
<ele>-83.220001</ele>
<time>2022-11-23T10:25:13.321Z</time>
</trkpt>
<trkpt lat="31.2632700" lon="35.3544700">
<ele>-78.779999</ele>
<time>2022-11-23T10:25:13.321Z</time>
</trkpt>
<trkpt lat="31.2633400" lon="35.3544000">
<ele>-76.769997</ele>
<time>2022-11-23T10:25:13.321Z</time>
</trkpt>
<trkpt lat="31.2632800" lon="35.3543500">
<ele>-77.459999</ele>
<time>2022-11-23T10:25:13.321Z</time>
</trkpt>
<trkpt lat="31.2632800" lon="35.3542400">
<ele>-76.169998</ele>
<time>2022-11-23T10:25:13.321Z</time>
</trkpt>
<trkpt lat="31.2633600" lon="35.3541700">
<ele>-71.430000</ele>
<time>2022-11-23T10:25:13.321Z</time>
</trkpt>
<trkpt lat="31.2634900" lon="35.3542300">
<ele>-64.419998</ele>
<time>2022-11-23T10:25:13.321Z</time>
</trkpt>
<trkpt lat="31.2635900" lon="35.3542200">
<ele>-58.070000</ele>
<time>2022-11-23T10:25:13.321Z</time>
</trkpt>
<trkpt lat="31.2635000" lon="35.3543200">
<ele>-65.230003</ele>
<time>2022-11-23T10:25:13.321Z</time>
</trkpt>
<trkpt lat="31.2634500" lon="35.3543900">
<ele>-69.540001</ele>
<time>2022-11-23T10:25:13.321Z</time>
</trkpt>
<trkpt lat="31.2634100" lon="35.3545800">
<ele>-74.820000</ele>
<time>2022-11-23T10:25:13.321Z</time>
</trkpt>
<trkpt lat="31.2634200" lon="35.3546800">
<ele>-75.669998</ele>
<time>2022-11-23T10:25:13.322Z</time>
</trkpt>
<trkpt lat="31.2635400" lon="35.3547800">
<ele>-71.949997</ele>
<time>2022-11-23T10:25:13.322Z</time>
</trkpt>
<trkpt lat="31.2635000" lon="35.3548900">
<ele>-74.730003</ele>
<time>2022-11-23T10:25:13.322Z</time>
</trkpt>
<trkpt lat="31.2633900" lon="35.3548300">
<ele>-77.720001</ele>
<time>2022-11-23T10:25:13.322Z</time>
</trkpt>
<trkpt lat="31.2632400" lon="35.3546500">
<ele>-79.490005</ele>
<time>2022-11-23T10:25:13.322Z</time>
</trkpt>
<trkpt lat="31.2630400" lon="35.3546100">
<ele>-79.820000</ele>
<time>2022-11-23T10:25:13.322Z</time>
</trkpt>
<trkpt lat="31.2629400" lon="35.3546600">
<ele>-79.309998</ele>
<time>2022-11-23T10:25:13.322Z</time>
</trkpt>
<trkpt lat="31.2627300" lon="35.3547600">
<ele>-77.720001</ele>
<time>2022-11-23T10:25:13.322Z</time>
</trkpt>
<trkpt lat="31.2624700" lon="35.3548900">
<ele>-75.979996</ele>
<time>2022-11-23T10:25:13.322Z</time>
</trkpt>
<trkpt lat="31.2624500" lon="35.3549200">
<ele>-75.440002</ele>
<time>2022-11-23T10:25:13.322Z</time>
</trkpt>
<trkpt lat="31.2624500" lon="35.3549200">
<ele>-75.440002</ele>
<time>2022-11-23T10:25:13.322Z</time>
</trkpt>
<trkpt lat="31.2624500" lon="35.3549200">
<ele>-75.440002</ele>
<time>2022-11-23T10:25:13.322Z</time>
</trkpt>
<trkpt lat="31.2624000" lon="35.3549900">
<ele>-74.180000</ele>
<time>2022-11-23T10:25:13.322Z</time>
</trkpt>
<trkpt lat="31.2625800" lon="35.3551900">
<ele>-71.750000</ele>
<time>2022-11-23T10:25:13.322Z</time>
</trkpt>
<trkpt lat="31.2626700" lon="35.3552900">
<ele>-70.990005</ele>
<time>2022-11-23T10:25:13.322Z</time>
</trkpt>
<trkpt lat="31.2628000" lon="35.3553500">
<ele>-70.919998</ele>
<time>2022-11-23T10:25:13.322Z</time>
</trkpt>
<trkpt lat="31.2628700" lon="35.3555000">
<ele>-68.730003</ele>
<time>2022-11-23T10:25:13.322Z</time>
</trkpt>
<trkpt lat="31.2630700" lon="35.3556200">
<ele>-67.739998</ele>
<time>2022-11-23T10:25:13.322Z</time>
</trkpt>
<trkpt lat="31.2633700" lon="35.3554800">
<ele>-72.189995</ele>
<time>2022-11-23T10:25:13.322Z</time>
</trkpt>
<trkpt lat="31.2637600" lon="35.3555000">
<ele>-69.940002</ele>
<time>2022-11-23T10:25:13.322Z</time>
</trkpt>
<trkpt lat="31.2642000" lon="35.3554600">
<ele>-66.720001</ele>
<time>2022-11-23T10:25:13.322Z</time>
</trkpt>
<trkpt lat="31.2645800" lon="35.3555800">
<ele>-55.610001</ele>
<time>2022-11-23T10:25:13.322Z</time>
</trkpt>
<trkpt lat="31.2651600" lon="35.3556500">
<ele>-54.110001</ele>
<time>2022-11-23T10:25:13.322Z</time>
</trkpt>
<trkpt lat="31.2655200" lon="35.3555300">
<ele>-57.079998</ele>
<time>2022-11-23T10:25:13.322Z</time>
</trkpt>
<trkpt lat="31.2656000" lon="35.3553200">
<ele>-57.849998</ele>
<time>2022-11-23T10:25:13.322Z</time>
</trkpt>
<trkpt lat="31.2656500" lon="35.3553300">
<ele>-57.810001</ele>
<time>2022-11-23T10:25:13.322Z</time>
</trkpt>
<trkpt lat="31.2658800" lon="35.3556100">
<ele>-57.830002</ele>
<time>2022-11-23T10:25:13.322Z</time>
</trkpt>
<trkpt lat="31.2661000" lon="35.3557800">
<ele>-59.940002</ele>
<time>2022-11-23T10:25:13.322Z</time>
</trkpt>
<trkpt lat="31.2662100" lon="35.3558700">
<ele>-59.820000</ele>
<time>2022-11-23T10:25:13.323Z</time>
</trkpt>
<trkpt lat="31.2663300" lon="35.3559200">
<ele>-59.769997</ele>
<time>2022-11-23T10:25:13.323Z</time>
</trkpt>
<trkpt lat="31.2664400" lon="35.3560700">
<ele>-60.759998</ele>
<time>2022-11-23T10:25:13.323Z</time>
</trkpt>
<trkpt lat="31.2665700" lon="35.3560100">
<ele>-60.750000</ele>
<time>2022-11-23T10:25:13.323Z</time>
</trkpt>
<trkpt lat="31.2667000" lon="35.3561500">
<ele>-61.880001</ele>
<time>2022-11-23T10:25:13.323Z</time>
</trkpt>
<trkpt lat="31.2667100" lon="35.3563900">
<ele>-64.479996</ele>
<time>2022-11-23T10:25:13.323Z</time>
</trkpt>
<trkpt lat="31.2668100" lon="35.3564900">
<ele>-66.820000</ele>
<time>2022-11-23T10:25:13.323Z</time>
</trkpt>
<trkpt lat="31.2667800" lon="35.3566000">
<ele>-67.950005</ele>
<time>2022-11-23T10:25:13.323Z</time>
</trkpt>
<trkpt lat="31.2665700" lon="35.3567100">
<ele>-68.480003</ele>
<time>2022-11-23T10:25:13.323Z</time>
</trkpt>
<trkpt lat="31.2664700" lon="35.3568700">
<ele>-70.650002</ele>
<time>2022-11-23T10:25:13.323Z</time>
</trkpt>
<trkpt lat="31.2663800" lon="35.3569400">
<ele>-70.840004</ele>
<time>2022-11-23T10:25:13.323Z</time>
</trkpt>
<trkpt lat="31.2662900" lon="35.3570200">
<ele>-71.269997</ele>
<time>2022-11-23T10:25:13.323Z</time>
</trkpt>
<trkpt lat="31.2664200" lon="35.3571800">
<ele>-76.330002</ele>
<time>2022-11-23T10:25:13.323Z</time>
</trkpt>
<trkpt lat="31.2663700" lon="35.3573400">
<ele>-78.260002</ele>
<time>2022-11-23T10:25:13.323Z</time>
</trkpt>
<trkpt lat="31.2662000" lon="35.3575100">
<ele>-76.419998</ele>
<time>2022-11-23T10:25:13.323Z</time>
</trkpt>
<trkpt lat="31.2659800" lon="35.3576800">
<ele>-75.860001</ele>
<time>2022-11-23T10:25:13.323Z</time>
</trkpt>
<trkpt lat="31.2659400" lon="35.3577800">
<ele>-76.959999</ele>
<time>2022-11-23T10:25:13.323Z</time>
</trkpt>
<trkpt lat="31.2658500" lon="35.3579300">
<ele>-78.040001</ele>
<time>2022-11-23T10:25:13.323Z</time>
</trkpt>
<trkpt lat="31.2656600" lon="35.3579800">
<ele>-74.779999</ele>
<time>2022-11-23T10:25:13.323Z</time>
</trkpt>
<trkpt lat="31.2655900" lon="35.3580800">
<ele>-74.080002</ele>
<time>2022-11-23T10:25:13.323Z</time>
</trkpt>
<trkpt lat="31.2655300" lon="35.3582900">
<ele>-74.870003</ele>
<time>2022-11-23T10:25:13.323Z</time>
</trkpt>
<trkpt lat="31.2655900" lon="35.3584500">
<ele>-78.549995</ele>
<time>2022-11-23T10:25:13.323Z</time>
</trkpt>
<trkpt lat="31.2656500" lon="35.3585100">
<ele>-81.349998</ele>
<time>2022-11-23T10:25:13.323Z</time>
</trkpt>
<trkpt lat="31.2657700" lon="35.3584400">
<ele>-83.839996</ele>
<time>2022-11-23T10:25:13.323Z</time>
</trkpt>
<trkpt lat="31.2660100" lon="35.3582900">
<ele>-87.940002</ele>
<time>2022-11-23T10:25:13.323Z</time>
</trkpt>
<trkpt lat="31.2662100" lon="35.3582000">
<ele>-89.710007</ele>
<time>2022-11-23T10:25:13.323Z</time>
</trkpt>
<trkpt lat="31.2662500" lon="35.3582000">
<ele>-90.360001</ele>
<time>2022-11-23T10:25:13.323Z</time>
</trkpt>
<trkpt lat="31.2662100" lon="35.3583200">
<ele>-92.150002</ele>
<time>2022-11-23T10:25:13.324Z</time>
</trkpt>
<trkpt lat="31.2661900" lon="35.3584000">
<ele>-92.680000</ele>
<time>2022-11-23T10:25:13.324Z</time>
</trkpt>
<trkpt lat="31.2663200" lon="35.3582900">
<ele>-93.189995</ele>
<time>2022-11-23T10:25:13.324Z</time>
</trkpt>
<trkpt lat="31.2664200" lon="35.3582400">
<ele>-93.510002</ele>
<time>2022-11-23T10:25:13.324Z</time>
</trkpt>
<trkpt lat="31.2663200" lon="35.3584200">
<ele>-94.870003</ele>
<time>2022-11-23T10:25:13.324Z</time>
</trkpt>
<trkpt lat="31.2663200" lon="35.3584200">
<ele>-94.870003</ele>
<time>2022-11-23T10:25:13.324Z</time>
</trkpt>
<trkpt lat="31.2663200" lon="35.3584200">
<ele>-94.870003</ele>
<time>2022-11-23T10:25:13.324Z</time>
</trkpt>
<trkpt lat="31.2663300" lon="35.3584700">
<ele>-95.520004</ele>
<time>2022-11-23T10:25:13.324Z</time>
</trkpt>
<trkpt lat="31.2664100" lon="35.3584100">
<ele>-96.000000</ele>
<time>2022-11-23T10:25:13.324Z</time>
</trkpt>
<trkpt lat="31.2665200" lon="35.3583900">
<ele>-96.650002</ele>
<time>2022-11-23T10:25:13.324Z</time>
</trkpt>
<trkpt lat="31.2666000" lon="35.3583300">
<ele>-96.450005</ele>
<time>2022-11-23T10:25:13.324Z</time>
</trkpt>
<trkpt lat="31.2666400" lon="35.3583500">
<ele>-97.040001</ele>
<time>2022-11-23T10:25:13.324Z</time>
</trkpt>
<trkpt lat="31.2664700" lon="35.3586800">
<ele>-99.340004</ele>
<time>2022-11-23T10:25:13.324Z</time>
</trkpt>
<trkpt lat="31.2664700" lon="35.3587300">
<ele>-99.680000</ele>
<time>2022-11-23T10:25:13.324Z</time>
</trkpt>
<trkpt lat="31.2665300" lon="35.3588500">
<ele>-101.689995</ele>
<time>2022-11-23T10:25:13.324Z</time>
</trkpt>
<trkpt lat="31.2667100" lon="35.3588900">
<ele>-105.320000</ele>
<time>2022-11-23T10:25:13.324Z</time>
</trkpt>
<trkpt lat="31.2668000" lon="35.3588500">
<ele>-105.400002</ele>
<time>2022-11-23T10:25:13.324Z</time>
</trkpt>
<trkpt lat="31.2668700" lon="35.3587400">
<ele>-104.320007</ele>
<time>2022-11-23T10:25:13.324Z</time>
</trkpt>
<trkpt lat="31.2669500" lon="35.3584900">
<ele>-100.860001</ele>
<time>2022-11-23T10:25:13.324Z</time>
</trkpt>
<trkpt lat="31.2669900" lon="35.3583600">
<ele>-98.939995</ele>
<time>2022-11-23T10:25:13.324Z</time>
</trkpt>
<trkpt lat="31.2670500" lon="35.3583600">
<ele>-99.549995</ele>
<time>2022-11-23T10:25:13.324Z</time>
</trkpt>
<trkpt lat="31.2672000" lon="35.3583900">
<ele>-101.399994</ele>
<time>2022-11-23T10:25:13.324Z</time>
</trkpt>
<trkpt lat="31.2673000" lon="35.3584700">
<ele>-103.599998</ele>
<time>2022-11-23T10:25:13.324Z</time>
</trkpt>
<trkpt lat="31.2674400" lon="35.3584900">
<ele>-105.730003</ele>
<time>2022-11-23T10:25:13.324Z</time>
</trkpt>
<trkpt lat="31.2674000" lon="35.3586100">
<ele>-105.910004</ele>
<time>2022-11-23T10:25:13.324Z</time>
</trkpt>
<trkpt lat="31.2674100" lon="35.3586500">
<ele>-106.349998</ele>
<time>2022-11-23T10:25:13.324Z</time>
</trkpt>
<trkpt lat="31.2674600" lon="35.3586400">
<ele>-106.790001</ele>
<time>2022-11-23T10:25:13.324Z</time>
</trkpt>
<trkpt lat="31.2676600" lon="35.3583900">
<ele>-106.540001</ele>
<time>2022-11-23T10:25:13.324Z</time>
</trkpt>
<trkpt lat="31.2678000" lon="35.3582200">
<ele>-105.750000</ele>
<time>2022-11-23T10:25:13.325Z</time>
</trkpt>
<trkpt lat="31.2681200" lon="35.3581900">
<ele>-105.629997</ele>
<time>2022-11-23T10:25:13.325Z</time>
</trkpt>
<trkpt lat="31.2682500" lon="35.3582200">
<ele>-105.820000</ele>
<time>2022-11-23T10:25:13.325Z</time>
</trkpt>
<trkpt lat="31.2682800" lon="35.3583300">
<ele>-105.809998</ele>
<time>2022-11-23T10:25:13.325Z</time>
</trkpt>
<trkpt lat="31.2684200" lon="35.3585500">
<ele>-107.090004</ele>
<time>2022-11-23T10:25:13.325Z</time>
</trkpt>
<trkpt lat="31.2685500" lon="35.3588200">
<ele>-109.120003</ele>
<time>2022-11-23T10:25:13.325Z</time>
</trkpt>
<trkpt lat="31.2686000" lon="35.3590300">
<ele>-109.939995</ele>
<time>2022-11-23T10:25:13.325Z</time>
</trkpt>
<trkpt lat="31.2685300" lon="35.3592800">
<ele>-111.989998</ele>
<time>2022-11-23T10:25:13.325Z</time>
</trkpt>
<trkpt lat="31.2687100" lon="35.3593700">
<ele>-112.880005</ele>
<time>2022-11-23T10:25:13.325Z</time>
</trkpt>
<trkpt lat="31.2688600" lon="35.3593400">
<ele>-111.439995</ele>
<time>2022-11-23T10:25:13.325Z</time>
</trkpt>
<trkpt lat="31.2690900" lon="35.3591800">
<ele>-113.720001</ele>
<time>2022-11-23T10:25:13.325Z</time>
</trkpt>
<trkpt lat="31.2692400" lon="35.3592300">
<ele>-115.719994</ele>
<time>2022-11-23T10:25:13.325Z</time>
</trkpt>
<trkpt lat="31.2694100" lon="35.3591800">
<ele>-115.970001</ele>
<time>2022-11-23T10:25:13.325Z</time>
</trkpt>
<trkpt lat="31.2694900" lon="35.3591800">
<ele>-115.600006</ele>
<time>2022-11-23T10:25:13.325Z</time>
</trkpt>
<trkpt lat="31.2695600" lon="35.3592100">
<ele>-115.059998</ele>
<time>2022-11-23T10:25:13.325Z</time>
</trkpt>
<trkpt lat="31.2696200" lon="35.3592700">
<ele>-114.850006</ele>
<time>2022-11-23T10:25:13.325Z</time>
</trkpt>
<trkpt lat="31.2696600" lon="35.3593900">
<ele>-115.279999</ele>
<time>2022-11-23T10:25:13.325Z</time>
</trkpt>
<trkpt lat="31.2696400" lon="35.3595900">
<ele>-116.039993</ele>
<time>2022-11-23T10:25:13.325Z</time>
</trkpt>
<trkpt lat="31.2696200" lon="35.3598000">
<ele>-116.189995</ele>
<time>2022-11-23T10:25:13.325Z</time>
</trkpt>
<trkpt lat="31.2696200" lon="35.3599800">
<ele>-115.540001</ele>
<time>2022-11-23T10:25:13.325Z</time>
</trkpt>
<trkpt lat="31.2697000" lon="35.3601100">
<ele>-114.720001</ele>
<time>2022-11-23T10:25:13.325Z</time>
</trkpt>
<trkpt lat="31.2698300" lon="35.3602100">
<ele>-114.069992</ele>
<time>2022-11-23T10:25:13.325Z</time>
</trkpt>
<trkpt lat="31.2699000" lon="35.3602000">
<ele>-113.620003</ele>
<time>2022-11-23T10:25:13.325Z</time>
</trkpt>
<trkpt lat="31.2700800" lon="35.3603600">
<ele>-111.260002</ele>
<time>2022-11-23T10:25:13.325Z</time>
</trkpt>
<trkpt lat="31.2702000" lon="35.3605300">
<ele>-108.489998</ele>
<time>2022-11-23T10:25:13.325Z</time>
</trkpt>
<trkpt lat="31.2703100" lon="35.3605900">
<ele>-107.430000</ele>
<time>2022-11-23T10:25:13.325Z</time>
</trkpt>
<trkpt lat="31.2703100" lon="35.3605900">
<ele>-107.430000</ele>
<time>2022-11-23T10:25:13.325Z</time>
</trkpt>
<trkpt lat="31.2705000" lon="35.3607900">
<ele>-107.629997</ele>
<time>2022-11-23T10:25:13.326Z</time>
</trkpt>
<trkpt lat="31.2704700" lon="35.3609000">
<ele>-107.430000</ele>
<time>2022-11-23T10:25:13.326Z</time>
</trkpt>
<trkpt lat="31.2703900" lon="35.3610900">
<ele>-107.669998</ele>
<time>2022-11-23T10:25:13.326Z</time>
</trkpt>
<trkpt lat="31.2704100" lon="35.3613300">
<ele>-105.979996</ele>
<time>2022-11-23T10:25:13.326Z</time>
</trkpt>
<trkpt lat="31.2704300" lon="35.3614000">
<ele>-105.110001</ele>
<time>2022-11-23T10:25:13.326Z</time>
</trkpt>
<trkpt lat="31.2704500" lon="35.3614300">
<ele>-104.459999</ele>
<time>2022-11-23T10:25:13.326Z</time>
</trkpt>
<trkpt lat="31.2704400" lon="35.3615700">
<ele>-103.989998</ele>
<time>2022-11-23T10:25:13.326Z</time>
</trkpt>
<trkpt lat="31.2703500" lon="35.3616200">
<ele>-105.730003</ele>
<time>2022-11-23T10:25:13.326Z</time>
</trkpt>
<trkpt lat="31.2702900" lon="35.3616600">
<ele>-106.780006</ele>
<time>2022-11-23T10:25:13.326Z</time>
</trkpt>
<trkpt lat="31.2703300" lon="35.3617800">
<ele>-103.910004</ele>
<time>2022-11-23T10:25:13.326Z</time>
</trkpt>
<trkpt lat="31.2703300" lon="35.3617800">
<ele>-103.910004</ele>
<time>2022-11-23T10:25:13.326Z</time>
</trkpt>
<trkpt lat="31.2703300" lon="35.3617800">
<ele>-103.910004</ele>
<time>2022-11-23T10:25:13.326Z</time>
</trkpt>
<trkpt lat="31.2703400" lon="35.3618100">
<ele>-103.190002</ele>
<time>2022-11-23T10:25:13.326Z</time>
</trkpt>
<trkpt lat="31.2704600" lon="35.3619100">
<ele>-99.259995</ele>
<time>2022-11-23T10:25:13.326Z</time>
</trkpt>
<trkpt lat="31.2706700" lon="35.3617800">
<ele>-98.969994</ele>
<time>2022-11-23T10:25:13.326Z</time>
</trkpt>
<trkpt lat="31.2709100" lon="35.3616800">
<ele>-96.969994</ele>
<time>2022-11-23T10:25:13.326Z</time>
</trkpt>
<trkpt lat="31.2711900" lon="35.3614900">
<ele>-95.269997</ele>
<time>2022-11-23T10:25:13.326Z</time>
</trkpt>
<trkpt lat="31.2713700" lon="35.3614100">
<ele>-95.849998</ele>
<time>2022-11-23T10:25:13.326Z</time>
</trkpt>
<trkpt lat="31.2714800" lon="35.3614400">
<ele>-96.309998</ele>
<time>2022-11-23T10:25:13.326Z</time>
</trkpt>
<trkpt lat="31.2715900" lon="35.3616300">
<ele>-93.290001</ele>
<time>2022-11-23T10:25:13.326Z</time>
</trkpt>
<trkpt lat="31.2716400" lon="35.3617100">
<ele>-91.779999</ele>
<time>2022-11-23T10:25:13.326Z</time>
</trkpt>
<trkpt lat="31.2719700" lon="35.3616500">
<ele>-90.349998</ele>
<time>2022-11-23T10:25:13.326Z</time>
</trkpt>
<trkpt lat="31.2723300" lon="35.3616100">
<ele>-91.359993</ele>
<time>2022-11-23T10:25:13.326Z</time>
</trkpt>
<trkpt lat="31.2724400" lon="35.3616100">
<ele>-91.919998</ele>
<time>2022-11-23T10:25:13.326Z</time>
</trkpt>
<trkpt lat="31.2727900" lon="35.3617000">
<ele>-89.730003</ele>
<time>2022-11-23T10:25:13.326Z</time>
</trkpt>
<trkpt lat="31.2730700" lon="35.3618300">
<ele>-90.800003</ele>
<time>2022-11-23T10:25:13.326Z</time>
</trkpt>
<trkpt lat="31.2732800" lon="35.3620100">
<ele>-89.760002</ele>
<time>2022-11-23T10:25:13.326Z</time>
</trkpt>
<trkpt lat="31.2734000" lon="35.3621600">
<ele>-89.779999</ele>
<time>2022-11-23T10:25:13.326Z</time>
</trkpt>
<trkpt lat="31.2735600" lon="35.3622200">
<ele>-91.440002</ele>
<time>2022-11-23T10:25:13.327Z</time>
</trkpt>
<trkpt lat="31.2737000" lon="35.3622200">
<ele>-91.670006</ele>
<time>2022-11-23T10:25:13.327Z</time>
</trkpt>
<trkpt lat="31.2737000" lon="35.3622200">
<ele>-91.670006</ele>
<time>2022-11-23T10:25:13.327Z</time>
</trkpt>
<trkpt lat="31.2737800" lon="35.3622200">
<ele>-91.380005</ele>
<time>2022-11-23T10:25:13.327Z</time>
</trkpt>
<trkpt lat="31.2739100" lon="35.3621200">
<ele>-90.760002</ele>
<time>2022-11-23T10:25:13.327Z</time>
</trkpt>
<trkpt lat="31.2739400" lon="35.3619700">
<ele>-90.289993</ele>
<time>2022-11-23T10:25:13.327Z</time>
</trkpt>
<trkpt lat="31.2740800" lon="35.3618400">
<ele>-90.170006</ele>
<time>2022-11-23T10:25:13.327Z</time>
</trkpt>
<trkpt lat="31.2741800" lon="35.3618200">
<ele>-89.959999</ele>
<time>2022-11-23T10:25:13.327Z</time>
</trkpt>
<trkpt lat="31.2744300" lon="35.3616900">
<ele>-87.110001</ele>
<time>2022-11-23T10:25:13.327Z</time>
</trkpt>
<trkpt lat="31.2747700" lon="35.3615300">
<ele>-84.709999</ele>
<time>2022-11-23T10:25:13.327Z</time>
</trkpt>
<trkpt lat="31.2752800" lon="35.3612400">
<ele>-81.059998</ele>
<time>2022-11-23T10:25:13.327Z</time>
</trkpt>
<trkpt lat="31.2755600" lon="35.3611500">
<ele>-79.720001</ele>
<time>2022-11-23T10:25:13.327Z</time>
</trkpt>
<trkpt lat="31.2761400" lon="35.3607600">
<ele>-83.739998</ele>
<time>2022-11-23T10:25:13.327Z</time>
</trkpt>
<trkpt lat="31.2765000" lon="35.3607000">
<ele>-83.540001</ele>
<time>2022-11-23T10:25:13.327Z</time>
</trkpt>
<trkpt lat="31.2767800" lon="35.3604100">
<ele>-83.089996</ele>
<time>2022-11-23T10:25:13.327Z</time>
</trkpt>
<trkpt lat="31.2768400" lon="35.3603000">
<ele>-82.550003</ele>
<time>2022-11-23T10:25:13.327Z</time>
</trkpt>
<trkpt lat="31.2770100" lon="35.3602000">
<ele>-81.780006</ele>
<time>2022-11-23T10:25:13.327Z</time>
</trkpt>
<trkpt lat="31.2770100" lon="35.3602000">
<ele>-81.780006</ele>
<time>2022-11-23T10:25:13.327Z</time>
</trkpt>
<trkpt lat="31.2772100" lon="35.3601400">
<ele>-81.970001</ele>
<time>2022-11-23T10:25:13.327Z</time>
</trkpt>
<trkpt lat="31.2773400" lon="35.3601900">
<ele>-83.719994</ele>
<time>2022-11-23T10:25:13.327Z</time>
</trkpt>
<trkpt lat="31.2774500" lon="35.3602700">
<ele>-85.549995</ele>
<time>2022-11-23T10:25:13.327Z</time>
</trkpt>
<trkpt lat="31.2775400" lon="35.3602500">
<ele>-85.699997</ele>
<time>2022-11-23T10:25:13.327Z</time>
</trkpt>
<trkpt lat="31.2775700" lon="35.3602200">
<ele>-85.379997</ele>
<time>2022-11-23T10:25:13.327Z</time>
</trkpt>
<trkpt lat="31.2777100" lon="35.3599800">
<ele>-82.870003</ele>
<time>2022-11-23T10:25:13.327Z</time>
</trkpt>
<trkpt lat="31.2777400" lon="35.3598700">
<ele>-82.129997</ele>
<time>2022-11-23T10:25:13.327Z</time>
</trkpt>
<trkpt lat="31.2778000" lon="35.3597900">
<ele>-81.669998</ele>
<time>2022-11-23T10:25:13.327Z</time>
</trkpt>
<trkpt lat="31.2778800" lon="35.3596700">
<ele>-81.759995</ele>
<time>2022-11-23T10:25:13.327Z</time>
</trkpt>
<trkpt lat="31.2779700" lon="35.3595400">
<ele>-83.089996</ele>
<time>2022-11-23T10:25:13.327Z</time>
</trkpt>
<trkpt lat="31.2780900" lon="35.3593100">
<ele>-84.949997</ele>
<time>2022-11-23T10:25:13.328Z</time>
</trkpt>
<trkpt lat="31.2781700" lon="35.3592300">
<ele>-85.779999</ele>
<time>2022-11-23T10:25:13.328Z</time>
</trkpt>
<trkpt lat="31.2782600" lon="35.3593000">
<ele>-87.070000</ele>
<time>2022-11-23T10:25:13.328Z</time>
</trkpt>
<trkpt lat="31.2784000" lon="35.3593100">
<ele>-88.009995</ele>
<time>2022-11-23T10:25:13.328Z</time>
</trkpt>
<trkpt lat="31.2786300" lon="35.3591800">
<ele>-86.950005</ele>
<time>2022-11-23T10:25:13.328Z</time>
</trkpt>
<trkpt lat="31.2789100" lon="35.3589700">
<ele>-84.449997</ele>
<time>2022-11-23T10:25:13.328Z</time>
</trkpt>
<trkpt lat="31.2790000" lon="35.3589900">
<ele>-85.130005</ele>
<time>2022-11-23T10:25:13.328Z</time>
</trkpt>
<trkpt lat="31.2790000" lon="35.3589900">
<ele>-85.130005</ele>
<time>2022-11-23T10:25:13.328Z</time>
</trkpt>
<trkpt lat="31.2790000" lon="35.3589900">
<ele>-85.130005</ele>
<time>2022-11-23T10:25:13.328Z</time>
</trkpt>
<trkpt lat="31.2790700" lon="35.3590100">
<ele>-85.540001</ele>
<time>2022-11-23T10:25:13.328Z</time>
</trkpt>
<trkpt lat="31.2792200" lon="35.3591800">
<ele>-85.849998</ele>
<time>2022-11-23T10:25:13.328Z</time>
</trkpt>
<trkpt lat="31.2793700" lon="35.3594200">
<ele>-86.169998</ele>
<time>2022-11-23T10:25:13.328Z</time>
</trkpt>
<trkpt lat="31.2795100" lon="35.3594600">
<ele>-87.620003</ele>
<time>2022-11-23T10:25:13.328Z</time>
</trkpt>
<trkpt lat="31.2797000" lon="35.3594400">
<ele>-89.750000</ele>
<time>2022-11-23T10:25:13.328Z</time>
</trkpt>
<trkpt lat="31.2798000" lon="35.3593100">
<ele>-90.209999</ele>
<time>2022-11-23T10:25:13.328Z</time>
</trkpt>
<trkpt lat="31.2800000" lon="35.3591400">
<ele>-91.809998</ele>
<time>2022-11-23T10:25:13.328Z</time>
</trkpt>
<trkpt lat="31.2802200" lon="35.3591100">
<ele>-94.290001</ele>
<time>2022-11-23T10:25:13.328Z</time>
</trkpt>
<trkpt lat="31.2804100" lon="35.3592500">
<ele>-96.019997</ele>
<time>2022-11-23T10:25:13.328Z</time>
</trkpt>
<trkpt lat="31.2806400" lon="35.3593200">
<ele>-96.659996</ele>
<time>2022-11-23T10:25:13.328Z</time>
</trkpt>
<trkpt lat="31.2808300" lon="35.3593200">
<ele>-96.349998</ele>
<time>2022-11-23T10:25:13.328Z</time>
</trkpt>
<trkpt lat="31.2809100" lon="35.3591700">
<ele>-96.860001</ele>
<time>2022-11-23T10:25:13.328Z</time>
</trkpt>
<trkpt lat="31.2809300" lon="35.3590100">
<ele>-98.519997</ele>
<time>2022-11-23T10:25:13.328Z</time>
</trkpt>
<trkpt lat="31.2809400" lon="35.3588200">
<ele>-100.400002</ele>
<time>2022-11-23T10:25:13.328Z</time>
</trkpt>
<trkpt lat="31.2811400" lon="35.3587800">
<ele>-100.510002</ele>
<time>2022-11-23T10:25:13.328Z</time>
</trkpt>
<trkpt lat="31.2813600" lon="35.3587800">
<ele>-101.450005</ele>
<time>2022-11-23T10:25:13.328Z</time>
</trkpt>
<trkpt lat="31.2815600" lon="35.3587200">
<ele>-102.650002</ele>
<time>2022-11-23T10:25:13.328Z</time>
</trkpt>
<trkpt lat="31.2817200" lon="35.3584800">
<ele>-102.269997</ele>
<time>2022-11-23T10:25:13.328Z</time>
</trkpt>
<trkpt lat="31.2817200" lon="35.3584800">
<ele>-102.269997</ele>
<time>2022-11-23T10:25:13.329Z</time>
</trkpt>
<trkpt lat="31.2817900" lon="35.3583800">
<ele>-102.680000</ele>
<time>2022-11-23T10:25:13.329Z</time>
</trkpt>
<trkpt lat="31.2817200" lon="35.3582800">
<ele>-103.379997</ele>
<time>2022-11-23T10:25:13.329Z</time>
</trkpt>
<trkpt lat="31.2815200" lon="35.3580200">
<ele>-106.279999</ele>
<time>2022-11-23T10:25:13.329Z</time>
</trkpt>
<trkpt lat="31.2811700" lon="35.3581200">
<ele>-101.580002</ele>
<time>2022-11-23T10:25:13.329Z</time>
</trkpt>
<trkpt lat="31.2808900" lon="35.3581100">
<ele>-104.239998</ele>
<time>2022-11-23T10:25:13.329Z</time>
</trkpt>
<trkpt lat="31.2804700" lon="35.3582700">
<ele>-104.759995</ele>
<time>2022-11-23T10:25:13.329Z</time>
</trkpt>
<trkpt lat="31.2803700" lon="35.3583600">
<ele>-102.759995</ele>
<time>2022-11-23T10:25:13.329Z</time>
</trkpt>
<trkpt lat="31.2801400" lon="35.3584700">
<ele>-97.830002</ele>
<time>2022-11-23T10:25:13.329Z</time>
</trkpt>
<trkpt lat="31.2799600" lon="35.3584200">
<ele>-97.869995</ele>
<time>2022-11-23T10:25:13.329Z</time>
</trkpt>
<trkpt lat="31.2799700" lon="35.3582700">
<ele>-102.510002</ele>
<time>2022-11-23T10:25:13.329Z</time>
</trkpt>
<trkpt lat="31.2800400" lon="35.3582300">
<ele>-103.730003</ele>
<time>2022-11-23T10:25:13.329Z</time>
</trkpt>
<trkpt lat="31.2801900" lon="35.3581300">
<ele>-105.989998</ele>
<time>2022-11-23T10:25:13.329Z</time>
</trkpt>
<trkpt lat="31.2803600" lon="35.3579800">
<ele>-109.029999</ele>
<time>2022-11-23T10:25:13.329Z</time>
</trkpt>
<trkpt lat="31.2805700" lon="35.3577700">
<ele>-115.010002</ele>
<time>2022-11-23T10:25:13.329Z</time>
</trkpt>
<trkpt lat="31.2805700" lon="35.3577700">
<ele>-115.010002</ele>
<time>2022-11-23T10:25:13.329Z</time>
</trkpt>
<trkpt lat="31.2806400" lon="35.3577000">
<ele>-115.770004</ele>
<time>2022-11-23T10:25:13.329Z</time>
</trkpt>
<trkpt lat="31.2808900" lon="35.3575900">
<ele>-119.349998</ele>
<time>2022-11-23T10:25:13.329Z</time>
</trkpt>
<trkpt lat="31.2810200" lon="35.3575200">
<ele>-122.430000</ele>
<time>2022-11-23T10:25:13.329Z</time>
</trkpt>
<trkpt lat="31.2812900" lon="35.3573700">
<ele>-124.409996</ele>
<time>2022-11-23T10:25:13.329Z</time>
</trkpt>
<trkpt lat="31.2813700" lon="35.3573100">
<ele>-124.620003</ele>
<time>2022-11-23T10:25:13.329Z</time>
</trkpt>
<trkpt lat="31.2814500" lon="35.3572300">
<ele>-126.500000</ele>
<time>2022-11-23T10:25:13.329Z</time>
</trkpt>
<trkpt lat="31.2814700" lon="35.3572100">
<ele>-127.159996</ele>
<time>2022-11-23T10:25:13.329Z</time>
</trkpt>
<trkpt lat="31.2814500" lon="35.3571500">
<ele>-128.369995</ele>
<time>2022-11-23T10:25:13.329Z</time>
</trkpt>
<trkpt lat="31.2813000" lon="35.3572000">
<ele>-127.389999</ele>
<time>2022-11-23T10:25:13.329Z</time>
</trkpt>
<trkpt lat="31.2810800" lon="35.3571000">
<ele>-129.259995</ele>
<time>2022-11-23T10:25:13.329Z</time>
</trkpt>
<trkpt lat="31.2810400" lon="35.3567700">
<ele>-130.339996</ele>
<time>2022-11-23T10:25:13.329Z</time>
</trkpt>
<trkpt lat="31.2807700" lon="35.3564000">
<ele>-131.080002</ele>
<time>2022-11-23T10:25:13.330Z</time>
</trkpt>
<trkpt lat="31.2806200" lon="35.3561600">
<ele>-129.500000</ele>
<time>2022-11-23T10:25:13.330Z</time>
</trkpt>
<trkpt lat="31.2806900" lon="35.3560800">
<ele>-129.520004</ele>
<time>2022-11-23T10:25:13.330Z</time>
</trkpt>
<trkpt lat="31.2809600" lon="35.3563000">
<ele>-132.610001</ele>
<time>2022-11-23T10:25:13.330Z</time>
</trkpt>
<trkpt lat="31.2811600" lon="35.3565400">
<ele>-133.930008</ele>
<time>2022-11-23T10:25:13.330Z</time>
</trkpt>
<trkpt lat="31.2813200" lon="35.3567500">
<ele>-133.380005</ele>
<time>2022-11-23T10:25:13.330Z</time>
</trkpt>
<trkpt lat="31.2816200" lon="35.3566900">
<ele>-134.750000</ele>
<time>2022-11-23T10:25:13.330Z</time>
</trkpt>
<trkpt lat="31.2818000" lon="35.3564700">
<ele>-138.389999</ele>
<time>2022-11-23T10:25:13.330Z</time>
</trkpt>
<trkpt lat="31.2818600" lon="35.3563600">
<ele>-140.350006</ele>
<time>2022-11-23T10:25:13.330Z</time>
</trkpt>
<trkpt lat="31.2820000" lon="35.3562100">
<ele>-142.409988</ele>
<time>2022-11-23T10:25:13.330Z</time>
</trkpt>
<trkpt lat="31.2821300" lon="35.3560300">
<ele>-144.889999</ele>
<time>2022-11-23T10:25:13.330Z</time>
</trkpt>
<trkpt lat="31.2824400" lon="35.3557500">
<ele>-147.300003</ele>
<time>2022-11-23T10:25:13.330Z</time>
</trkpt>
<trkpt lat="31.2825000" lon="35.3556200">
<ele>-145.930008</ele>
<time>2022-11-23T10:25:13.330Z</time>
</trkpt>
<trkpt lat="31.2825700" lon="35.3554800">
<ele>-144.000000</ele>
<time>2022-11-23T10:25:13.330Z</time>
</trkpt>
<trkpt lat="31.2825700" lon="35.3554800">
<ele>-144.000000</ele>
<time>2022-11-23T10:25:13.330Z</time>
</trkpt>
<trkpt lat="31.2830300" lon="35.3546800">
<ele>-145.769989</ele>
<time>2022-11-23T10:25:13.330Z</time>
</trkpt>
<trkpt lat="31.2834300" lon="35.3543300">
<ele>-146.559998</ele>
<time>2022-11-23T10:25:13.330Z</time>
</trkpt>
<trkpt lat="31.2835100" lon="35.3541400">
<ele>-147.610001</ele>
<time>2022-11-23T10:25:13.330Z</time>
</trkpt>
<trkpt lat="31.2835800" lon="35.3538400">
<ele>-147.289993</ele>
<time>2022-11-23T10:25:13.330Z</time>
</trkpt>
<trkpt lat="31.2836400" lon="35.3537300">
<ele>-147.289993</ele>
<time>2022-11-23T10:25:13.330Z</time>
</trkpt>
<trkpt lat="31.2837200" lon="35.3541300">
<ele>-147.479996</ele>
<time>2022-11-23T10:25:13.330Z</time>
</trkpt>
<trkpt lat="31.2837700" lon="35.3542400">
<ele>-147.199997</ele>
<time>2022-11-23T10:25:13.330Z</time>
</trkpt>
<trkpt lat="31.2838600" lon="35.3543000">
<ele>-147.000000</ele>
<time>2022-11-23T10:25:13.330Z</time>
</trkpt>
<trkpt lat="31.2839000" lon="35.3544200">
<ele>-146.880005</ele>
<time>2022-11-23T10:25:13.330Z</time>
</trkpt>
<trkpt lat="31.2840000" lon="35.3544800">
<ele>-145.389999</ele>
<time>2022-11-23T10:25:13.330Z</time>
</trkpt>
<trkpt lat="31.2842400" lon="35.3541000">
<ele>-142.930008</ele>
<time>2022-11-23T10:25:13.330Z</time>
</trkpt>
<trkpt lat="31.2842700" lon="35.3540700">
<ele>-142.930008</ele>
<time>2022-11-23T10:25:13.330Z</time>
</trkpt>
<trkpt lat="31.2844800" lon="35.3541200">
<ele>-140.699997</ele>
<time>2022-11-23T10:25:13.330Z</time>
</trkpt>
<trkpt lat="31.2845600" lon="35.3541300">
<ele>-141.059998</ele>
<time>2022-11-23T10:25:13.331Z</time>
</trkpt>
<trkpt lat="31.2846000" lon="35.3541000">
<ele>-141.440002</ele>
<time>2022-11-23T10:25:13.331Z</time>
</trkpt>
<trkpt lat="31.2847200" lon="35.3540100">
<ele>-142.000000</ele>
<time>2022-11-23T10:25:13.331Z</time>
</trkpt>
<trkpt lat="31.2847800" lon="35.3540100">
<ele>-141.009995</ele>
<time>2022-11-23T10:25:13.331Z</time>
</trkpt>
<trkpt lat="31.2847800" lon="35.3540100">
<ele>-141.009995</ele>
<time>2022-11-23T10:25:13.331Z</time>
</trkpt>
<trkpt lat="31.2847800" lon="35.3540100">
<ele>-141.009995</ele>
<time>2022-11-23T10:25:13.331Z</time>
</trkpt>
<trkpt lat="31.2849100" lon="35.3540100">
<ele>-138.790009</ele>
<time>2022-11-23T10:25:13.331Z</time>
</trkpt>
<trkpt lat="31.2850700" lon="35.3539300">
<ele>-137.870010</ele>
<time>2022-11-23T10:25:13.331Z</time>
</trkpt>
<trkpt lat="31.2853200" lon="35.3538000">
<ele>-136.610001</ele>
<time>2022-11-23T10:25:13.331Z</time>
</trkpt>
<trkpt lat="31.2856000" lon="35.3537300">
<ele>-132.729996</ele>
<time>2022-11-23T10:25:13.331Z</time>
</trkpt>
<trkpt lat="31.2857800" lon="35.3538100">
<ele>-130.720001</ele>
<time>2022-11-23T10:25:13.331Z</time>
</trkpt>
<trkpt lat="31.2859200" lon="35.3540200">
<ele>-129.529999</ele>
<time>2022-11-23T10:25:13.331Z</time>
</trkpt>
<trkpt lat="31.2863000" lon="35.3542400">
<ele>-128.970001</ele>
<time>2022-11-23T10:25:13.331Z</time>
</trkpt>
<trkpt lat="31.2863900" lon="35.3544500">
<ele>-126.940002</ele>
<time>2022-11-23T10:25:13.331Z</time>
</trkpt>
<trkpt lat="31.2864300" lon="35.3544800">
<ele>-126.510002</ele>
<time>2022-11-23T10:25:13.331Z</time>
</trkpt>
<trkpt lat="31.2866400" lon="35.3546200">
<ele>-125.339996</ele>
<time>2022-11-23T10:25:13.331Z</time>
</trkpt>
<trkpt lat="31.2867900" lon="35.3547800">
<ele>-124.070000</ele>
<time>2022-11-23T10:25:13.331Z</time>
</trkpt>
<trkpt lat="31.2866300" lon="35.3549300">
<ele>-124.119995</ele>
<time>2022-11-23T10:25:13.331Z</time>
</trkpt>
<trkpt lat="31.2865600" lon="35.3549700">
<ele>-123.720001</ele>
<time>2022-11-23T10:25:13.331Z</time>
</trkpt>
<trkpt lat="31.2863800" lon="35.3551200">
<ele>-120.370003</ele>
<time>2022-11-23T10:25:13.331Z</time>
</trkpt>
<trkpt lat="31.2861100" lon="35.3552200">
<ele>-118.419998</ele>
<time>2022-11-23T10:25:13.331Z</time>
</trkpt>
<trkpt lat="31.2858700" lon="35.3551300">
<ele>-120.340004</ele>
<time>2022-11-23T10:25:13.331Z</time>
</trkpt>
<trkpt lat="31.2857000" lon="35.3551800">
<ele>-121.479996</ele>
<time>2022-11-23T10:25:13.331Z</time>
</trkpt>
<trkpt lat="31.2856400" lon="35.3552800">
<ele>-121.400002</ele>
<time>2022-11-23T10:25:13.331Z</time>
</trkpt>
<trkpt lat="31.2857400" lon="35.3553700">
<ele>-121.110001</ele>
<time>2022-11-23T10:25:13.331Z</time>
</trkpt>
<trkpt lat="31.2860700" lon="35.3554000">
<ele>-119.180000</ele>
<time>2022-11-23T10:25:13.331Z</time>
</trkpt>
<trkpt lat="31.2862200" lon="35.3552800">
<ele>-117.630005</ele>
<time>2022-11-23T10:25:13.331Z</time>
</trkpt>
<trkpt lat="31.2864400" lon="35.3552500">
<ele>-117.949997</ele>
<time>2022-11-23T10:25:13.332Z</time>
</trkpt>
<trkpt lat="31.2866500" lon="35.3553800">
<ele>-119.339996</ele>
<time>2022-11-23T10:25:13.332Z</time>
</trkpt>
<trkpt lat="31.2870400" lon="35.3554500">
<ele>-116.039993</ele>
<time>2022-11-23T10:25:13.332Z</time>
</trkpt>
<trkpt lat="31.2875100" lon="35.3554300">
<ele>-115.349998</ele>
<time>2022-11-23T10:25:13.332Z</time>
</trkpt>
<trkpt lat="31.2882700" lon="35.3551600">
<ele>-108.109993</ele>
<time>2022-11-23T10:25:13.332Z</time>
</trkpt>
<trkpt lat="31.2890200" lon="35.3549300">
<ele>-101.489998</ele>
<time>2022-11-23T10:25:13.332Z</time>
</trkpt>
<trkpt lat="31.2890100" lon="35.3549200">
<ele>-101.760002</ele>
<time>2022-11-23T10:25:13.332Z</time>
</trkpt>
<trkpt lat="31.2890600" lon="35.3549000">
<ele>-101.290001</ele>
<time>2022-11-23T10:25:13.332Z</time>
</trkpt>
<trkpt lat="31.2891100" lon="35.3549300">
<ele>-100.270004</ele>
<time>2022-11-23T10:25:13.332Z</time>
</trkpt>
<trkpt lat="31.2892400" lon="35.3549400">
<ele>-99.050003</ele>
<time>2022-11-23T10:25:13.332Z</time>
</trkpt>
<trkpt lat="31.2893400" lon="35.3549900">
<ele>-98.400002</ele>
<time>2022-11-23T10:25:13.332Z</time>
</trkpt>
<trkpt lat="31.2894400" lon="35.3550000">
<ele>-98.019997</ele>
<time>2022-11-23T10:25:13.332Z</time>
</trkpt>
<trkpt lat="31.2896400" lon="35.3549800">
<ele>-97.250000</ele>
<time>2022-11-23T10:25:13.332Z</time>
</trkpt>
<trkpt lat="31.2896700" lon="35.3549600">
<ele>-97.070000</ele>
<time>2022-11-23T10:25:13.332Z</time>
</trkpt>
<trkpt lat="31.2897300" lon="35.3548900">
<ele>-96.550003</ele>
<time>2022-11-23T10:25:13.332Z</time>
</trkpt>
<trkpt lat="31.2897600" lon="35.3546900">
<ele>-95.599998</ele>
<time>2022-11-23T10:25:13.332Z</time>
</trkpt>
<trkpt lat="31.2897700" lon="35.3546500">
<ele>-95.350006</ele>
<time>2022-11-23T10:25:13.332Z</time>
</trkpt>
<trkpt lat="31.2898000" lon="35.3546100">
<ele>-94.919998</ele>
<time>2022-11-23T10:25:13.332Z</time>
</trkpt>
<trkpt lat="31.2898500" lon="35.3545900">
<ele>-94.389999</ele>
<time>2022-11-23T10:25:13.332Z</time>
</trkpt>
<trkpt lat="31.2900500" lon="35.3544500">
<ele>-91.860001</ele>
<time>2022-11-23T10:25:13.332Z</time>
</trkpt>
<trkpt lat="31.2900800" lon="35.3544400">
<ele>-91.720001</ele>
<time>2022-11-23T10:25:13.332Z</time>
</trkpt>
<trkpt lat="31.2901000" lon="35.3544600">
<ele>-91.769997</ele>
<time>2022-11-23T10:25:13.332Z</time>
</trkpt>
<trkpt lat="31.2905200" lon="35.3543700">
<ele>-91.470001</ele>
<time>2022-11-23T10:25:13.332Z</time>
</trkpt>
<trkpt lat="31.2906200" lon="35.3543300">
<ele>-91.039993</ele>
<time>2022-11-23T10:25:13.332Z</time>
</trkpt>
<trkpt lat="31.2907500" lon="35.3542500">
<ele>-90.389999</ele>
<time>2022-11-23T10:25:13.332Z</time>
</trkpt>
<trkpt lat="31.2908800" lon="35.3541400">
<ele>-89.700005</ele>
<time>2022-11-23T10:25:13.332Z</time>
</trkpt>
<trkpt lat="31.2909700" lon="35.3540600">
<ele>-89.390007</ele>
<time>2022-11-23T10:25:13.332Z</time>
</trkpt>
<trkpt lat="31.2911100" lon="35.3539400">
<ele>-89.629997</ele>
<time>2022-11-23T10:25:13.332Z</time>
</trkpt>
<trkpt lat="31.2912500" lon="35.3538800">
<ele>-89.900002</ele>
<time>2022-11-23T10:25:13.333Z</time>
</trkpt>
<trkpt lat="31.2917200" lon="35.3537200">
<ele>-88.470001</ele>
<time>2022-11-23T10:25:13.333Z</time>
</trkpt>
<trkpt lat="31.2918800" lon="35.3536600">
<ele>-88.930008</ele>
<time>2022-11-23T10:25:13.333Z</time>
</trkpt>
<trkpt lat="31.2919600" lon="35.3536100">
<ele>-89.059998</ele>
<time>2022-11-23T10:25:13.333Z</time>
</trkpt>
<trkpt lat="31.2920500" lon="35.3535500">
<ele>-89.459999</ele>
<time>2022-11-23T10:25:13.333Z</time>
</trkpt>
<trkpt lat="31.2920800" lon="35.3535000">
<ele>-89.679993</ele>
<time>2022-11-23T10:25:13.333Z</time>
</trkpt>
<trkpt lat="31.2921300" lon="35.3534000">
<ele>-90.180000</ele>
<time>2022-11-23T10:25:13.333Z</time>
</trkpt>
<trkpt lat="31.2924000" lon="35.3526200">
<ele>-92.790001</ele>
<time>2022-11-23T10:25:13.333Z</time>
</trkpt>
<trkpt lat="31.2925000" lon="35.3522300">
<ele>-94.059998</ele>
<time>2022-11-23T10:25:13.333Z</time>
</trkpt>
<trkpt lat="31.2926400" lon="35.3516100">
<ele>-89.799995</ele>
<time>2022-11-23T10:25:13.333Z</time>
</trkpt>
<trkpt lat="31.2928500" lon="35.3507700">
<ele>-85.199997</ele>
<time>2022-11-23T10:25:13.333Z</time>
</trkpt>
<trkpt lat="31.2929000" lon="35.3506600">
<ele>-85.169998</ele>
<time>2022-11-23T10:25:13.333Z</time>
</trkpt>
<trkpt lat="31.2930100" lon="35.3504300">
<ele>-84.400002</ele>
<time>2022-11-23T10:25:13.333Z</time>
</trkpt>
<trkpt lat="31.2930900" lon="35.3502500">
<ele>-83.950005</ele>
<time>2022-11-23T10:25:13.333Z</time>
</trkpt>
<trkpt lat="31.2933000" lon="35.3498100">
<ele>-82.359993</ele>
<time>2022-11-23T10:25:13.333Z</time>
</trkpt>
<trkpt lat="31.2935400" lon="35.3493000">
<ele>-81.899994</ele>
<time>2022-11-23T10:25:13.333Z</time>
</trkpt>
<trkpt lat="31.2937000" lon="35.3489100">
<ele>-81.059998</ele>
<time>2022-11-23T10:25:13.333Z</time>
</trkpt>
<trkpt lat="31.2940400" lon="35.3480100">
<ele>-75.909996</ele>
<time>2022-11-23T10:25:13.333Z</time>
</trkpt>
<trkpt lat="31.2941200" lon="35.3477700">
<ele>-75.139999</ele>
<time>2022-11-23T10:25:13.333Z</time>
</trkpt>
<trkpt lat="31.2943400" lon="35.3472200">
<ele>-74.629997</ele>
<time>2022-11-23T10:25:13.333Z</time>
</trkpt>
<trkpt lat="31.2944300" lon="35.3468700">
<ele>-75.950005</ele>
<time>2022-11-23T10:25:13.333Z</time>
</trkpt>
<trkpt lat="31.2945800" lon="35.3465100">
<ele>-75.510002</ele>
<time>2022-11-23T10:25:13.333Z</time>
</trkpt>
<trkpt lat="31.2946700" lon="35.3462500">
<ele>-74.190002</ele>
<time>2022-11-23T10:25:13.333Z</time>
</trkpt>
<trkpt lat="31.2947500" lon="35.3461400">
<ele>-73.300003</ele>
<time>2022-11-23T10:25:13.333Z</time>
</trkpt>
<trkpt lat="31.2948000" lon="35.3461100">
<ele>-73.290001</ele>
<time>2022-11-23T10:25:13.333Z</time>
</trkpt>
<trkpt lat="31.2951000" lon="35.3460100">
<ele>-75.909996</ele>
<time>2022-11-23T10:25:13.333Z</time>
</trkpt>
<trkpt lat="31.2951800" lon="35.3459600">
<ele>-76.870003</ele>
<time>2022-11-23T10:25:13.334Z</time>
</trkpt>
<trkpt lat="31.2953000" lon="35.3458300">
<ele>-77.930000</ele>
<time>2022-11-23T10:25:13.334Z</time>
</trkpt>
<trkpt lat="31.2953800" lon="35.3457700">
<ele>-77.610001</ele>
<time>2022-11-23T10:25:13.334Z</time>
</trkpt>
<trkpt lat="31.2956500" lon="35.3456800">
<ele>-75.440002</ele>
<time>2022-11-23T10:25:13.334Z</time>
</trkpt>
<trkpt lat="31.2963200" lon="35.3453700">
<ele>-68.500000</ele>
<time>2022-11-23T10:25:13.334Z</time>
</trkpt>
<trkpt lat="31.2965800" lon="35.3452600">
<ele>-67.900002</ele>
<time>2022-11-23T10:25:13.334Z</time>
</trkpt>
<trkpt lat="31.2966500" lon="35.3451700">
<ele>-69.010002</ele>
<time>2022-11-23T10:25:13.334Z</time>
</trkpt>
<trkpt lat="31.2968000" lon="35.3448700">
<ele>-69.570000</ele>
<time>2022-11-23T10:25:13.334Z</time>
</trkpt>
<trkpt lat="31.2968800" lon="35.3447800">
<ele>-68.610001</ele>
<time>2022-11-23T10:25:13.334Z</time>
</trkpt>
<trkpt lat="31.2968900" lon="35.3447700">
<ele>-68.510002</ele>
<time>2022-11-23T10:25:13.334Z</time>
</trkpt>
<trkpt lat="31.2969800" lon="35.3446900">
<ele>-67.370003</ele>
<time>2022-11-23T10:25:13.334Z</time>
</trkpt>
<trkpt lat="31.2971300" lon="35.3445900">
<ele>-64.980003</ele>
<time>2022-11-23T10:25:13.334Z</time>
</trkpt>
<trkpt lat="31.2972600" lon="35.3444500">
<ele>-63.570000</ele>
<time>2022-11-23T10:25:13.334Z</time>
</trkpt>
<trkpt lat="31.2972500" lon="35.3444600">
<ele>-63.639999</ele>
<time>2022-11-23T10:25:13.334Z</time>
</trkpt>
<trkpt lat="31.2973100" lon="35.3444000">
<ele>-63.150002</ele>
<time>2022-11-23T10:25:13.334Z</time>
</trkpt>
<trkpt lat="31.2973400" lon="35.3443700">
<ele>-62.959999</ele>
<time>2022-11-23T10:25:13.334Z</time>
</trkpt>
<trkpt lat="31.2973700" lon="35.3443500">
<ele>-62.770000</ele>
<time>2022-11-23T10:25:13.334Z</time>
</trkpt>
<trkpt lat="31.2973900" lon="35.3443200">
<ele>-62.730000</ele>
<time>2022-11-23T10:25:13.334Z</time>
</trkpt>
<trkpt lat="31.2974100" lon="35.3443100">
<ele>-62.630001</ele>
<time>2022-11-23T10:25:13.334Z</time>
</trkpt>
<trkpt lat="31.2974200" lon="35.3442900">
<ele>-62.660000</ele>
<time>2022-11-23T10:25:13.334Z</time>
</trkpt>
<trkpt lat="31.2974800" lon="35.3442300">
<ele>-62.649998</ele>
<time>2022-11-23T10:25:13.334Z</time>
</trkpt>
<trkpt lat="31.2975200" lon="35.3441900">
<ele>-62.560001</ele>
<time>2022-11-23T10:25:13.334Z</time>
</trkpt>
<trkpt lat="31.2976000" lon="35.3440800">
<ele>-60.940002</ele>
<time>2022-11-23T10:25:13.334Z</time>
</trkpt>
<trkpt lat="31.2977800" lon="35.3438100">
<ele>-56.980000</ele>
<time>2022-11-23T10:25:13.334Z</time>
</trkpt>
<trkpt lat="31.2978200" lon="35.3436800">
<ele>-56.470001</ele>
<time>2022-11-23T10:25:13.334Z</time>
</trkpt>
<trkpt lat="31.2978400" lon="35.3436000">
<ele>-56.109997</ele>
<time>2022-11-23T10:25:13.335Z</time>
</trkpt>
<trkpt lat="31.2978500" lon="35.3435600">
<ele>-56.009998</ele>
<time>2022-11-23T10:25:13.335Z</time>
</trkpt>
<trkpt lat="31.2978800" lon="35.3435300">
<ele>-55.639999</ele>
<time>2022-11-23T10:25:13.335Z</time>
</trkpt>
<trkpt lat="31.2978800" lon="35.3434400">
<ele>-55.750000</ele>
<time>2022-11-23T10:25:13.335Z</time>
</trkpt>
<trkpt lat="31.2979500" lon="35.3433300">
<ele>-55.140003</ele>
<time>2022-11-23T10:25:13.335Z</time>
</trkpt>
<trkpt lat="31.2979700" lon="35.3433100">
<ele>-54.950001</ele>
<time>2022-11-23T10:25:13.335Z</time>
</trkpt>
<trkpt lat="31.2980100" lon="35.3432600">
<ele>-54.540001</ele>
<time>2022-11-23T10:25:13.335Z</time>
</trkpt>
<trkpt lat="31.2980500" lon="35.3432200">
<ele>-54.070004</ele>
<time>2022-11-23T10:25:13.335Z</time>
</trkpt>
<trkpt lat="31.2980700" lon="35.3432100">
<ele>-53.850002</ele>
<time>2022-11-23T10:25:13.335Z</time>
</trkpt>
<trkpt lat="31.2981100" lon="35.3431500">
<ele>-53.349998</ele>
<time>2022-11-23T10:25:13.335Z</time>
</trkpt>
<trkpt lat="31.2982000" lon="35.3430700">
<ele>-51.970001</ele>
<time>2022-11-23T10:25:13.335Z</time>
</trkpt>
<trkpt lat="31.2982400" lon="35.3430200">
<ele>-51.509998</ele>
<time>2022-11-23T10:25:13.335Z</time>
</trkpt>
<trkpt lat="31.2983000" lon="35.3429800">
<ele>-50.960003</ele>
<time>2022-11-23T10:25:13.335Z</time>
</trkpt>
<trkpt lat="31.2983900" lon="35.3429200">
<ele>-50.680000</ele>
<time>2022-11-23T10:25:13.335Z</time>
</trkpt>
<trkpt lat="31.2985400" lon="35.3428300">
<ele>-49.810001</ele>
<time>2022-11-23T10:25:13.335Z</time>
</trkpt>
<trkpt lat="31.2987000" lon="35.3427200">
<ele>-49.389999</ele>
<time>2022-11-23T10:25:13.335Z</time>
</trkpt>
<trkpt lat="31.2987800" lon="35.3426400">
<ele>-49.500000</ele>
<time>2022-11-23T10:25:13.335Z</time>
</trkpt>
<trkpt lat="31.2989200" lon="35.3424600">
<ele>-48.680000</ele>
<time>2022-11-23T10:25:13.335Z</time>
</trkpt>
<trkpt lat="31.2990500" lon="35.3423700">
<ele>-48.180000</ele>
<time>2022-11-23T10:25:13.335Z</time>
</trkpt>
<trkpt lat="31.2991100" lon="35.3423200">
<ele>-47.849998</ele>
<time>2022-11-23T10:25:13.335Z</time>
</trkpt>
<trkpt lat="31.2992200" lon="35.3422700">
<ele>-47.259998</ele>
<time>2022-11-23T10:25:13.335Z</time>
</trkpt>
<trkpt lat="31.2993000" lon="35.3422600">
<ele>-46.799999</ele>
<time>2022-11-23T10:25:13.335Z</time>
</trkpt>
<trkpt lat="31.3000000" lon="35.3424900">
<ele>-46.000000</ele>
<time>2022-11-23T10:25:13.335Z</time>
</trkpt>
<trkpt lat="31.3001500" lon="35.3424800">
<ele>-46.040001</ele>
<time>2022-11-23T10:25:13.335Z</time>
</trkpt>
<trkpt lat="31.3003900" lon="35.3424100">
<ele>-47.809998</ele>
<time>2022-11-23T10:25:13.335Z</time>
</trkpt>
<trkpt lat="31.3009500" lon="35.3422800">
<ele>-46.920002</ele>
<time>2022-11-23T10:25:13.335Z</time>
</trkpt>
<trkpt lat="31.3010400" lon="35.3422400">
<ele>-47.099998</ele>
<time>2022-11-23T10:25:13.335Z</time>
</trkpt>
<trkpt lat="31.3013000" lon="35.3422000">
<ele>-49.009998</ele>
<time>2022-11-23T10:25:13.335Z</time>
</trkpt>
<trkpt lat="31.3014300" lon="35.3421600">
<ele>-48.799999</ele>
<time>2022-11-23T10:25:13.336Z</time>
</trkpt>
<trkpt lat="31.3016700" lon="35.3419700">
<ele>-45.790001</ele>
<time>2022-11-23T10:25:13.336Z</time>
</trkpt>
<trkpt lat="31.3017800" lon="35.3419100">
<ele>-45.259998</ele>
<time>2022-11-23T10:25:13.336Z</time>
</trkpt>
<trkpt lat="31.3018500" lon="35.3418700">
<ele>-44.770000</ele>
<time>2022-11-23T10:25:13.336Z</time>
</trkpt>
<trkpt lat="31.3019100" lon="35.3418100">
<ele>-44.309998</ele>
<time>2022-11-23T10:25:13.336Z</time>
</trkpt>
<trkpt lat="31.3019200" lon="35.3417900">
<ele>-44.219997</ele>
<time>2022-11-23T10:25:13.336Z</time>
</trkpt>
<trkpt lat="31.3019500" lon="35.3417400">
<ele>-43.980000</ele>
<time>2022-11-23T10:25:13.336Z</time>
</trkpt>
<trkpt lat="31.3020000" lon="35.3416600">
<ele>-43.840000</ele>
<time>2022-11-23T10:25:13.336Z</time>
</trkpt>
<trkpt lat="31.3020600" lon="35.3415900">
<ele>-43.720001</ele>
<time>2022-11-23T10:25:13.336Z</time>
</trkpt>
<trkpt lat="31.3021500" lon="35.3414400">
<ele>-42.079998</ele>
<time>2022-11-23T10:25:13.336Z</time>
</trkpt>
<trkpt lat="31.3022500" lon="35.3411800">
<ele>-44.540001</ele>
<time>2022-11-23T10:25:13.336Z</time>
</trkpt>
<trkpt lat="31.3022600" lon="35.3411600">
<ele>-44.930000</ele>
<time>2022-11-23T10:25:13.336Z</time>
</trkpt>
<trkpt lat="31.3023200" lon="35.3410800">
<ele>-45.460003</ele>
<time>2022-11-23T10:25:13.336Z</time>
</trkpt>
<trkpt lat="31.3024500" lon="35.3410000">
<ele>-44.119999</ele>
<time>2022-11-23T10:25:13.336Z</time>
</trkpt>
<trkpt lat="31.3026500" lon="35.3410100">
<ele>-41.259998</ele>
<time>2022-11-23T10:25:13.336Z</time>
</trkpt>
<trkpt lat="31.3027200" lon="35.3409800">
<ele>-39.949997</ele>
<time>2022-11-23T10:25:13.336Z</time>
</trkpt>
<trkpt lat="31.3028700" lon="35.3409000">
<ele>-37.830002</ele>
<time>2022-11-23T10:25:13.336Z</time>
</trkpt>
<trkpt lat="31.3030200" lon="35.3408000">
<ele>-35.420002</ele>
<time>2022-11-23T10:25:13.336Z</time>
</trkpt>
<trkpt lat="31.3030300" lon="35.3407900">
<ele>-35.240002</ele>
<time>2022-11-23T10:25:13.336Z</time>
</trkpt>
<trkpt lat="31.3030600" lon="35.3407600">
<ele>-34.810001</ele>
<time>2022-11-23T10:25:13.336Z</time>
</trkpt>
<trkpt lat="31.3030700" lon="35.3407500">
<ele>-34.930000</ele>
<time>2022-11-23T10:25:13.336Z</time>
</trkpt>
<trkpt lat="31.3031200" lon="35.3406500">
<ele>-35.190002</ele>
<time>2022-11-23T10:25:13.336Z</time>
</trkpt>
<trkpt lat="31.3031300" lon="35.3405100">
<ele>-34.840000</ele>
<time>2022-11-23T10:25:13.336Z</time>
</trkpt>
<trkpt lat="31.3030600" lon="35.3398500">
<ele>-33.980000</ele>
<time>2022-11-23T10:25:13.336Z</time>
</trkpt>
<trkpt lat="31.3030800" lon="35.3393200">
<ele>-32.540001</ele>
<time>2022-11-23T10:25:13.336Z</time>
</trkpt>
<trkpt lat="31.3030300" lon="35.3384700">
<ele>-32.760002</ele>
<time>2022-11-23T10:25:13.336Z</time>
</trkpt>
<trkpt lat="31.3030700" lon="35.3376700">
<ele>-28.049999</ele>
<time>2022-11-23T10:25:13.336Z</time>
</trkpt>
<trkpt lat="31.3031000" lon="35.3375600">
<ele>-26.520000</ele>
<time>2022-11-23T10:25:13.337Z</time>
</trkpt>
<trkpt lat="31.3032200" lon="35.3373500">
<ele>-23.179998</ele>
<time>2022-11-23T10:25:13.337Z</time>
</trkpt>
<trkpt lat="31.3032800" lon="35.3372100">
<ele>-22.189999</ele>
<time>2022-11-23T10:25:13.337Z</time>
</trkpt>
<trkpt lat="31.3033300" lon="35.3371400">
<ele>-21.360001</ele>
<time>2022-11-23T10:25:13.337Z</time>
</trkpt>
<trkpt lat="31.3033700" lon="35.3371100">
<ele>-21.080000</ele>
<time>2022-11-23T10:25:13.337Z</time>
</trkpt>
<trkpt lat="31.3034300" lon="35.3370800">
<ele>-20.439999</ele>
<time>2022-11-23T10:25:13.337Z</time>
</trkpt>
<trkpt lat="31.3035700" lon="35.3370900">
<ele>-19.039999</ele>
<time>2022-11-23T10:25:13.337Z</time>
</trkpt>
<trkpt lat="31.3038800" lon="35.3370000">
<ele>-20.100000</ele>
<time>2022-11-23T10:25:13.337Z</time>
</trkpt>
<trkpt lat="31.3039300" lon="35.3369700">
<ele>-20.279999</ele>
<time>2022-11-23T10:25:13.337Z</time>
</trkpt>
<trkpt lat="31.3039900" lon="35.3369100">
<ele>-20.340000</ele>
<time>2022-11-23T10:25:13.337Z</time>
</trkpt>
<trkpt lat="31.3040900" lon="35.3367900">
<ele>-21.049999</ele>
<time>2022-11-23T10:25:13.337Z</time>
</trkpt>
<trkpt lat="31.3041500" lon="35.3367000">
<ele>-21.780001</ele>
<time>2022-11-23T10:25:13.337Z</time>
</trkpt>
<trkpt lat="31.3041800" lon="35.3366700">
<ele>-22.310001</ele>
<time>2022-11-23T10:25:13.337Z</time>
</trkpt>
<trkpt lat="31.3042400" lon="35.3366200">
<ele>-23.829998</ele>
<time>2022-11-23T10:25:13.337Z</time>
</trkpt>
<trkpt lat="31.3042400" lon="35.3366300">
<ele>-23.779999</ele>
<time>2022-11-23T10:25:13.337Z</time>
</trkpt>
<trkpt lat="31.3042600" lon="35.3366000">
<ele>-24.330002</ele>
<time>2022-11-23T10:25:13.337Z</time>
</trkpt>
<trkpt lat="31.3043300" lon="35.3365700">
<ele>-25.809999</ele>
<time>2022-11-23T10:25:13.337Z</time>
</trkpt>
<trkpt lat="31.3044800" lon="35.3365900">
<ele>-28.000000</ele>
<time>2022-11-23T10:25:13.337Z</time>
</trkpt>
<trkpt lat="31.3045200" lon="35.3366300">
<ele>-28.000000</ele>
<time>2022-11-23T10:25:13.337Z</time>
</trkpt>
<trkpt lat="31.3045900" lon="35.3367700">
<ele>-27.840000</ele>
<time>2022-11-23T10:25:13.337Z</time>
</trkpt>
<trkpt lat="31.3046800" lon="35.3369000">
<ele>-28.460001</ele>
<time>2022-11-23T10:25:13.337Z</time>
</trkpt>
<trkpt lat="31.3047600" lon="35.3369900">
<ele>-27.889999</ele>
<time>2022-11-23T10:25:13.337Z</time>
</trkpt>
<trkpt lat="31.3048600" lon="35.3369800">
<ele>-26.330000</ele>
<time>2022-11-23T10:25:13.337Z</time>
</trkpt>
<trkpt lat="31.3048700" lon="35.3369300">
<ele>-26.320000</ele>
<time>2022-11-23T10:25:13.337Z</time>
</trkpt>
<trkpt lat="31.3048000" lon="35.3368700">
<ele>-27.410000</ele>
<time>2022-11-23T10:25:13.337Z</time>
</trkpt>
<trkpt lat="31.3047000" lon="35.3367700">
<ele>-28.279999</ele>
<time>2022-11-23T10:25:13.337Z</time>
</trkpt>
<trkpt lat="31.3046800" lon="35.3366400">
<ele>-28.000000</ele>
<time>2022-11-23T10:25:13.337Z</time>
</trkpt>
<trkpt lat="31.3046100" lon="35.3363500">
<ele>-27.720001</ele>
<time>2022-11-23T10:25:13.337Z</time>
</trkpt>
<trkpt lat="31.3045500" lon="35.3363100">
<ele>-27.740000</ele>
<time>2022-11-23T10:25:13.338Z</time>
</trkpt>
<trkpt lat="31.3045400" lon="35.3362600">
<ele>-27.670000</ele>
<time>2022-11-23T10:25:13.338Z</time>
</trkpt>
<trkpt lat="31.3045400" lon="35.3361400">
<ele>-27.350000</ele>
<time>2022-11-23T10:25:13.338Z</time>
</trkpt>
<trkpt lat="31.3046000" lon="35.3358800">
<ele>-21.570000</ele>
<time>2022-11-23T10:25:13.338Z</time>
</trkpt>
<trkpt lat="31.3046600" lon="35.3355600">
<ele>-11.470000</ele>
<time>2022-11-23T10:25:13.338Z</time>
</trkpt>
<trkpt lat="31.3046800" lon="35.3355100">
<ele>-8.340000</ele>
<time>2022-11-23T10:25:13.338Z</time>
</trkpt>
<trkpt lat="31.3048300" lon="35.3356600">
<ele>-9.950000</ele>
<time>2022-11-23T10:25:13.338Z</time>
</trkpt>
<trkpt lat="31.3051800" lon="35.3359000">
<ele>-6.500000</ele>
<time>2022-11-23T10:25:13.338Z</time>
</trkpt>
<trkpt lat="31.3056400" lon="35.3361500">
<ele>-8.320000</ele>
<time>2022-11-23T10:25:13.338Z</time>
</trkpt>
<trkpt lat="31.3059800" lon="35.3364000">
<ele>-12.020000</ele>
<time>2022-11-23T10:25:13.338Z</time>
</trkpt>
<trkpt lat="31.3062500" lon="35.3365500">
<ele>-12.660001</ele>
<time>2022-11-23T10:25:13.338Z</time>
</trkpt>
<trkpt lat="31.3063300" lon="35.3365100">
<ele>-12.590000</ele>
<time>2022-11-23T10:25:13.338Z</time>
</trkpt>
<trkpt lat="31.3063900" lon="35.3363200">
<ele>-10.260000</ele>
<time>2022-11-23T10:25:13.338Z</time>
</trkpt>
<trkpt lat="31.3064000" lon="35.3362100">
<ele>-9.040000</ele>
<time>2022-11-23T10:25:13.338Z</time>
</trkpt>
<trkpt lat="31.3065500" lon="35.3362800">
<ele>-9.600000</ele>
<time>2022-11-23T10:25:13.338Z</time>
</trkpt>
<trkpt lat="31.3066100" lon="35.3362500">
<ele>-9.099999</ele>
<time>2022-11-23T10:25:13.338Z</time>
</trkpt>
<trkpt lat="31.3066600" lon="35.3361700">
<ele>-7.870000</ele>
<time>2022-11-23T10:25:13.338Z</time>
</trkpt>
<trkpt lat="31.3068400" lon="35.3360800">
<ele>-7.060000</ele>
<time>2022-11-23T10:25:13.338Z</time>
</trkpt>
<trkpt lat="31.3069500" lon="35.3360000">
<ele>-6.020000</ele>
<time>2022-11-23T10:25:13.338Z</time>
</trkpt>
<trkpt lat="31.3070800" lon="35.3359900">
<ele>-6.310000</ele>
<time>2022-11-23T10:25:13.338Z</time>
</trkpt>
<trkpt lat="31.3072600" lon="35.3359500">
<ele>-6.180000</ele>
<time>2022-11-23T10:25:13.338Z</time>
</trkpt>
<trkpt lat="31.3074300" lon="35.3359300">
<ele>-6.230000</ele>
<time>2022-11-23T10:25:13.338Z</time>
</trkpt>
<trkpt lat="31.3075600" lon="35.3359400">
<ele>-6.070000</ele>
<time>2022-11-23T10:25:13.338Z</time>
</trkpt>
<trkpt lat="31.3076800" lon="35.3358600">
<ele>-4.550000</ele>
<time>2022-11-23T10:25:13.338Z</time>
</trkpt>
<trkpt lat="31.3078100" lon="35.3357800">
<ele>-2.750000</ele>
<time>2022-11-23T10:25:13.338Z</time>
</trkpt>
<trkpt lat="31.3080300" lon="35.3357900">
<ele>0.400000</ele>
<time>2022-11-23T10:25:13.338Z</time>
</trkpt>
<trkpt lat="31.3081800" lon="35.3358000">
<ele>0.260000</ele>
<time>2022-11-23T10:25:13.339Z</time>
</trkpt>
<trkpt lat="31.3083900" lon="35.3357400">
<ele>1.290000</ele>
<time>2022-11-23T10:25:13.339Z</time>
</trkpt>
<trkpt lat="31.3086100" lon="35.3357600">
<ele>0.380000</ele>
<time>2022-11-23T10:25:13.339Z</time>
</trkpt>
<trkpt lat="31.3087300" lon="35.3358900">
<ele>-1.750000</ele>
<time>2022-11-23T10:25:13.339Z</time>
</trkpt>
<trkpt lat="31.3089400" lon="35.3359100">
<ele>-1.000000</ele>
<time>2022-11-23T10:25:13.339Z</time>
</trkpt>
<trkpt lat="31.3090300" lon="35.3358600">
<ele>0.330000</ele>
<time>2022-11-23T10:25:13.339Z</time>
</trkpt>
<trkpt lat="31.3091500" lon="35.3358800">
<ele>1.480000</ele>
<time>2022-11-23T10:25:13.339Z</time>
</trkpt>
<trkpt lat="31.3092800" lon="35.3358000">
<ele>5.640000</ele>
<time>2022-11-23T10:25:13.339Z</time>
</trkpt>
<trkpt lat="31.3093900" lon="35.3357800">
<ele>8.360001</ele>
<time>2022-11-23T10:25:13.339Z</time>
</trkpt>
<trkpt lat="31.3095500" lon="35.3357600">
<ele>10.490001</ele>
<time>2022-11-23T10:25:13.339Z</time>
</trkpt>
<trkpt lat="31.3097100" lon="35.3357500">
<ele>11.530000</ele>
<time>2022-11-23T10:25:13.339Z</time>
</trkpt>
<trkpt lat="31.3098300" lon="35.3357000">
<ele>13.500000</ele>
<time>2022-11-23T10:25:13.339Z</time>
</trkpt>
<trkpt lat="31.3099100" lon="35.3357500">
<ele>14.030000</ele>
<time>2022-11-23T10:25:13.339Z</time>
</trkpt>
<trkpt lat="31.3100400" lon="35.3357200">
<ele>15.740000</ele>
<time>2022-11-23T10:25:13.339Z</time>
</trkpt>
<trkpt lat="31.3102000" lon="35.3356900">
<ele>16.389999</ele>
<time>2022-11-23T10:25:13.339Z</time>
</trkpt>
<trkpt lat="31.3103000" lon="35.3356300">
<ele>16.629999</ele>
<time>2022-11-23T10:25:13.339Z</time>
</trkpt>
<trkpt lat="31.3103800" lon="35.3355800">
<ele>16.510000</ele>
<time>2022-11-23T10:25:13.339Z</time>
</trkpt>
<trkpt lat="31.3105000" lon="35.3355800">
<ele>16.040001</ele>
<time>2022-11-23T10:25:13.339Z</time>
</trkpt>
<trkpt lat="31.3107100" lon="35.3356200">
<ele>15.660000</ele>
<time>2022-11-23T10:25:13.339Z</time>
</trkpt>
<trkpt lat="31.3111100" lon="35.3359000">
<ele>14.760000</ele>
<time>2022-11-23T10:25:13.339Z</time>
</trkpt>
<trkpt lat="31.3111900" lon="35.3359800">
<ele>14.309999</ele>
<time>2022-11-23T10:25:13.339Z</time>
</trkpt>
<trkpt lat="31.3112500" lon="35.3359600">
<ele>14.360001</ele>
<time>2022-11-23T10:25:13.339Z</time>
</trkpt>
<trkpt lat="31.3113000" lon="35.3359000">
<ele>14.950000</ele>
<time>2022-11-23T10:25:13.339Z</time>
</trkpt>
<trkpt lat="31.3111200" lon="35.3356600">
<ele>15.719999</ele>
<time>2022-11-23T10:25:13.339Z</time>
</trkpt>
<trkpt lat="31.3110300" lon="35.3354300">
<ele>17.809999</ele>
<time>2022-11-23T10:25:13.339Z</time>
</trkpt>
<trkpt lat="31.3108900" lon="35.3353100">
<ele>19.540001</ele>
<time>2022-11-23T10:25:13.339Z</time>
</trkpt>
<trkpt lat="31.3106700" lon="35.3352600">
<ele>20.320000</ele>
<time>2022-11-23T10:25:13.339Z</time>
</trkpt>
<trkpt lat="31.3105600" lon="35.3351900">
<ele>21.580000</ele>
<time>2022-11-23T10:25:13.339Z</time>
</trkpt>
<trkpt lat="31.3106000" lon="35.3351400">
<ele>22.480000</ele>
<time>2022-11-23T10:25:13.340Z</time>
</trkpt>
<trkpt lat="31.3107700" lon="35.3351800">
<ele>21.760000</ele>
<time>2022-11-23T10:25:13.340Z</time>
</trkpt>
<trkpt lat="31.3109600" lon="35.3352400">
<ele>20.870001</ele>
<time>2022-11-23T10:25:13.340Z</time>
</trkpt>
<trkpt lat="31.3112100" lon="35.3353700">
<ele>20.570000</ele>
<time>2022-11-23T10:25:13.340Z</time>
</trkpt>
<trkpt lat="31.3114800" lon="35.3354500">
<ele>23.090000</ele>
<time>2022-11-23T10:25:13.340Z</time>
</trkpt>
<trkpt lat="31.3118100" lon="35.3354700">
<ele>26.880001</ele>
<time>2022-11-23T10:25:13.340Z</time>
</trkpt>
<trkpt lat="31.3119900" lon="35.3353000">
<ele>28.710001</ele>
<time>2022-11-23T10:25:13.340Z</time>
</trkpt>
<trkpt lat="31.3121800" lon="35.3352700">
<ele>27.369999</ele>
<time>2022-11-23T10:25:13.340Z</time>
</trkpt>
<trkpt lat="31.3123100" lon="35.3354200">
<ele>30.740000</ele>
<time>2022-11-23T10:25:13.340Z</time>
</trkpt>
<trkpt lat="31.3124000" lon="35.3354300">
<ele>33.060001</ele>
<time>2022-11-23T10:25:13.340Z</time>
</trkpt>
<trkpt lat="31.3125700" lon="35.3354100">
<ele>36.760002</ele>
<time>2022-11-23T10:25:13.340Z</time>
</trkpt>
<trkpt lat="31.3125600" lon="35.3353600">
<ele>36.549999</ele>
<time>2022-11-23T10:25:13.340Z</time>
</trkpt>
<trkpt lat="31.3123000" lon="35.3352200">
<ele>29.809999</ele>
<time>2022-11-23T10:25:13.340Z</time>
</trkpt>
<trkpt lat="31.3123100" lon="35.3351700">
<ele>30.570000</ele>
<time>2022-11-23T10:25:13.340Z</time>
</trkpt>
<trkpt lat="31.3123800" lon="35.3351700">
<ele>32.490002</ele>
<time>2022-11-23T10:25:13.340Z</time>
</trkpt>
<trkpt lat="31.3126900" lon="35.3352800">
<ele>39.770000</ele>
<time>2022-11-23T10:25:13.340Z</time>
</trkpt>
<trkpt lat="31.3128100" lon="35.3352700">
<ele>42.660000</ele>
<time>2022-11-23T10:25:13.340Z</time>
</trkpt>
<trkpt lat="31.3127000" lon="35.3351600">
<ele>40.890003</ele>
<time>2022-11-23T10:25:13.340Z</time>
</trkpt>
<trkpt lat="31.3125800" lon="35.3350800">
<ele>38.439999</ele>
<time>2022-11-23T10:25:13.340Z</time>
</trkpt>
<trkpt lat="31.3124900" lon="35.3349400">
<ele>37.410000</ele>
<time>2022-11-23T10:25:13.340Z</time>
</trkpt>
<trkpt lat="31.3125300" lon="35.3349000">
<ele>38.799999</ele>
<time>2022-11-23T10:25:13.340Z</time>
</trkpt>
<trkpt lat="31.3126200" lon="35.3350000">
<ele>40.020000</ele>
<time>2022-11-23T10:25:13.340Z</time>
</trkpt>
<trkpt lat="31.3127800" lon="35.3350700">
<ele>43.570000</ele>
<time>2022-11-23T10:25:13.340Z</time>
</trkpt>
<trkpt lat="31.3129500" lon="35.3350900">
<ele>48.970001</ele>
<time>2022-11-23T10:25:13.340Z</time>
</trkpt>
<trkpt lat="31.3131800" lon="35.3351500">
<ele>51.130001</ele>
<time>2022-11-23T10:25:13.340Z</time>
</trkpt>
<trkpt lat="31.3132000" lon="35.3351000">
<ele>52.639999</ele>
<time>2022-11-23T10:25:13.340Z</time>
</trkpt>
<trkpt lat="31.3131000" lon="35.3349800">
<ele>55.210003</ele>
<time>2022-11-23T10:25:13.340Z</time>
</trkpt>
<trkpt lat="31.3128700" lon="35.3348200">
<ele>48.520000</ele>
<time>2022-11-23T10:25:13.341Z</time>
</trkpt>
<trkpt lat="31.3127400" lon="35.3346800">
<ele>46.570000</ele>
<time>2022-11-23T10:25:13.341Z</time>
</trkpt>
<trkpt lat="31.3127800" lon="35.3346400">
<ele>48.719997</ele>
<time>2022-11-23T10:25:13.341Z</time>
</trkpt>
<trkpt lat="31.3128700" lon="35.3346700">
<ele>50.309998</ele>
<time>2022-11-23T10:25:13.341Z</time>
</trkpt>
<trkpt lat="31.3129600" lon="35.3347500">
<ele>51.840000</ele>
<time>2022-11-23T10:25:13.341Z</time>
</trkpt>
<trkpt lat="31.3132900" lon="35.3348600">
<ele>57.549999</ele>
<time>2022-11-23T10:25:13.341Z</time>
</trkpt>
<trkpt lat="31.3133200" lon="35.3348400">
<ele>58.149998</ele>
<time>2022-11-23T10:25:13.341Z</time>
</trkpt>
<trkpt lat="31.3131300" lon="35.3346700">
<ele>57.109997</ele>
<time>2022-11-23T10:25:13.341Z</time>
</trkpt>
<trkpt lat="31.3129800" lon="35.3345400">
<ele>55.590004</ele>
<time>2022-11-23T10:25:13.341Z</time>
</trkpt>
<trkpt lat="31.3130400" lon="35.3345200">
<ele>56.920002</ele>
<time>2022-11-23T10:25:13.341Z</time>
</trkpt>
<trkpt lat="31.3132000" lon="35.3346000">
<ele>59.840000</ele>
<time>2022-11-23T10:25:13.341Z</time>
</trkpt>
<trkpt lat="31.3134400" lon="35.3346300">
<ele>63.990002</ele>
<time>2022-11-23T10:25:13.341Z</time>
</trkpt>
<trkpt lat="31.3134800" lon="35.3346300">
<ele>64.610001</ele>
<time>2022-11-23T10:25:13.341Z</time>
</trkpt>
<trkpt lat="31.3135100" lon="35.3345500">
<ele>67.279999</ele>
<time>2022-11-23T10:25:13.341Z</time>
</trkpt>
<trkpt lat="31.3133200" lon="35.3344600">
<ele>66.190002</ele>
<time>2022-11-23T10:25:13.341Z</time>
</trkpt>
<trkpt lat="31.3133500" lon="35.3344200">
<ele>67.839996</ele>
<time>2022-11-23T10:25:13.341Z</time>
</trkpt>
<trkpt lat="31.3134400" lon="35.3343900">
<ele>70.320000</ele>
<time>2022-11-23T10:25:13.341Z</time>
</trkpt>
<trkpt lat="31.3135400" lon="35.3344600">
<ele>70.290001</ele>
<time>2022-11-23T10:25:13.341Z</time>
</trkpt>
<trkpt lat="31.3136800" lon="35.3344500">
<ele>72.579994</ele>
<time>2022-11-23T10:25:13.341Z</time>
</trkpt>
<trkpt lat="31.3136800" lon="35.3344500">
<ele>72.579994</ele>
<time>2022-11-23T10:25:13.341Z</time>
</trkpt>
<trkpt lat="31.3138400" lon="35.3344700">
<ele>73.739998</ele>
<time>2022-11-23T10:25:13.341Z</time>
</trkpt>
<trkpt lat="31.3142200" lon="35.3346600">
<ele>72.160004</ele>
<time>2022-11-23T10:25:13.341Z</time>
</trkpt>
<trkpt lat="31.3143400" lon="35.3347000">
<ele>72.860001</ele>
<time>2022-11-23T10:25:13.341Z</time>
</trkpt>
<trkpt lat="31.3143600" lon="35.3347500">
<ele>72.510002</ele>
<time>2022-11-23T10:25:13.341Z</time>
</trkpt>
<trkpt lat="31.3143000" lon="35.3349000">
<ele>70.330002</ele>
<time>2022-11-23T10:25:13.341Z</time>
</trkpt>
<trkpt lat="31.3144100" lon="35.3350800">
<ele>70.739998</ele>
<time>2022-11-23T10:25:13.341Z</time>
</trkpt>
<trkpt lat="31.3146500" lon="35.3353600">
<ele>70.410004</ele>
<time>2022-11-23T10:25:13.341Z</time>
</trkpt>
<trkpt lat="31.3150000" lon="35.3354200">
<ele>69.459999</ele>
<time>2022-11-23T10:25:13.341Z</time>
</trkpt>
<trkpt lat="31.3153800" lon="35.3355200">
<ele>68.349998</ele>
<time>2022-11-23T10:25:13.342Z</time>
</trkpt>
<trkpt lat="31.3157700" lon="35.3357300">
<ele>61.509998</ele>
<time>2022-11-23T10:25:13.342Z</time>
</trkpt>
<trkpt lat="31.3159700" lon="35.3360500">
<ele>61.770000</ele>
<time>2022-11-23T10:25:13.342Z</time>
</trkpt>
<trkpt lat="31.3160600" lon="35.3361200">
<ele>62.649998</ele>
<time>2022-11-23T10:25:13.342Z</time>
</trkpt>
<trkpt lat="31.3162600" lon="35.3360700">
<ele>62.779999</ele>
<time>2022-11-23T10:25:13.342Z</time>
</trkpt>
<trkpt lat="31.3164700" lon="35.3361600">
<ele>61.739998</ele>
<time>2022-11-23T10:25:13.342Z</time>
</trkpt>
<trkpt lat="31.3167800" lon="35.3363800">
<ele>53.940002</ele>
<time>2022-11-23T10:25:13.342Z</time>
</trkpt>
<trkpt lat="31.3169600" lon="35.3366400">
<ele>52.289997</ele>
<time>2022-11-23T10:25:13.342Z</time>
</trkpt>
<trkpt lat="31.3170400" lon="35.3370300">
<ele>51.899998</ele>
<time>2022-11-23T10:25:13.342Z</time>
</trkpt>
<trkpt lat="31.3170100" lon="35.3373200">
<ele>49.619999</ele>
<time>2022-11-23T10:25:13.342Z</time>
</trkpt>
<trkpt lat="31.3169000" lon="35.3375200">
<ele>47.549999</ele>
<time>2022-11-23T10:25:13.342Z</time>
</trkpt>
<trkpt lat="31.3168000" lon="35.3379400">
<ele>47.160000</ele>
<time>2022-11-23T10:25:13.342Z</time>
</trkpt>
<trkpt lat="31.3167200" lon="35.3380200">
<ele>49.459999</ele>
<time>2022-11-23T10:25:13.342Z</time>
</trkpt>
<trkpt lat="31.3166600" lon="35.3383800">
<ele>46.660000</ele>
<time>2022-11-23T10:25:13.342Z</time>
</trkpt>
<trkpt lat="31.3165800" lon="35.3386100">
<ele>40.649998</ele>
<time>2022-11-23T10:25:13.342Z</time>
</trkpt>
<trkpt lat="31.3164800" lon="35.3388700">
<ele>35.770000</ele>
<time>2022-11-23T10:25:13.342Z</time>
</trkpt>
<trkpt lat="31.3164600" lon="35.3391900">
<ele>32.270000</ele>
<time>2022-11-23T10:25:13.342Z</time>
</trkpt>
<trkpt lat="31.3163500" lon="35.3394100">
<ele>33.469997</ele>
<time>2022-11-23T10:25:13.342Z</time>
</trkpt>
<trkpt lat="31.3164700" lon="35.3393300">
<ele>30.900000</ele>
<time>2022-11-23T10:25:13.342Z</time>
</trkpt>
<trkpt lat="31.3165100" lon="35.3392800">
<ele>30.390001</ele>
<time>2022-11-23T10:25:13.342Z</time>
</trkpt>
<trkpt lat="31.3166200" lon="35.3390700">
<ele>30.340000</ele>
<time>2022-11-23T10:25:13.342Z</time>
</trkpt>
<trkpt lat="31.3167200" lon="35.3386800">
<ele>37.820000</ele>
<time>2022-11-23T10:25:13.342Z</time>
</trkpt>
<trkpt lat="31.3167800" lon="35.3386500">
<ele>38.110001</ele>
<time>2022-11-23T10:25:13.342Z</time>
</trkpt>
<trkpt lat="31.3167500" lon="35.3388600">
<ele>34.079998</ele>
<time>2022-11-23T10:25:13.342Z</time>
</trkpt>
<trkpt lat="31.3167100" lon="35.3390700">
<ele>30.170000</ele>
<time>2022-11-23T10:25:13.342Z</time>
</trkpt>
<trkpt lat="31.3166200" lon="35.3393400">
<ele>27.240000</ele>
<time>2022-11-23T10:25:13.342Z</time>
</trkpt>
<trkpt lat="31.3165300" lon="35.3395200">
<ele>28.990000</ele>
<time>2022-11-23T10:25:13.342Z</time>
</trkpt>
<trkpt lat="31.3162900" lon="35.3396800">
<ele>35.690002</ele>
<time>2022-11-23T10:25:13.343Z</time>
</trkpt>
<trkpt lat="31.3160700" lon="35.3398200">
<ele>37.730000</ele>
<time>2022-11-23T10:25:13.343Z</time>
</trkpt>
<trkpt lat="31.3158900" lon="35.3399100">
<ele>36.270000</ele>
<time>2022-11-23T10:25:13.343Z</time>
</trkpt>
<trkpt lat="31.3158600" lon="35.3401900">
<ele>29.309999</ele>
<time>2022-11-23T10:25:13.343Z</time>
</trkpt>
<trkpt lat="31.3158200" lon="35.3401800">
<ele>29.590000</ele>
<time>2022-11-23T10:25:13.343Z</time>
</trkpt>
<trkpt lat="31.3157900" lon="35.3398100">
<ele>38.360001</ele>
<time>2022-11-23T10:25:13.343Z</time>
</trkpt>
<trkpt lat="31.3157500" lon="35.3398100">
<ele>37.970001</ele>
<time>2022-11-23T10:25:13.343Z</time>
</trkpt>
<trkpt lat="31.3157200" lon="35.3398800">
<ele>36.320000</ele>
<time>2022-11-23T10:25:13.343Z</time>
</trkpt>
<trkpt lat="31.3157500" lon="35.3401000">
<ele>31.910002</ele>
<time>2022-11-23T10:25:13.343Z</time>
</trkpt>
<trkpt lat="31.3157100" lon="35.3402700">
<ele>28.920000</ele>
<time>2022-11-23T10:25:13.343Z</time>
</trkpt>
<trkpt lat="31.3155100" lon="35.3406000">
<ele>31.730000</ele>
<time>2022-11-23T10:25:13.343Z</time>
</trkpt>
<trkpt lat="31.3153600" lon="35.3407400">
<ele>33.040001</ele>
<time>2022-11-23T10:25:13.343Z</time>
</trkpt>
<trkpt lat="31.3154300" lon="35.3407900">
<ele>32.900002</ele>
<time>2022-11-23T10:25:13.343Z</time>
</trkpt>
<trkpt lat="31.3155200" lon="35.3408200">
<ele>32.919998</ele>
<time>2022-11-23T10:25:13.343Z</time>
</trkpt>
<trkpt lat="31.3156800" lon="35.3407900">
<ele>30.379999</ele>
<time>2022-11-23T10:25:13.343Z</time>
</trkpt>
<trkpt lat="31.3159400" lon="35.3406800">
<ele>26.440001</ele>
<time>2022-11-23T10:25:13.343Z</time>
</trkpt>
<trkpt lat="31.3159700" lon="35.3406700">
<ele>26.270000</ele>
<time>2022-11-23T10:25:13.343Z</time>
</trkpt>
<trkpt lat="31.3160400" lon="35.3406500">
<ele>25.799999</ele>
<time>2022-11-23T10:25:13.343Z</time>
</trkpt>
<trkpt lat="31.3160700" lon="35.3406700">
<ele>26.289999</ele>
<time>2022-11-23T10:25:13.343Z</time>
</trkpt>
<trkpt lat="31.3161100" lon="35.3407200">
<ele>27.730000</ele>
<time>2022-11-23T10:25:13.343Z</time>
</trkpt>
<trkpt lat="31.3161100" lon="35.3408000">
<ele>30.029999</ele>
<time>2022-11-23T10:25:13.343Z</time>
</trkpt>
<trkpt lat="31.3160900" lon="35.3409100">
<ele>31.410000</ele>
<time>2022-11-23T10:25:13.343Z</time>
</trkpt>
<trkpt lat="31.3159000" lon="35.3410300">
<ele>32.290001</ele>
<time>2022-11-23T10:25:13.343Z</time>
</trkpt>
<trkpt lat="31.3157900" lon="35.3412800">
<ele>31.910002</ele>
<time>2022-11-23T10:25:13.343Z</time>
</trkpt>
<trkpt lat="31.3157100" lon="35.3415100">
<ele>30.660000</ele>
<time>2022-11-23T10:25:13.343Z</time>
</trkpt>
<trkpt lat="31.3157400" lon="35.3417900">
<ele>28.249998</ele>
<time>2022-11-23T10:25:13.343Z</time>
</trkpt>
<trkpt lat="31.3158100" lon="35.3420900">
<ele>19.370001</ele>
<time>2022-11-23T10:25:13.343Z</time>
</trkpt>
<trkpt lat="31.3158700" lon="35.3421500">
<ele>17.010000</ele>
<time>2022-11-23T10:25:13.343Z</time>
</trkpt>
<trkpt lat="31.3159600" lon="35.3422200">
<ele>15.379999</ele>
<time>2022-11-23T10:25:13.344Z</time>
</trkpt>
<trkpt lat="31.3162200" lon="35.3421500">
<ele>24.619999</ele>
<time>2022-11-23T10:25:13.344Z</time>
</trkpt>
<trkpt lat="31.3164500" lon="35.3421200">
<ele>30.410000</ele>
<time>2022-11-23T10:25:13.344Z</time>
</trkpt>
<trkpt lat="31.3165900" lon="35.3421500">
<ele>29.689999</ele>
<time>2022-11-23T10:25:13.344Z</time>
</trkpt>
<trkpt lat="31.3166500" lon="35.3421200">
<ele>30.219999</ele>
<time>2022-11-23T10:25:13.344Z</time>
</trkpt>
<trkpt lat="31.3167100" lon="35.3420800">
<ele>31.289999</ele>
<time>2022-11-23T10:25:13.344Z</time>
</trkpt>
<trkpt lat="31.3167700" lon="35.3420100">
<ele>32.450001</ele>
<time>2022-11-23T10:25:13.344Z</time>
</trkpt>
<trkpt lat="31.3168100" lon="35.3420000">
<ele>32.490002</ele>
<time>2022-11-23T10:25:13.344Z</time>
</trkpt>
<trkpt lat="31.3168700" lon="35.3420500">
<ele>32.200001</ele>
<time>2022-11-23T10:25:13.344Z</time>
</trkpt>
<trkpt lat="31.3169300" lon="35.3421400">
<ele>32.549999</ele>
<time>2022-11-23T10:25:13.344Z</time>
</trkpt>
<trkpt lat="31.3169800" lon="35.3421300">
<ele>32.969997</ele>
<time>2022-11-23T10:25:13.344Z</time>
</trkpt>
<trkpt lat="31.3170500" lon="35.3420500">
<ele>33.049999</ele>
<time>2022-11-23T10:25:13.344Z</time>
</trkpt>
<trkpt lat="31.3170900" lon="35.3418300">
<ele>32.500000</ele>
<time>2022-11-23T10:25:13.344Z</time>
</trkpt>
<trkpt lat="31.3172000" lon="35.3417800">
<ele>32.420002</ele>
<time>2022-11-23T10:25:13.344Z</time>
</trkpt>
<trkpt lat="31.3172700" lon="35.3418200">
<ele>33.410000</ele>
<time>2022-11-23T10:25:13.344Z</time>
</trkpt>
<trkpt lat="31.3173400" lon="35.3417100">
<ele>34.279999</ele>
<time>2022-11-23T10:25:13.344Z</time>
</trkpt>
<trkpt lat="31.3174600" lon="35.3415100">
<ele>36.360001</ele>
<time>2022-11-23T10:25:13.344Z</time>
</trkpt>
<trkpt lat="31.3176600" lon="35.3412400">
<ele>40.370003</ele>
<time>2022-11-23T10:25:13.344Z</time>
</trkpt>
<trkpt lat="31.3178500" lon="35.3410300">
<ele>42.490002</ele>
<time>2022-11-23T10:25:13.344Z</time>
</trkpt>
<trkpt lat="31.3180100" lon="35.3410100">
<ele>44.139999</ele>
<time>2022-11-23T10:25:13.344Z</time>
</trkpt>
<trkpt lat="31.3180100" lon="35.3410100">
<ele>44.139999</ele>
<time>2022-11-23T10:25:13.344Z</time>
</trkpt>
<trkpt lat="31.3181700" lon="35.3409900">
<ele>44.639999</ele>
<time>2022-11-23T10:25:13.344Z</time>
</trkpt>
<trkpt lat="31.3184200" lon="35.3409900">
<ele>44.780003</ele>
<time>2022-11-23T10:25:13.344Z</time>
</trkpt>
<trkpt lat="31.3184200" lon="35.3409800">
<ele>44.910000</ele>
<time>2022-11-23T10:25:13.344Z</time>
</trkpt>
<trkpt lat="31.3185000" lon="35.3409600">
<ele>45.119999</ele>
<time>2022-11-23T10:25:13.344Z</time>
</trkpt>
<trkpt lat="31.3187200" lon="35.3410000">
<ele>45.430000</ele>
<time>2022-11-23T10:25:13.344Z</time>
</trkpt>
<trkpt lat="31.3188300" lon="35.3410000">
<ele>46.059998</ele>
<time>2022-11-23T10:25:13.344Z</time>
</trkpt>
<trkpt lat="31.3194700" lon="35.3411500">
<ele>50.139999</ele>
<time>2022-11-23T10:25:13.344Z</time>
</trkpt>
<trkpt lat="31.3195000" lon="35.3411600">
<ele>50.420002</ele>
<time>2022-11-23T10:25:13.344Z</time>
</trkpt>
<trkpt lat="31.3195500" lon="35.3412100">
<ele>50.779999</ele>
<time>2022-11-23T10:25:13.344Z</time>
</trkpt>
<trkpt lat="31.3196000" lon="35.3412700">
<ele>51.110001</ele>
<time>2022-11-23T10:25:13.344Z</time>
</trkpt>
<trkpt lat="31.3196300" lon="35.3412900">
<ele>51.360001</ele>
<time>2022-11-23T10:25:13.345Z</time>
</trkpt>
<trkpt lat="31.3196500" lon="35.3413200">
<ele>51.469997</ele>
<time>2022-11-23T10:25:13.345Z</time>
</trkpt>
<trkpt lat="31.3196700" lon="35.3413300">
<ele>51.650002</ele>
<time>2022-11-23T10:25:13.345Z</time>
</trkpt>
<trkpt lat="31.3196600" lon="35.3413200">
<ele>51.580002</ele>
<time>2022-11-23T10:25:13.345Z</time>
</trkpt>
<trkpt lat="31.3199400" lon="35.3413400">
<ele>50.750000</ele>
<time>2022-11-23T10:25:13.345Z</time>
</trkpt>
<trkpt lat="31.3202300" lon="35.3411500">
<ele>53.380001</ele>
<time>2022-11-23T10:25:13.345Z</time>
</trkpt>
<trkpt lat="31.3209100" lon="35.3410800">
<ele>54.920002</ele>
<time>2022-11-23T10:25:13.345Z</time>
</trkpt>
<trkpt lat="31.3216200" lon="35.3413000">
<ele>61.149998</ele>
<time>2022-11-23T10:25:13.345Z</time>
</trkpt>
<trkpt lat="31.3224700" lon="35.3412800">
<ele>60.609997</ele>
<time>2022-11-23T10:25:13.345Z</time>
</trkpt>
<trkpt lat="31.3230700" lon="35.3416000">
<ele>61.889999</ele>
<time>2022-11-23T10:25:13.345Z</time>
</trkpt>
<trkpt lat="31.3233100" lon="35.3423700">
<ele>59.699997</ele>
<time>2022-11-23T10:25:13.345Z</time>
</trkpt>
<trkpt lat="31.3236200" lon="35.3431400">
<ele>62.110001</ele>
<time>2022-11-23T10:25:13.345Z</time>
</trkpt>
<trkpt lat="31.3241100" lon="35.3432700">
<ele>58.360001</ele>
<time>2022-11-23T10:25:13.345Z</time>
</trkpt>
<trkpt lat="31.3245900" lon="35.3434000">
<ele>55.389999</ele>
<time>2022-11-23T10:25:13.345Z</time>
</trkpt>
<trkpt lat="31.3252000" lon="35.3435100">
<ele>52.550003</ele>
<time>2022-11-23T10:25:13.345Z</time>
</trkpt>
<trkpt lat="31.3255800" lon="35.3441700">
<ele>46.349998</ele>
<time>2022-11-23T10:25:13.345Z</time>
</trkpt>
<trkpt lat="31.3259500" lon="35.3448200">
<ele>46.259998</ele>
<time>2022-11-23T10:25:13.345Z</time>
</trkpt>
<trkpt lat="31.3261900" lon="35.3453400">
<ele>43.149998</ele>
<time>2022-11-23T10:25:13.345Z</time>
</trkpt>
<trkpt lat="31.3262600" lon="35.3456200">
<ele>37.630001</ele>
<time>2022-11-23T10:25:13.345Z</time>
</trkpt>
<trkpt lat="31.3264200" lon="35.3457300">
<ele>34.340000</ele>
<time>2022-11-23T10:25:13.345Z</time>
</trkpt>
<trkpt lat="31.3264900" lon="35.3459500">
<ele>29.650000</ele>
<time>2022-11-23T10:25:13.345Z</time>
</trkpt>
<trkpt lat="31.3266200" lon="35.3461300">
<ele>25.559999</ele>
<time>2022-11-23T10:25:13.345Z</time>
</trkpt>
<trkpt lat="31.3266700" lon="35.3466400">
<ele>19.280001</ele>
<time>2022-11-23T10:25:13.345Z</time>
</trkpt>
<trkpt lat="31.3265800" lon="35.3461300">
<ele>26.100000</ele>
<time>2022-11-23T10:25:13.345Z</time>
</trkpt>
<trkpt lat="31.3263300" lon="35.3456200">
<ele>37.200001</ele>
<time>2022-11-23T10:25:13.345Z</time>
</trkpt>
<trkpt lat="31.3260700" lon="35.3451100">
<ele>46.540001</ele>
<time>2022-11-23T10:25:13.345Z</time>
</trkpt>
<trkpt lat="31.3258200" lon="35.3446000">
<ele>45.470001</ele>
<time>2022-11-23T10:25:13.345Z</time>
</trkpt>
<trkpt lat="31.3254400" lon="35.3438900">
<ele>48.660004</ele>
<time>2022-11-23T10:25:13.345Z</time>
</trkpt>
<trkpt lat="31.3252000" lon="35.3435800">
<ele>52.950001</ele>
<time>2022-11-23T10:25:13.345Z</time>
</trkpt>
<trkpt lat="31.3250000" lon="35.3435100">
<ele>54.910004</ele>
<time>2022-11-23T10:25:13.345Z</time>
</trkpt>
<trkpt lat="31.3243500" lon="35.3433400">
<ele>57.099998</ele>
<time>2022-11-23T10:25:13.345Z</time>
</trkpt>
<trkpt lat="31.3235700" lon="35.3429700">
<ele>60.520000</ele>
<time>2022-11-23T10:25:13.345Z</time>
</trkpt>
<trkpt lat="31.3231400" lon="35.3420900">
<ele>60.250000</ele>
<time>2022-11-23T10:25:13.346Z</time>
</trkpt>
<trkpt lat="31.3228900" lon="35.3414700">
<ele>61.579998</ele>
<time>2022-11-23T10:25:13.346Z</time>
</trkpt>
<trkpt lat="31.3220600" lon="35.3412800">
<ele>60.149998</ele>
<time>2022-11-23T10:25:13.346Z</time>
</trkpt>
<trkpt lat="31.3212900" lon="35.3411000">
<ele>57.160000</ele>
<time>2022-11-23T10:25:13.346Z</time>
</trkpt>
<trkpt lat="31.3206700" lon="35.3410000">
<ele>56.389999</ele>
<time>2022-11-23T10:25:13.346Z</time>
</trkpt>
<trkpt lat="31.3201400" lon="35.3411900">
<ele>52.439999</ele>
<time>2022-11-23T10:25:13.346Z</time>
</trkpt>
<trkpt lat="31.3194600" lon="35.3414700">
<ele>49.430000</ele>
<time>2022-11-23T10:25:13.346Z</time>
</trkpt>
<trkpt lat="31.3189800" lon="35.3422600">
<ele>44.459999</ele>
<time>2022-11-23T10:25:13.346Z</time>
</trkpt>
<trkpt lat="31.3185400" lon="35.3428200">
<ele>40.090000</ele>
<time>2022-11-23T10:25:13.346Z</time>
</trkpt>
<trkpt lat="31.3185100" lon="35.3428900">
<ele>39.990002</ele>
<time>2022-11-23T10:25:13.346Z</time>
</trkpt>
<trkpt lat="31.3185100" lon="35.3428900">
<ele>39.990002</ele>
<time>2022-11-23T10:25:13.346Z</time>
</trkpt>
<trkpt lat="31.3185000" lon="35.3428800">
<ele>39.840000</ele>
<time>2022-11-23T10:25:13.346Z</time>
</trkpt>
<trkpt lat="31.3184500" lon="35.3429500">
<ele>39.760002</ele>
<time>2022-11-23T10:25:13.346Z</time>
</trkpt>
<trkpt lat="31.3182700" lon="35.3432600">
<ele>38.799999</ele>
<time>2022-11-23T10:25:13.346Z</time>
</trkpt>
<trkpt lat="31.3174800" lon="35.3449400">
<ele>12.650000</ele>
<time>2022-11-23T10:25:13.346Z</time>
</trkpt>
<trkpt lat="31.3174000" lon="35.3451100">
<ele>9.210000</ele>
<time>2022-11-23T10:25:13.346Z</time>
</trkpt>
<trkpt lat="31.3174000" lon="35.3451100">
<ele>9.210000</ele>
<time>2022-11-23T10:25:13.346Z</time>
</trkpt>
<trkpt lat="31.3174000" lon="35.3451100">
<ele>9.210000</ele>
<time>2022-11-23T10:25:13.346Z</time>
</trkpt>
<trkpt lat="31.3172600" lon="35.3454500">
<ele>3.720000</ele>
<time>2022-11-23T10:25:13.346Z</time>
</trkpt>
<trkpt lat="31.3171200" lon="35.3458300">
<ele>-1.080000</ele>
<time>2022-11-23T10:25:13.346Z</time>
</trkpt>
<trkpt lat="31.3170300" lon="35.3462600">
<ele>-2.920000</ele>
<time>2022-11-23T10:25:13.346Z</time>
</trkpt>
<trkpt lat="31.3170000" lon="35.3466700">
<ele>-4.000000</ele>
<time>2022-11-23T10:25:13.346Z</time>
</trkpt>
<trkpt lat="31.3169900" lon="35.3470100">
<ele>-3.290000</ele>
<time>2022-11-23T10:25:13.346Z</time>
</trkpt>
<trkpt lat="31.3170000" lon="35.3471300">
<ele>-3.070000</ele>
<time>2022-11-23T10:25:13.346Z</time>
</trkpt>
<trkpt lat="31.3170300" lon="35.3472100">
<ele>-3.260000</ele>
<time>2022-11-23T10:25:13.346Z</time>
</trkpt>
<trkpt lat="31.3170800" lon="35.3472700">
<ele>-4.640000</ele>
<time>2022-11-23T10:25:13.346Z</time>
</trkpt>
<trkpt lat="31.3171600" lon="35.3473200">
<ele>-6.510000</ele>
<time>2022-11-23T10:25:13.346Z</time>
</trkpt>
<trkpt lat="31.3172300" lon="35.3472900">
<ele>-7.000000</ele>
<time>2022-11-23T10:25:13.346Z</time>
</trkpt>
<trkpt lat="31.3173100" lon="35.3472000">
<ele>-6.660000</ele>
<time>2022-11-23T10:25:13.346Z</time>
</trkpt>
<trkpt lat="31.3173900" lon="35.3470700">
<ele>-7.540000</ele>
<time>2022-11-23T10:25:13.347Z</time>
</trkpt>
<trkpt lat="31.3174600" lon="35.3470000">
<ele>-8.400000</ele>
<time>2022-11-23T10:25:13.347Z</time>
</trkpt>
<trkpt lat="31.3175500" lon="35.3469800">
<ele>-9.050000</ele>
<time>2022-11-23T10:25:13.347Z</time>
</trkpt>
<trkpt lat="31.3176000" lon="35.3470000">
<ele>-9.160000</ele>
<time>2022-11-23T10:25:13.347Z</time>
</trkpt>
<trkpt lat="31.3176500" lon="35.3470500">
<ele>-9.160000</ele>
<time>2022-11-23T10:25:13.347Z</time>
</trkpt>
<trkpt lat="31.3176800" lon="35.3471300">
<ele>-8.980000</ele>
<time>2022-11-23T10:25:13.347Z</time>
</trkpt>
<trkpt lat="31.3176600" lon="35.3474500">
<ele>-9.050000</ele>
<time>2022-11-23T10:25:13.347Z</time>
</trkpt>
<trkpt lat="31.3176600" lon="35.3475900">
<ele>-9.750000</ele>
<time>2022-11-23T10:25:13.347Z</time>
</trkpt>
<trkpt lat="31.3177100" lon="35.3476500">
<ele>-10.320001</ele>
<time>2022-11-23T10:25:13.347Z</time>
</trkpt>
<trkpt lat="31.3177900" lon="35.3476800">
<ele>-10.850000</ele>
<time>2022-11-23T10:25:13.347Z</time>
</trkpt>
<trkpt lat="31.3180700" lon="35.3476600">
<ele>-15.200000</ele>
<time>2022-11-23T10:25:13.347Z</time>
</trkpt>
<trkpt lat="31.3181200" lon="35.3476700">
<ele>-15.460001</ele>
<time>2022-11-23T10:25:13.347Z</time>
</trkpt>
<trkpt lat="31.3181700" lon="35.3477100">
<ele>-15.920000</ele>
<time>2022-11-23T10:25:13.347Z</time>
</trkpt>
<trkpt lat="31.3181700" lon="35.3477100">
<ele>-15.920000</ele>
<time>2022-11-23T10:25:13.347Z</time>
</trkpt>
<trkpt lat="31.3182600" lon="35.3478300">
<ele>-17.160000</ele>
<time>2022-11-23T10:25:13.347Z</time>
</trkpt>
<trkpt lat="31.3181500" lon="35.3479700">
<ele>-18.180000</ele>
<time>2022-11-23T10:25:13.347Z</time>
</trkpt>
<trkpt lat="31.3182300" lon="35.3480600">
<ele>-19.049999</ele>
<time>2022-11-23T10:25:13.347Z</time>
</trkpt>
</trkseg>
</trk>
</gpx>
